GFSSW_prec_cloud_003.txt.gz
Cloud_Cover
4 12 3 0 0 1 3 2 0 0 0 0 0 6 40 94 2 0 0 0 0 0 0 2 5 5 5 5 5 3 5 5 5 5 19 25 19 3 0 0 0 0 0 0 0
4 1 5 3 0 0 0 1 1 0 0 9 19 22 90 100 1 0 0 0 0 0 0 0 5 5 5 5 5 8 5 5 4 5 5 95 40 1 0 0 0 0 0 0 0
8 1 4 2 0 0 0 0 0 1 2 14 16 42 94 47 0 0 0 0 0 0 0 0 0 5 5 5 5 60 99 6 5 0 6 46 83 2 0 0 0 0 0 0 0
1 1 0 0 0 0 0 0 0 6 13 6 20 51 77 0 0 0 0 0 0 0 0 0 0 0 5 5 5 5 48 28 1 6 2 0 3 28 0 85 21 0 0 0 1
0 0 0 2 0 0 0 0 0 3 18 12 59 89 3 0 0 0 0 0 0 0 0 0 0 0 1 5 5 5 1 5 2 2 0 3 0 0 1 4 94 10 76 10 3
0 0 0 0 0 0 0 0 10 13 12 24 100 99 2 0 0 0 0 0 0 0 0 0 0 0 1 5 4 5 3 5 2 0 0 2 6 0 0 0 2 5 8 5 17
7 7 0 0 0 0 0 11 16 19 29 100 100 48 0 0 0 0 0 0 0 0 0 0 0 0 0 0 2 4 4 2 5 0 0 0 0 0 0 0 0 0 0 0 0
38 18 7 5 0 6 21 59 19 38 100 100 100 28 0 0 0 0 0 0 0 0 0 0 0 0 0 0 0 0 1 0 0 0 0 0 0 0 0 0 0 0 0 0 0
0 2 0 1 90 100 34 36 45 100 100 100 36 17 0 0 0 0 0 0 0 0 0 0 0 0 0 0 0 0 0 1 0 5 0 0 0 0 0 0 0 0 0 0 0
0 0 0 0 98 48 49 3 48 80 80 64 17 0 0 0 0 0 0 0 0 0 0 0 0 0 0 0 0 0 0 0 0 0 0 4 0 0 0 0 0 0 0 0 0
0 0 6 2 61 1 44 0 0 0 0 0 0 0 0 0 0 0 0 0 0 0 0 0 0 0 0 0 0 0 0 0 5 5 5 5 5 0 0 0 0 0 0 0 0
0 0 0 1 1 0 5 0 0 0 0 0 0 0 0 0 0 0 0 0 0 0 0 0 0 0 0 0 0 0 0 0 5 5 4 5 11 5 5 5 5 5 1 0 0
0 0 1 52 0 0 0 0 0 0 0 0 0 0 0 0 0 0 0 0 0 0 0 0 0 0 0 0 0 0 0 0 0 5 5 5 5 5 3 5 5 3 4 4 0
0 0 52 54 0 0 0 0 0 0 0 0 0 0 0 0 0 0 0 0 0 0 0 0 0 3 0 0 0 0 0 0 0 2 0 8 0 5 5 5 5 5 2 5 5
6 100 84 95 4 0 0 0 0 0 0 0 0 0 0 0 0 0 0 0 0 0 0 0 0 0 0 0 0 0 0 0 3 2 0 2 0 0 5 0 3 5 0 4 50
100 97 100 100 33 3 3 2 0 0 0 0 0 0 0 0 0 0 0 0 0 0 0 0 0 0 0 0 0 0 0 0 0 0 2 0 0 0 0 0 3 4 5 5 5
74 30 89 100 100 16 5 2 4 0 0 0 0 0 0 0 0 0 0 0 0 0 0 0 0 0 0 0 0 0 0 0 0 0 0 0 0 0 0 0 3 5 5 5 5
82 100 99 100 92 98 86 5 5 5 4 0 0 0 0 0 0 0 0 0 0 0 0 0 0 0 0 0 0 0 0 0 0 0 0 0 0 0 0 0 0 0 1 4 0
100 100 100 100 100 100 6 5 94 6 2 2 0 0 0 0 0 0 0 0 0 0 0 0 0 0 0 0 0 0 0 0 0 0 0 0 0 0 0 0 0 0 0 0 0
94 99 100 100 100 100 96 64 100 100 15 10 2 0 0 0 0 0 0 0 0 0 0 0 0 0 0 0 0 0 0 0 0 0 1 0 0 0 0 0 0 0 0 0 3
100 100 100 100 100 100 100 100 100 98 5 5 5 0 0 0 0 0 0 0 0 0 0 0 0 0 0 0 0 0 0 0 0 0 0 0 0 0 0 0 0 0 0 0 0
100 100 100 100 55 51 100 61 78 100 88 5 5 5 0 0 0 0 0 0 0 0 0 0 0 0 0 0 0 0 0 0 0 0 0 0 0 0 0 0 0 0 0 0 0
100 100 58 96 100 100 98 100 66 100 100 25 5 5 14 2 0 0 0 0 0 0 0 0 0 0 0 0 0 0 0 0 0 0 0 0 0 0 0 0 0 0 0 2 0
20 76 99 42 76 100 100 100 100 100 100 86 5 37 80 44 0 0 0 0 0 0 0 0 0 0 0 0 1 0 0 0 0 0 0 0 0 0 0 0 0 0 0 0 6
70 5 100 100 100 100 100 100 100 100 100 100 98 98 100 48 2 0 0 0 0 0 0 0 0 0 0 0 0 0 0 0 0 0 0 0 0 0 0 0 0 0 0 0 5
100 100 100 100 100 100 87 96 100 100 100 100 100 100 100 71 5 0 0 0 0 22 5 0 0 4 0 0 0 0 0 0 0 0 0 0 0 0 0 0 0 0 0 0 0
100 100 100 100 100 100 100 100 100 100 100 100 100 100 100 100 31 5 0 4 0 0 68 5 0 5 0 0 0 0 0 0 0 0 0 0 0 0 0 0 0 2 5 0 0

GFSSW_prec_cloud_006.txt.gz
Cloud_Cover
1 8 2 4 1 0 0 0 0 0 0 0 0 0 0 0 0 0 0 0 0 0 0 0 0 5 5 5 5 5 78 100 84 93 22 9 5 5 1 0 0 0 0 0 0
0 0 0 0 0 3 0 0 0 0 0 0 0 5 0 1 0 0 0 0 0 0 0 0 2 5 5 5 5 6 93 86 27 71 5 29 6 1 0 0 0 0 0 0 0
7 3 0 0 0 0 0 0 0 0 0 2 16 14 0 16 0 0 0 0 0 0 0 0 2 5 5 5 4 20 83 36 5 23 7 12 37 26 0 0 0 0 0 0 0
3 1 2 0 0 0 0 0 0 0 15 17 14 17 0 0 0 0 0 0 0 0 0 0 0 0 0 0 0 6 99 17 5 4 0 0 0 43 0 0 0 0 0 0 0
0 0 0 1 0 2 0 0 0 10 10 25 19 10 0 0 0 0 0 0 0 0 0 0 0 0 0 2 4 0 4 5 5 0 0 0 0 0 0 0 1 1 0 0 0
1 0 0 0 0 0 0 0 0 7 0 18 58 46 0 0 0 0 0 0 0 0 0 0 0 0 0 5 4 2 0 5 0 0 0 2 2 0 0 0 1 6 3 5 5
85 0 0 0 0 0 0 1 8 3 16 11 100 1 0 0 0 0 0 0 0 0 0 0 0 0 0 4 5 3 0 2 0 0 0 1 0 0 0 0 0 0 0 0 0
0 0 0 0 0 0 0 6 10 28 75 99 92 0 0 0 0 0 0 0 0 0 0 0 0 0 0 3 0 4 1 5 0 0 0 0 4 0 0 0 0 0 0 0 0
0 0 0 0 0 8 3 0 15 100 100 86 3 0 0 0 0 0 0 0 0 0 0 0 0 0 0 0 0 0 4 6 0 0 0 0 25 0 0 0 0 0 0 0 0
0 0 0 0 0 0 6 0 38 52 33 1 0 0 0 0 0 0 0 0 0 0 0 0 0 0 0 0 0 5 4 5 3 0 0 0 9 0 0 0 0 0 0 0 0
0 0 0 0 0 0 0 0 0 0 0 0 0 0 0 0 0 0 0 0 0 0 0 0 0 0 0 0 0 5 5 5 5 6 3 0 0 0 0 0 0 0 0 0 0
0 0 0 0 0 0 3 0 0 0 0 0 0 0 0 0 0 0 0 0 0 0 0 0 0 0 0 0 0 3 5 5 56 5 5 14 2 0 0 0 0 0 0 0 0
0 0 0 0 0 1 0 0 0 0 0 0 0 0 0 0 0 0 0 0 0 0 0 0 0 0 0 0 0 0 0 5 83 2 5 43 5 0 0 5 0 0 3 0 0
0 0 0 0 0 3 2 0 0 0 0 0 0 0 0 0 0 0 0 0 0 0 0 0 0 0 0 0 0 0 0 5 6 21 5 2 37 6 3 0 0 0 0 2 4
0 0 0 0 0 0 5 1 4 0 0 0 0 0 0 0 0 0 0 0 0 0 0 0 0 0 0 0 0 0 0 0 4 5 82 96 21 7 2 0 0 0 0 0 4
5 5 5 1 0 0 0 0 1 10 20 1 0 0 0 0 0 0 0 0 0 0 0 0 0 0 0 0 0 0 1 4 3 5 8 37 46 2 5 0 0 2 0 0 0
23 5 37 8 5 3 0 0 0 1 59 28 25 0 0 0 0 0 0 0 0 0 0 0 0 0 0 0 0 0 0 0 2 5 26 46 42 0 5 3 0 3 0 3 8
5 5 29 98 100 39 0 0 4 3 91 7 81 12 0 0 0 0 0 0 0 0 0 0 0 0 0 0 0 0 0 0 5 5 13 6 11 0 0 2 0 0 0 22 5
86 100 100 100 100 100 99 9 6 37 5 4 5 52 5 0 0 0 0 0 0 0 0 0 0 0 0 0 0 0 0 0 5 33 36 3 1 0 0 0 0 0 0 3 5
100 100 100 100 100 100 24 76 97 93 9 5 5 7 52 3 0 0 0 0 0 0 0 0 0 0 0 0 0 0 0 0 1 33 98 5 15 3 0 0 0 0 0 0 0
100 100 100 100 79 72 87 27 50 100 6 5 65 77 93 41 3 2 0 0 0 0 0 0 0 0 0 0 0 0 0 0 1 4 14 43 5 4 0 0 0 0 0 3 1
100 100 100 100 100 100 96 10 11 19 5 5 6 100 46 68 5 5 0 0 0 0 0 0 0 0 0 0 0 0 0 0 0 0 4 3 1 5 2 0 0 0 5 1 0
100 100 100 94 99 62 100 57 56 91 22 6 5 98 99 100 7 5 5 0 0 0 0 0 0 2 0 0 0 0 0 0 0 0 4 5 0 3 2 0 0 0 0 0 0
18 5 12 68 90 66 63 66 100 100 100 100 5 38 56 100 100 19 30 7 0 0 0 0 0 0 0 0 0 0 0 0 0 0 1 1 62 5 1 0 0 0 0 0 0
86 100 94 99 100 100 100 97 87 100 100 100 12 86 100 100 100 100 54 7 1 0 0 0 0 4 0 0 2 0 0 0 0 0 1 2 5 84 99 42 0 0 0 0 0
97 99 100 100 100 100 100 100 100 100 100 100 100 100 100 100 100 100 42 100 5 5 0 0 0 0 5 2 0 0 0 0 0 0 0 0 0 5 93 51 4 0 0 0 0
84 100 99 97 100 100 100 100 100 100 100 100 100 79 86 100 100 100 80 100 62 1 3 0 2 10 4 48 22 3 0 4 0 0 0 0 0 2 7 5 2 0 0 0 0

GFSSW_prec_cloud_009.txt.gz
Cloud_Cover
1 1 0 0 0 0 0 0 0 0 0 0 0 0 0 0 0 0 0 0 0 0 29 0 3 5 5 0 5 12 47 92 88 75 56 1 4 0 2 0 0 61 11 1 0
12 0 0 0 0 0 0 0 0 0 0 0 0 1 0 2 0 0 0 0 0 0 0 0 0 5 5 1 0 82 100 100 59 100 80 5 5 0 1 0 0 0 25 0 0
2 0 0 0 0 0 0 0 0 0 0 0 0 0 0 0 0 0 0 0 0 0 0 0 0 5 5 4 0 80 100 75 100 41 100 5 47 5 5 0 0 0 0 0 0
0 0 0 0 0 0 0 0 0 0 0 0 0 0 0 0 0 0 0 0 0 0 0 0 0 4 5 0 0 5 98 97 98 3 81 8 45 4 3 20 0 0 0 0 0
2 0 0 0 0 0 0 0 0 0 0 0 0 0 0 0 0 0 0 0 0 0 0 0 0 2 0 4 3 1 14 25 25 5 6 62 59 5 4 1 0 0 0 0 0
0 0 0 0 0 0 0 0 0 0 0 0 6 6 0 0 0 0 0 0 0 0 0 0 0 0 1 0 4 33 6 4 5 5 3 70 27 5 5 0 0 2 0 0 4
2 0 0 0 0 0 0 0 0 0 4 16 13 0 0 0 0 0 0 0 0 0 0 0 0 0 0 0 0 2 3 3 4 5 4 5 14 5 4 0 0 2 1 1 2
0 0 0 0 0 0 0 0 0 7 63 2 22 0 0 0 0 0 0 0 0 0 0 0 0 0 0 0 2 4 0 5 31 4 3 0 22 0 0 1 3 0 0 0 0
0 0 0 0 0 0 0 0 0 13 8 1 3 0 0 0 0 0 0 0 0 0 0 0 0 0 0 0 0 4 4 9 100 2 3 2 96 10 0 0 1 0 0 0 0
0 0 0 0 0 0 0 0 0 41 6 0 0 0 0 0 0 0 0 0 0 0 0 0 0 0 0 0 0 5 5 86 80 11 2 0 87 9 0 0 0 0 0 0 0
0 0 0 0 0 0 0 0 0 0 0 0 0 0 0 0 0 0 0 0 0 0 0 0 0 0 0 0 0 5 100 77 100 53 2 5 33 1 0 0 2 0 0 0 0
0 0 0 0 0 0 2 0 0 0 0 0 0 0 0 0 0 0 0 0 0 0 0 0 0 0 0 0 0 4 50 89 100 9 57 66 84 99 8 0 0 1 0 0 0
0 0 0 0 0 0 0 0 0 0 0 0 0 0 0 0 0 0 0 0 0 0 0 0 0 0 0 0 0 0 5 84 100 40 100 77 100 88 73 1 0 0 0 0 0
0 0 0 0 0 0 0 0 0 0 0 0 0 0 0 0 0 0 0 0 0 0 0 0 0 0 0 0 0 0 4 62 95 96 100 12 94 97 57 50 0 0 0 0 0
5 0 0 0 0 0 0 0 0 0 0 0 0 0 0 0 0 0 0 0 0 0 0 0 0 0 0 0 0 0 4 5 76 100 100 94 76 100 99 26 4 0 0 0 0
1 4 5 5 2 0 0 0 0 0 0 0 0 0 0 0 0 0 0 0 0 0 0 0 0 0 0 0 0 0 2 5 14 100 100 100 71 15 99 100 69 46 1 0 0
100 94 38 11 5 5 4 0 0 0 0 1 5 0 0 0 0 0 0 0 0 0 0 0 0 0 0 0 0 0 0 9 62 100 47 100 93 100 88 40 30 54 100 19 1
94 5 5 14 5 8 3 0 0 10 28 0 0 0 0 0 0 0 0 0 0 0 0 0 0 0 0 5 0 0 0 0 5 58 95 18 93 50 100 15 100 99 6 69 6
5 3 5 5 5 3 0 0 6 100 38 43 76 97 3 0 0 0 0 0 0 0 0 0 0 0 0 0 1 0 0 0 5 73 91 94 50 94 100 97 64 5 5 47 5
100 77 26 9 5 1 0 8 47 100 100 90 35 5 16 50 2 5 0 0 0 0 0 0 0 0 0 0 0 0 3 0 0 17 100 98 91 100 47 4 4 5 5 5 5
6 24 2 5 5 5 6 43 36 100 100 93 100 35 4 12 34 25 6 0 0 0 0 0 0 0 0 0 1 1 0 0 2 27 11 85 97 100 100 96 2 3 4 25 5
5 60 5 10 5 5 2 11 75 12 12 68 100 100 99 5 4 3 42 4 0 0 0 0 0 0 0 0 0 0 0 0 0 0 4 32 100 100 88 3 1 5 5 67 98
5 5 4 4 4 7 9 47 20 20 43 28 95 100 100 57 0 1 5 46 0 0 0 0 0 0 0 0 0 0 0 3 0 2 4 13 1 85 100 99 99 50 3 0 94
42 3 6 59 12 6 8 92 100 100 95 86 100 100 100 48 5 5 5 87 3 0 5 0 0 0 0 0 0 0 0 0 0 0 0 2 60 94 45 42 21 2 0 1 65
56 33 93 14 100 100 96 25 100 99 100 100 99 100 100 100 11 25 92 100 46 5 5 0 0 0 0 4 5 4 0 0 0 0 0 0 5 5 14 91 45 33 0 0 0
76 100 87 62 96 16 100 100 100 100 100 100 100 100 100 100 84 100 100 100 97 5 5 8 0 0 4 2 2 6 10 5 0 0 0 0 4 5 7 100 95 5 0 0 0
90 49 100 6 93 100 15 100 100 100 100 100 100 100 100 100 100 95 93 100 100 85 5 98 18 5 5 5 72 58 0 0 4 5 1 0 0 5 69 97 31 4 0 0 0

GFSSW_prec_cloud_012.txt.gz
Cloud_Cover
8 2 4 0 0 0 0 0 0 0 0 0 0 0 0 0 0 0 0 0 0 0 29 0 0 0 0 0 84 97 94 100 100 55 70 6 1 37 71 16 36 78 1 8 27
2 1 0 0 0 0 0 0 0 0 0 0 0 0 0 1 0 0 0 0 0 0 0 0 0 0 0 1 81 50 69 80 91 6 95 22 2 5 3 0 74 3 24 0 52
0 0 0 0 0 0 0 0 0 0 0 0 0 0 0 0 0 0 0 0 0 0 0 0 0 0 0 1 92 76 100 99 47 7 11 98 16 3 1 1 2 65 10 1 87
0 0 0 0 0 0 0 0 0 0 0 0 0 0 0 0 0 0 0 0 0 0 0 0 0 0 0 0 4 99 85 87 98 93 97 95 42 0 9 79 2 5 0 0 21
0 0 0 0 0 0 0 0 0 0 0 0 0 8 0 0 0 0 0 0 0 0 0 0 0 0 0 0 1 26 48 96 94 37 2 91 73 3 15 68 3 0 0 0 0
0 0 0 0 0 0 0 0 0 0 0 0 2 23 0 0 0 0 0 0 0 0 0 0 0 0 0 0 3 60 41 14 5 55 5 16 78 1 4 2 2 0 0 0 0
0 0 0 0 0 0 0 0 0 0 0 2 28 1 0 0 0 0 0 0 0 0 0 0 0 0 0 0 0 5 66 37 2 3 97 1 100 4 5 1 2 0 5 1 5
0 0 0 0 0 0 0 0 0 0 0 50 43 0 0 0 0 0 0 0 0 0 0 0 0 0 0 0 0 0 1 9 5 34 9 0 100 3 5 0 0 0 0 0 0
0 0 0 0 0 0 0 0 0 0 24 5 12 0 0 0 0 0 0 0 0 0 0 0 0 0 0 0 0 0 2 4 93 100 81 0 49 86 18 3 3 0 0 0 0
0 0 0 0 0 0 0 0 0 23 17 0 0 0 0 0 0 0 0 0 0 0 0 0 0 0 0 0 0 0 3 5 69 58 96 86 100 100 50 77 6 2 0 0 0
0 0 0 0 0 0 0 0 0 0 0 0 0 0 0 0 0 0 0 0 0 0 0 0 0 0 0 0 0 0 48 12 100 99 100 100 100 100 24 58 9 3 0 0 0
0 0 0 0 0 0 0 0 0 0 0 0 0 0 0 0 0 0 0 0 0 0 0 0 0 0 0 0 0 0 6 30 100 67 100 100 67 76 8 3 1 0 0 0 0
0 0 0 0 0 0 0 0 0 0 0 0 0 0 0 0 0 0 0 0 0 0 0 0 0 0 0 0 0 0 0 5 100 94 99 98 92 100 98 5 0 1 0 0 0
0 0 0 0 0 0 0 0 0 0 0 0 0 0 0 0 0 0 0 0 0 0 0 0 0 0 0 0 0 0 0 7 27 100 12 99 74 92 97 2 0 0 0 0 0
0 0 6 5 0 0 0 0 0 0 0 0 0 0 0 0 0 0 0 0 0 0 0 0 0 0 0 4 0 0 0 0 5 100 11 21 48 97 100 100 38 2 0 0 0
5 5 15 27 34 2 4 0 0 0 0 0 0 0 0 0 0 0 0 0 0 0 0 0 0 0 0 4 0 0 0 0 4 78 98 100 30 99 81 100 66 96 5 0 0
42 50 5 5 5 5 5 5 4 2 6 0 0 0 0 0 0 0 0 0 0 0 0 0 0 0 0 0 0 1 0 0 0 5 6 98 49 95 85 98 85 91 100 9 0
5 5 5 5 5 5 1 1 7 100 63 0 0 0 0 0 0 0 0 0 0 0 0 0 0 0 0 0 0 1 0 0 0 0 2 0 70 50 94 5 92 100 94 78 0
0 0 4 5 5 5 2 0 5 82 10 5 0 0 0 0 0 0 0 0 0 0 0 0 0 0 0 0 0 0 0 0 0 2 5 20 46 5 54 50 100 97 100 100 96
0 0 0 0 0 5 5 5 5 7 2 1 0 0 0 0 0 0 0 0 0 0 0 0 0 0 0 0 0 0 0 0 0 0 0 1 32 100 9 33 5 98 100 94 48
0 0 0 0 0 0 0 1 0 4 2 0 0 0 0 0 2 2 0 0 0 0 0 0 0 0 0 0 0 0 0 0 0 0 0 0 0 4 100 91 18 1 99 93 22
5 0 0 52 7 31 5 5 2 0 5 2 0 0 0 0 0 4 1 5 5 5 0 0 0 0 0 0 0 0 0 0 0 0 0 0 0 68 91 96 31 41 0 0 0
6 4 0 0 4 1 2 3 51 87 42 7 34 0 0 5 0 0 3 3 5 5 7 4 0 0 0 0 0 0 0 0 0 0 0 0 0 0 100 64 89 97 32 7 4
69 24 0 4 6 55 25 4 5 34 91 100 100 100 4 0 4 0 0 3 94 12 5 76 4 0 0 0 0 0 0 0 0 0 0 0 3 2 100 50 38 100 65 87 14
58 38 79 15 1 93 100 100 44 10 95 100 100 99 100 48 8 8 4 5 44 44 5 5 1 0 0 0 13 4 2 0 0 0 0 0 0 5 23 99 14 100 71 71 94
100 45 80 70 12 13 98 100 98 25 100 90 100 100 100 70 93 82 66 97 4 24 6 5 0 0 0 0 0 81 37 5 0 0 0 0 0 0 7 64 100 100 64 73 7
80 50 99 32 64 91 5 59 100 96 100 95 100 81 100 100 48 5 5 4 0 5 27 5 2 1 0 5 11 82 0 42 63 1 0 0 0 0 0 41 66 100 84 76 97

GFSSW_prec_cloud_015.txt.gz
Cloud_Cover
1 0 0 0 0 0 0 0 0 0 0 0 0 0 0 0 0 0 0 0 0 0 12 0 0 0 0 85 9 98 98 100 86 100 90 98 49 100 1 52 0 48 84 14 0
0 0 0 0 0 0 0 0 0 0 0 0 0 0 0 1 0 0 0 0 0 0 0 0 0 0 0 61 24 54 96 100 96 91 100 50 74 0 17 17 9 4 16 0 0
0 0 0 0 0 0 0 0 0 0 0 0 0 0 0 0 0 0 0 0 0 0 0 0 0 0 0 42 22 93 58 71 85 44 66 97 5 0 0 3 1 0 0 0 0
0 0 0 0 0 0 0 0 0 0 0 0 0 0 0 0 0 0 0 0 0 0 0 0 0 0 0 5 14 86 100 92 83 100 13 86 73 5 3 0 0 0 0 0 0
0 0 0 0 0 0 0 0 0 0 0 0 0 8 0 0 0 0 0 0 0 0 0 0 0 0 0 0 4 1 32 100 74 53 43 20 41 56 11 0 0 0 0 0 0
0 0 0 0 0 0 0 0 0 0 0 0 2 48 2 0 0 0 0 0 0 0 0 0 0 0 0 0 0 4 37 89 96 100 27 18 99 100 55 2 0 0 0 0 0
0 0 0 0 0 0 0 0 0 0 0 0 53 13 0 0 0 0 0 0 0 0 0 0 0 0 0 0 0 0 4 6 87 34 99 6 5 100 98 2 0 0 0 0 47
0 0 0 0 0 0 0 0 0 0 0 1 97 0 0 0 0 0 0 0 0 0 0 0 0 0 0 0 0 0 0 4 63 7 67 20 5 17 100 2 0 3 5 0 0
0 0 0 0 0 0 0 0 0 0 0 27 18 0 0 0 0 0 0 0 0 0 0 0 0 0 0 0 0 0 0 0 2 84 48 22 4 0 96 5 0 0 0 0 0
0 0 0 0 0 0 0 0 0 0 10 1 0 0 0 0 0 0 0 0 0 0 0 0 0 0 0 0 0 0 0 0 2 17 11 20 4 4 84 100 3 0 0 0 0
0 0 0 0 0 0 0 0 0 0 0 0 0 0 0 0 0 0 0 0 0 0 0 0 0 0 0 0 0 0 0 0 2 98 98 32 24 6 99 27 0 0 0 0 0
0 0 0 0 0 0 0 0 0 0 0 0 0 0 0 0 0 0 0 0 0 0 0 0 0 0 0 0 0 0 0 0 38 100 84 83 58 26 77 1 0 0 0 0 0
0 0 0 0 0 0 0 0 0 0 0 0 0 0 0 0 0 0 0 0 0 0 0 0 0 0 0 0 0 0 0 0 40 76 37 82 95 24 81 46 30 0 0 0 0
0 0 0 0 0 0 0 0 0 0 0 2 0 0 0 0 0 0 0 0 0 0 0 0 0 0 0 0 0 0 0 0 3 71 77 84 37 88 24 5 2 5 4 0 0
0 0 0 0 0 0 0 0 0 0 0 2 1 0 0 0 0 0 0 0 0 0 0 0 0 0 0 0 0 0 0 0 3 86 39 53 100 16 66 100 100 18 5 2 0
0 0 0 0 0 0 0 1 2 1 13 0 0 9 2 0 0 0 0 0 0 0 0 0 0 0 0 0 0 0 0 0 5 65 84 4 81 69 21 74 95 6 13 19 60
0 0 0 0 0 0 0 2 4 5 45 5 0 0 0 3 0 0 0 0 0 0 0 0 0 0 0 0 0 0 0 0 0 2 0 5 2 2 96 72 37 4 29 13 71
0 0 0 0 0 0 0 0 0 13 59 2 0 0 0 0 0 0 0 0 0 0 0 0 0 0 0 0 0 0 0 0 0 0 0 0 0 0 31 80 97 91 69 82 100
0 0 0 0 0 0 0 0 0 0 0 0 0 0 0 0 0 0 0 0 0 0 0 0 0 0 0 0 0 0 0 0 0 0 0 0 0 0 5 59 100 100 9 66 100
0 0 0 0 0 0 0 0 0 0 0 0 0 0 0 0 0 0 0 0 0 0 0 0 0 0 0 0 0 0 0 0 0 0 0 0 0 0 1 18 5 5 66 5 87
0 4 0 0 0 0 0 0 0 0 0 2 0 0 0 0 0 0 0 0 0 0 0 0 0 0 0 0 0 0 0 0 0 0 0 0 0 0 1 70 10 5 17 5 22
5 11 0 0 0 3 0 0 0 0 0 4 0 0 0 0 0 0 0 5 3 0 0 0 0 1 0 0 0 0 0 0 0 0 0 0 1 0 5 38 100 14 18 43 8
14 4 0 0 2 1 4 5 6 53 62 8 30 82 5 1 0 0 0 0 4 1 0 0 0 0 0 93 15 4 0 0 0 0 0 0 6 98 3 10 10 8 100 100 100
17 21 0 0 3 20 19 1 0 2 5 9 12 75 22 3 4 0 0 0 0 0 0 21 0 0 5 19 3 5 0 0 0 0 0 0 0 0 8 15 89 59 90 96 100
48 73 90 43 5 20 96 94 16 15 3 18 64 99 100 16 5 0 0 0 0 0 1 33 0 0 5 0 0 5 0 5 0 0 0 0 0 0 0 15 19 87 70 100 77
91 94 7 5 5 5 39 100 100 17 68 3 95 9 100 100 99 100 66 0 0 0 5 5 0 0 0 3 4 0 0 0 0 0 0 0 0 0 0 73 91 87 100 45 96
97 89 100 100 16 5 4 97 79 100 64 48 100 97 73 100 100 88 60 90 5 4 43 6 0 1 0 5 8 0 0 0 0 0 0 0 0 0 0 0 0 96 87 28 4

GFSSW_prec_cloud_018.txt.gz
Cloud_Cover
0 0 0 0 0 0 0 0 0 0 0 0 0 0 0 0 0 0 0 0 0 0 0 0 2 0 5 7 40 78 68 84 23 51 99 100 100 100 100 100 99 41 6 4 5
0 0 0 0 0 0 0 0 0 0 0 0 0 0 3 4 1 0 0 0 0 0 0 0 0 0 0 33 41 98 22 20 8 92 80 98 100 97 50 1 0 1 0 0 0
0 0 0 0 0 0 0 0 0 0 0 0 0 0 0 15 0 0 0 0 0 0 0 0 0 0 0 2 1 4 5 81 28 65 1 11 0 2 2 0 0 0 0 0 0
0 0 0 0 0 0 0 0 0 0 0 0 0 0 0 3 0 0 0 0 0 0 0 0 0 0 0 0 12 1 5 39 100 100 5 1 0 5 0 0 0 0 0 0 0
0 0 0 0 0 0 0 0 0 0 0 0 0 2 1 0 0 0 0 0 0 0 0 0 0 0 0 2 12 5 10 6 98 100 95 13 5 9 68 0 0 0 0 0 0
0 0 0 0 0 0 0 0 0 0 0 0 0 75 11 0 0 0 0 0 0 0 0 0 0 0 0 2 3 0 0 6 46 5 97 90 21 5 24 0 0 0 0 0 0
0 0 0 0 0 0 0 0 0 0 0 0 3 16 0 0 0 0 0 0 0 0 0 0 0 0 0 0 0 0 0 0 0 2 100 12 58 40 35 26 0 0 0 0 0
0 0 0 0 0 0 0 0 0 0 0 0 17 11 0 0 0 0 0 0 0 0 0 0 0 0 0 0 0 0 0 0 3 38 0 5 4 17 95 83 79 0 0 0 0
2 0 0 0 0 0 0 0 0 0 0 44 20 0 0 0 0 0 0 0 0 0 0 0 0 0 0 0 0 0 0 0 0 23 44 39 35 5 12 58 0 0 0 0 0
5 5 5 0 0 0 0 0 0 0 1 1 0 0 0 0 0 0 0 0 0 0 0 0 0 0 0 0 0 0 0 0 0 37 5 16 43 5 60 95 4 1 0 0 0
0 0 0 0 0 0 0 23 0 0 0 0 0 0 0 0 0 0 0 0 0 0 0 0 0 0 0 0 0 0 0 3 0 52 70 10 91 99 5 8 100 0 0 0 0
0 0 0 0 0 0 0 0 0 0 0 0 0 0 0 0 0 0 0 0 0 0 0 0 0 0 0 0 0 0 0 0 2 2 5 70 50 90 19 8 6 1 0 0 0
0 0 0 0 0 0 0 0 0 0 0 0 0 0 0 0 0 0 0 0 0 0 0 0 0 0 0 0 0 0 0 0 0 4 0 10 100 22 79 5 5 0 0 0 0
0 0 0 1 0 0 0 0 0 0 0 1 0 0 0 0 0 0 0 0 0 0 0 0 0 0 0 0 0 0 0 0 5 2 4 90 100 29 6 5 5 1 0 0 0
0 0 0 1 16 0 0 0 0 0 0 4 0 0 0 0 0 0 0 0 0 0 0 0 0 0 0 0 0 0 0 0 39 37 6 12 45 74 93 5 4 4 0 0 0
0 0 0 13 0 0 0 0 0 0 0 11 0 0 0 0 0 0 0 0 0 0 0 0 0 0 0 0 0 0 0 0 0 61 34 2 2 0 1 14 5 5 10 2 0
0 0 0 0 0 0 0 0 0 0 1 2 0 2 4 0 0 0 0 0 0 0 0 0 0 0 0 0 0 0 0 0 0 2 20 0 4 0 1 2 81 87 100 90 5
0 0 0 0 0 0 0 0 0 0 0 0 0 0 1 5 0 0 0 0 0 0 0 0 0 0 0 0 0 0 0 0 0 0 0 0 1 0 0 5 5 5 41 12 4
0 0 0 0 0 0 0 0 0 0 0 0 0 0 0 0 0 0 0 0 0 0 0 0 0 0 0 0 0 0 0 0 0 0 0 0 0 0 0 5 0 5 5 21 71
33 18 0 0 0 0 0 0 0 0 0 0 0 0 0 0 0 0 0 2 0 0 0 0 0 0 0 0 0 0 0 0 0 0 0 0 0 0 0 0 5 3 0 0 4
45 4 0 0 0 0 0 0 0 0 0 0 0 0 0 0 0 0 0 0 0 0 0 1 0 0 0 0 0 0 0 0 0 0 0 0 0 0 0 0 0 0 4 5 0
1 5 0 0 0 0 0 0 0 0 0 0 0 0 0 0 0 0 13 6 5 2 0 5 0 2 0 0 0 0 0 0 0 0 0 0 1 0 0 0 3 3 0 11 5
47 3 0 0 14 4 75 100 81 99 79 1 1 0 0 0 0 0 0 5 2 2 0 2 4 86 90 60 14 30 5 0 0 0 0 0 0 0 0 0 0 0 8 61 86
26 55 0 2 100 92 37 100 100 100 100 90 7 3 2 2 0 0 0 0 0 0 0 0 0 4 100 70 10 5 1 2 14 56 20 2 0 0 0 0 0 4 1 11 77
86 20 5 5 38 100 92 99 100 99 100 45 87 56 5 5 5 4 0 0 1 0 0 0 0 2 12 8 5 5 5 2 14 18 12 27 0 0 0 0 0 5 0 43 95
100 99 88 8 7 5 89 100 41 69 47 49 6 5 5 5 8 33 5 0 0 0 0 0 0 0 5 29 5 5 5 5 31 56 99 4 0 0 0 0 0 2 45 0 5
83 88 100 100 100 10 5 53 97 100 100 100 100 80 5 0 0 3 5 4 3 63 45 8 0 0 0 0 3 0 82 58 37 5 52 5 5 5 0 4 0 0 3 0 0

GFSSW_prec_cloud_021.txt.gz
Cloud_Cover
0 0 0 0 0 0 0 0 0 0 0 0 0 0 6 8 13 0 0 0 0 0 4 11 0 2 35 54 5 44 6 9 5 54 100 91 36 14 46 100 98 99 100 40 0
1 0 0 0 0 0 0 0 0 0 0 0 0 0 1 10 15 0 0 0 0 0 0 1 0 0 90 5 5 5 9 69 40 12 3 43 100 100 82 75 99 100 100 14 0
0 0 0 0 0 0 0 0 0 0 0 0 0 0 2 23 0 0 0 0 0 0 0 0 0 0 0 1 2 5 5 11 42 77 100 97 6 30 40 5 7 0 0 0 0
0 0 0 0 0 0 2 0 0 0 0 0 0 0 0 28 0 0 0 0 0 0 0 0 0 0 0 1 14 81 8 9 70 100 77 5 1 0 12 1 0 0 0 0 0
0 0 0 0 0 0 0 0 0 0 0 0 0 0 2 0 0 0 0 0 0 0 0 0 0 0 0 0 3 7 80 9 98 100 39 5 1 2 2 6 0 0 0 0 0
0 0 0 0 0 0 0 0 0 0 0 0 0 1 11 0 0 0 0 0 0 0 0 0 0 0 0 0 5 5 5 4 16 93 38 73 34 5 4 5 7 0 0 0 0
0 0 0 0 0 0 0 0 0 0 0 13 18 17 0 0 0 0 0 0 0 0 0 0 0 0 0 0 4 0 0 0 1 7 7 6 1 3 5 74 95 5 0 0 0
0 0 0 0 0 0 0 0 0 0 0 4 17 11 0 0 0 0 0 0 0 0 0 0 0 0 0 0 0 0 0 0 0 1 0 3 0 0 2 51 7 18 5 0 0
0 0 0 0 0 0 0 0 0 0 0 4 21 9 0 0 0 0 0 0 0 0 0 0 0 0 0 0 0 0 0 0 0 0 0 0 0 0 5 62 74 64 0 0 0
4 3 0 0 0 0 0 0 0 26 41 5 0 1 0 0 0 0 0 0 0 0 0 0 0 0 0 0 0 0 0 0 1 0 0 0 0 0 5 46 100 3 0 0 0
2 0 0 0 0 0 0 0 0 0 0 0 0 0 0 0 0 0 0 0 0 0 0 0 0 0 0 0 0 0 0 0 5 4 0 4 0 2 5 100 43 92 4 0 0
5 0 0 0 0 0 0 0 0 0 0 0 0 0 0 0 0 0 0 0 0 0 0 0 0 0 0 0 0 0 0 0 44 5 0 1 4 5 5 39 100 5 5 0 0
0 0 0 0 0 0 0 0 0 0 0 0 0 0 0 0 0 0 0 0 0 0 0 0 0 0 0 0 0 0 0 0 3 2 5 0 4 1 1 8 97 2 4 0 0
0 0 0 4 0 0 0 0 0 0 0 0 0 0 0 0 0 0 0 0 0 0 0 0 0 0 0 0 0 0 0 0 3 12 94 9 0 5 1 7 3 98 0 0 0
0 0 0 0 7 3 0 0 0 0 0 0 0 0 0 0 0 0 0 0 0 0 0 0 0 0 0 0 0 0 0 0 2 5 70 2 0 0 0 1 4 98 0 2 0
0 0 0 17 7 0 0 0 0 0 0 2 0 0 0 0 0 0 0 0 0 0 0 0 0 0 0 0 0 0 0 0 0 2 4 0 0 0 0 0 4 0 1 16 1
0 0 0 0 2 0 0 0 0 0 0 0 0 0 0 0 0 0 0 0 0 0 0 0 0 0 0 0 0 0 0 0 0 0 4 0 0 0 0 0 0 2 8 5 5
0 0 0 0 0 0 0 0 0 0 0 0 0 0 0 0 0 0 0 0 0 0 0 0 0 0 0 0 0 0 0 0 0 0 0 0 0 0 0 0 0 2 5 5 97
0 0 0 0 0 0 0 0 0 0 0 0 0 0 0 0 0 0 0 0 0 0 0 0 0 0 0 0 0 0 0 0 0 0 0 0 4 0 0 0 16 3 11 99 96
32 83 2 0 0 0 0 0 0 0 0 0 0 0 0 0 0 0 0 0 0 0 0 0 0 0 0 0 0 0 0 0 0 0 0 0 0 0 0 0 49 5 1 22 4
0 3 0 0 0 0 0 0 0 0 0 0 0 0 0 0 0 0 0 0 0 0 0 0 0 0 0 0 0 0 0 0 0 0 0 0 0 0 0 0 0 4 0 0 1
2 3 0 0 0 2 97 69 4 0 0 0 0 0 0 0 0 0 0 0 0 0 0 0 5 4 0 0 0 0 0 0 0 0 0 0 0 0 0 0 0 0 4 0 0
28 36 0 0 6 25 84 100 100 98 4 2 1 0 0 0 0 0 0 0 0 0 0 2 34 8 0 0 1 1 3 5 5 0 0 0 0 0 0 0 0 0 0 0 0
10 63 1 38 18 5 12 92 100 100 57 8 28 13 4 2 2 0 0 0 0 0 0 0 5 7 5 0 2 1 5 0 4 0 9 1 0 0 0 0 0 0 0 0 0
11 28 64 53 21 8 15 9 91 100 100 94 91 97 6 5 5 5 4 0 0 0 0 0 0 0 1 3 37 99 45 5 5 32 4 100 1 0 0 0 0 0 0 0 0
99 100 80 100 100 100 86 5 100 100 56 58 100 96 6 5 4 5 4 5 0 0 0 0 0 0 0 4 1 5 6 89 32 100 9 97 13 100 2 0 0 0 0 0 0
81 90 100 61 100 92 100 40 5 99 100 100 100 79 98 33 5 0 3 5 5 5 1 0 0 0 0 0 0 0 99 100 100 86 100 100 91 99 15 0 0 1 0 0 0

GFSSW_prec_cloud_024.txt.gz
Cloud_Cover
0 0 0 0 5 8 8 0 2 0 0 0 0 0 13 5 8 0 0 0 0 0 0 0 0 1 5 66 21 38 10 8 2 4 5 10 99 96 96 99 76 83 80 94 78
0 0 0 0 0 0 0 1 1 0 0 0 0 0 0 37 36 0 0 0 0 0 0 0 11 10 31 100 6 84 97 26 58 0 2 5 5 43 57 64 67 48 42 10 5
0 0 0 0 0 0 0 0 0 0 0 0 0 2 0 43 10 0 0 0 0 0 0 0 0 11 52 13 4 5 100 100 100 24 1 4 5 5 1 1 2 5 1 0 0
0 0 0 0 0 0 0 0 0 0 0 4 0 0 0 51 0 0 0 0 0 0 0 0 0 20 0 0 0 5 5 5 2 5 3 0 5 5 50 5 1 0 0 0 0
0 0 0 0 0 0 0 0 0 0 0 1 15 16 2 0 0 0 0 0 0 0 0 0 0 0 0 0 3 5 5 12 5 5 5 2 0 3 5 53 36 4 1 0 0
0 0 0 0 0 0 0 0 0 1 0 3 34 11 18 0 0 0 0 0 0 0 0 0 0 0 0 0 0 5 5 8 16 81 57 0 0 0 4 5 34 22 5 0 0
0 0 2 0 0 0 0 0 0 25 14 24 80 32 0 0 0 0 0 0 0 0 0 0 0 0 0 0 0 5 5 5 39 52 98 5 0 0 5 5 94 63 7 0 0
0 0 0 0 0 0 0 0 0 5 5 46 100 20 0 0 0 0 0 0 0 0 0 0 0 0 0 0 0 0 2 6 5 13 2 0 3 5 5 5 79 80 8 0 0
0 0 0 0 0 0 0 0 15 21 13 16 25 23 0 0 0 0 0 0 0 0 0 0 0 0 0 0 0 0 0 1 0 0 0 2 1 5 5 5 9 85 0 0 0
0 0 0 0 0 0 0 0 14 52 40 29 5 16 0 0 0 0 0 0 0 0 0 0 0 0 0 0 0 0 0 0 0 0 0 0 0 0 5 22 5 87 8 0 0
0 3 1 5 1 0 0 0 0 0 0 0 0 0 0 0 0 0 0 0 0 0 0 0 0 0 0 0 0 0 0 0 0 0 0 0 0 3 5 32 5 31 100 2 0
0 1 0 0 5 0 0 0 0 0 0 0 0 0 0 0 0 0 0 0 0 0 0 0 0 0 0 0 0 0 0 0 0 0 0 0 1 0 4 52 23 99 99 76 0
0 0 0 0 0 0 0 0 0 0 0 0 0 0 0 0 0 0 0 0 0 0 0 0 0 0 0 0 0 0 0 0 0 0 2 0 0 4 7 5 4 5 84 54 1
0 0 0 0 0 0 0 0 0 0 0 0 0 0 0 0 0 0 0 0 0 0 0 0 0 0 0 0 0 0 0 0 0 2 2 3 0 0 2 5 63 5 5 4 0
0 0 0 0 1 1 0 0 0 0 0 0 0 0 0 0 0 0 0 0 0 0 0 0 0 0 0 0 0 0 0 0 0 0 0 1 0 0 0 5 3 5 5 0 0
0 0 1 10 9 5 0 0 0 0 0 0 0 0 0 0 0 0 0 0 0 0 0 0 0 0 0 0 0 0 0 0 0 0 3 0 0 0 0 5 84 5 2 3 0
0 0 3 0 0 0 0 0 0 0 0 0 0 0 0 0 0 0 0 0 0 0 0 0 0 0 0 0 0 0 0 0 0 0 15 0 0 0 0 5 65 3 4 5 1
0 0 0 0 0 0 0 0 0 0 0 0 0 0 0 0 0 0 0 0 0 0 0 0 0 0 0 0 0 0 0 0 0 0 0 0 74 0 0 43 80 2 16 48 5
0 2 0 0 0 0 0 0 0 0 0 0 0 0 0 0 0 0 0 0 0 0 0 0 0 0 0 0 0 0 0 0 0 0 0 0 0 5 1 3 85 37 60 5 5
36 66 1 0 0 0 0 0 0 0 0 0 0 0 0 0 0 0 0 0 0 0 0 0 0 0 0 0 0 0 0 0 0 0 0 0 0 0 0 0 0 25 3 4 6
0 0 0 0 0 0 0 1 0 0 0 0 0 0 0 0 0 0 0 0 0 0 0 0 0 0 0 0 0 0 0 0 0 0 0 0 0 0 0 0 0 0 5 31 5
26 2 0 0 3 5 5 5 5 5 0 0 0 0 0 0 0 0 0 0 0 0 0 0 0 0 0 0 0 0 0 0 0 0 0 0 0 0 0 0 0 0 0 25 89
53 77 0 1 10 7 11 89 69 68 8 4 5 2 0 0 0 0 0 0 0 0 0 0 0 0 0 0 0 0 0 0 0 0 0 0 3 0 0 0 0 0 5 3 2
8 34 1 22 5 46 84 3 5 82 99 92 51 15 5 4 2 0 0 0 0 0 0 0 0 0 0 0 0 0 0 1 3 0 1 0 50 0 0 0 0 0 0 3 3
5 9 89 13 17 100 100 5 7 38 72 100 100 95 12 5 5 5 0 0 0 0 0 0 0 0 0 0 0 0 0 3 83 89 0 38 4 0 0 0 0 0 0 0 1
72 100 98 100 94 86 13 21 5 5 18 6 100 100 100 37 5 5 3 1 1 0 0 0 0 0 0 0 0 0 5 5 9 99 80 46 1 0 0 0 0 0 0 0 0
100 100 100 100 83 75 64 17 53 59 3 68 96 100 100 94 98 6 5 2 2 6 4 0 0 0 0 0 0 0 30 72 51 5 90 93 5 0 0 0 0 1 0 0 0

GFSSW_prec_cloud_027.txt.gz
Cloud_Cover
1 0 0 0 0 0 0 0 0 0 0 0 0 0 14 0 6 0 0 0 0 0 0 0 0 0 0 27 10 5 6 4 5 5 4 2 0 0 1 0 0 2 3 5 39
0 0 0 0 0 0 0 1 0 0 0 0 0 11 10 16 0 0 0 0 0 0 0 0 0 0 0 17 7 13 5 3 0 5 5 5 0 0 0 0 0 0 0 4 66
0 0 0 0 0 0 0 0 0 0 0 0 10 20 4 32 0 0 0 0 0 0 0 0 0 0 0 63 26 5 5 2 0 2 5 4 4 0 0 0 0 0 0 0 11
0 0 0 0 0 0 0 0 0 0 3 6 17 24 0 19 0 0 0 0 0 0 0 0 0 0 0 4 5 5 5 7 5 2 3 5 4 5 5 4 5 0 0 0 0
0 0 0 0 0 0 0 0 0 0 7 24 15 63 0 0 0 0 0 0 0 0 0 0 0 0 0 0 4 5 14 5 1 0 0 5 4 5 5 60 6 3 0 0 0
0 0 0 0 0 0 0 0 0 0 0 24 95 92 3 0 0 0 0 0 0 0 0 0 0 0 0 0 0 4 4 5 3 0 2 3 0 0 4 5 34 5 4 0 0
0 0 0 0 0 0 0 0 0 0 1 31 100 44 0 0 0 0 0 0 0 0 0 0 0 0 0 0 0 5 0 1 3 3 4 0 0 5 5 5 6 78 52 1 0
0 0 0 0 0 0 0 0 10 7 17 100 100 10 0 0 0 0 0 0 0 0 0 0 0 0 0 0 0 4 4 0 8 17 9 2 0 5 5 5 5 66 68 1 0
0 0 0 0 0 0 0 0 96 7 67 94 38 10 0 0 0 0 0 0 0 0 0 0 0 0 0 0 0 0 0 0 2 40 20 3 0 5 5 5 5 82 48 0 0
0 0 0 0 0 0 0 0 97 51 69 66 0 6 0 0 0 0 0 0 0 0 0 0 0 0 0 0 0 0 0 0 0 1 2 0 0 5 6 5 5 5 85 3 0
3 1 0 0 0 0 0 0 0 0 0 0 0 0 0 0 0 0 0 0 0 0 0 0 0 0 0 0 0 0 0 0 5 0 0 2 1 5 10 5 5 81 22 83 4
2 0 0 0 0 0 0 0 0 0 0 0 0 0 0 0 0 0 0 0 0 0 0 0 0 0 0 0 0 0 0 0 1 0 0 0 0 0 5 4 4 20 52 91 9
0 0 0 0 0 0 0 0 0 0 0 0 0 0 0 0 0 0 0 0 0 0 0 0 0 0 0 0 0 0 0 0 0 0 0 0 0 0 14 60 5 70 1 46 76
0 0 0 0 0 0 0 0 0 0 0 0 0 0 0 0 0 0 0 0 0 0 0 0 0 0 0 0 0 0 0 0 0 0 0 0 0 0 4 5 1 26 0 1 0
0 0 0 0 0 0 0 0 0 0 0 0 0 0 0 0 0 0 0 0 0 0 0 0 0 0 0 0 0 0 0 0 0 0 0 0 0 0 0 2 5 5 2 0 0
0 0 0 0 0 0 0 0 0 0 0 0 0 0 0 0 0 0 0 0 0 0 0 0 0 0 0 0 0 0 0 0 0 0 0 3 0 0 0 6 59 5 27 0 0
0 0 0 0 0 0 0 0 0 0 0 0 0 0 0 0 0 0 0 0 0 0 0 0 0 0 0 0 0 0 0 0 0 0 0 0 0 0 0 3 5 2 49 1 0
0 0 0 0 0 0 0 0 0 0 0 0 0 0 0 0 0 0 0 0 0 0 0 0 0 0 0 0 0 0 0 0 0 0 0 0 0 0 0 5 5 5 24 4 0
0 0 0 0 0 0 0 0 0 3 0 0 0 0 0 0 0 0 0 0 0 0 0 0 0 0 0 0 0 0 0 0 0 0 0 0 0 0 0 0 5 3 4 0 0
0 0 0 0 0 0 0 0 0 0 0 0 0 0 0 0 0 0 0 0 0 0 0 0 0 0 0 0 0 0 0 0 0 0 0 0 0 0 0 0 9 5 0 1 0
0 0 0 0 0 0 0 0 0 3 0 0 0 0 0 0 0 0 0 0 0 0 0 0 0 0 0 0 0 0 0 0 0 0 0 0 0 0 0 0 3 2 5 12 6
0 0 0 0 0 0 3 5 0 0 4 0 2 0 0 0 0 0 0 0 0 0 0 0 0 0 0 0 0 0 0 0 0 0 0 0 0 0 0 0 0 0 5 7 5
95 22 0 2 15 34 11 3 2 16 10 58 5 4 5 0 0 0 0 0 0 0 0 0 0 0 0 0 0 0 0 0 0 0 0 0 0 0 0 0 0 0 0 3 8
3 3 2 1 5 90 98 5 9 5 90 70 100 33 5 5 2 1 0 0 0 0 0 0 0 0 0 0 0 0 0 0 0 0 0 2 2 0 0 0 0 0 0 0 5
5 5 25 5 52 21 54 14 5 58 10 96 100 100 100 24 5 3 4 2 0 0 0 0 0 0 0 0 0 0 0 0 0 17 0 94 0 0 0 0 0 0 0 0 0
7 54 84 93 36 21 30 20 35 75 60 35 87 100 100 100 66 59 5 4 4 0 0 0 0 0 0 0 0 0 0 0 0 5 3 100 20 0 0 0 0 0 0 0 0
60 90 100 100 75 87 96 98 86 100 37 75 68 99 100 100 97 95 21 5 3 5 2 0 0 0 0 0 0 0 0 0 0 5 5 97 94 0 0 0 0 0 0 0 0

GFSSW_prec_cloud_030.txt.gz
Cloud_Cover
0 0 0 0 0 0 0 1 0 0 0 0 4 13 10 0 0 0 0 0 0 0 0 0 0 0 5 5 12 76 10 72 74 97 70 37 29 0 0 0 0 0 0 2 52
0 0 0 0 0 0 1 1 0 0 0 10 6 7 26 0 0 0 0 0 0 0 0 0 0 0 5 5 68 82 74 48 3 4 3 0 0 0 0 0 0 0 0 0 39
0 0 0 0 0 0 0 0 0 0 2 15 6 0 0 0 0 0 0 0 0 0 0 0 0 0 1 5 5 6 86 5 5 1 0 0 0 0 0 0 0 0 0 0 18
0 0 0 0 0 0 0 0 0 0 13 14 37 3 0 0 0 0 0 0 0 0 0 0 0 0 0 5 5 5 3 4 2 2 0 0 0 0 0 0 0 0 0 0 0
0 0 0 0 0 0 0 0 0 0 4 10 6 2 0 0 0 0 0 0 0 0 0 0 0 0 0 0 5 5 5 5 4 2 4 0 4 5 5 5 2 0 0 0 0
0 0 0 0 0 0 0 0 0 0 30 39 26 50 0 0 0 0 0 0 0 0 0 0 0 0 0 0 5 5 5 5 4 0 1 0 0 0 5 5 5 4 0 0 0
0 0 0 0 0 0 0 0 0 0 56 100 99 2 0 0 0 0 0 0 0 0 0 0 0 0 0 0 0 5 5 4 5 5 5 0 1 5 5 5 5 5 3 0 0
0 0 0 0 0 0 0 0 0 6 1 100 99 0 0 0 0 0 0 0 0 0 0 0 0 0 0 0 0 0 0 0 5 1 5 0 37 6 5 5 5 5 4 0 0
0 0 0 0 0 0 0 0 90 12 99 79 11 0 0 0 0 0 0 0 0 0 0 0 0 0 0 0 0 0 0 0 5 2 5 3 12 5 5 5 6 5 5 0 0
0 0 0 0 0 0 0 0 65 8 1 0 0 0 0 0 0 0 0 0 0 0 0 0 0 0 0 0 0 0 0 2 3 5 6 40 5 5 5 5 5 5 5 2 0
0 0 0 0 0 0 0 0 0 0 0 0 0 0 0 0 0 0 0 0 0 0 0 0 0 0 0 0 0 0 0 0 0 5 27 85 5 5 20 5 5 0 5 5 0
0 0 0 0 0 0 0 0 0 0 0 0 0 0 0 0 0 0 0 0 0 0 0 0 0 0 0 0 0 0 0 0 0 5 5 25 6 5 5 5 5 5 5 5 7
0 0 0 0 0 0 0 0 0 0 0 0 0 0 0 0 0 0 0 0 0 0 0 0 0 0 0 0 0 0 0 0 0 2 0 0 0 5 7 5 5 0 0 3 1
0 0 0 0 0 0 0 0 0 0 0 0 0 0 0 0 0 0 0 0 0 0 0 0 0 0 0 0 0 0 0 0 0 0 1 0 0 5 26 5 0 0 5 1 5
0 0 0 0 0 0 0 0 0 0 0 0 0 0 0 0 0 0 0 0 0 0 0 0 0 0 0 0 0 0 0 0 0 0 0 0 0 0 0 0 0 4 5 1 0
0 0 2 0 0 0 0 0 0 0 0 0 0 0 0 0 0 0 0 0 0 0 0 0 0 0 0 0 0 0 0 0 0 0 0 0 0 0 0 0 0 5 5 0 0
0 0 0 0 0 0 0 0 0 0 0 0 0 0 0 0 0 0 0 0 0 0 0 0 0 0 0 0 0 0 0 0 0 0 0 0 0 0 0 0 1 5 5 4 5
0 15 0 0 0 0 0 0 0 0 0 0 0 0 0 0 0 0 0 0 0 0 0 0 0 0 0 0 0 0 0 0 0 0 0 0 0 0 0 0 5 5 5 1 2
0 0 0 0 0 0 0 0 0 18 38 0 0 0 0 0 0 0 0 0 0 0 0 0 0 0 0 0 0 0 0 0 0 0 0 0 0 0 0 0 5 5 0 0 0
0 0 0 0 0 0 0 0 24 74 38 0 1 2 0 0 0 0 0 0 0 0 0 0 0 0 0 0 0 0 0 0 0 0 0 0 0 0 0 0 3 2 0 0 0
0 0 0 0 0 0 0 1 0 5 8 4 86 83 76 66 0 0 0 0 0 0 0 0 0 0 0 0 0 0 0 0 0 0 0 0 0 0 0 0 0 0 0 0 0
0 0 0 0 3 0 3 2 0 5 95 65 62 97 97 100 54 35 30 0 0 0 0 0 0 0 0 0 0 0 0 0 0 0 0 0 0 0 0 0 0 0 0 0 0
5 3 3 0 2 5 5 8 5 71 100 94 80 86 97 100 98 95 100 2 0 0 0 0 0 0 0 0 0 0 0 0 3 5 0 0 0 0 0 0 0 0 0 0 0
7 19 50 27 31 95 85 100 67 100 88 91 36 40 71 80 100 100 100 2 0 0 0 0 0 0 0 0 0 0 0 0 3 0 3 0 0 0 0 0 0 0 0 0 0
83 90 51 93 74 99 100 99 100 99 95 100 84 100 100 50 100 100 100 52 0 0 0 0 0 0 0 0 0 0 0 0 0 32 9 52 0 0 0 0 0 0 0 0 0
76 83 88 39 87 100 97 100 100 91 97 75 96 100 100 96 98 100 91 100 97 4 0 0 0 0 0 0 0 0 0 0 0 38 19 99 4 0 0 0 0 0 0 0 0
99 96 91 56 60 97 100 100 93 87 73 69 100 100 100 100 83 100 77 100 78 6 0 0 0 0 0 0 0 0 0 0 0 5 24 100 13 0 0 0 0 0 0 0 0

GFSSW_prec_cloud_033.txt.gz
Cloud_Cover
0 0 0 0 0 0 0 0 0 2 6 8 22 7 0 0 0 0 0 0 0 0 0 0 0 0 0 5 3 0 81 100 82 84 82 50 49 15 5 3 3 2 0 12 47
0 0 0 0 0 0 0 0 0 0 1 15 20 14 0 0 0 0 0 0 0 0 0 0 0 0 0 2 5 3 100 82 93 57 92 66 86 50 1 0 0 6 6 18 52
0 0 0 0 0 0 0 0 0 1 1 5 20 17 0 0 0 0 0 0 0 0 0 0 0 0 1 5 5 30 100 100 42 4 87 65 89 5 25 5 0 0 0 5 20
0 0 0 0 0 0 0 0 0 0 0 5 0 0 0 0 0 0 0 0 0 0 0 0 0 0 0 5 5 5 100 99 84 2 5 56 82 97 77 12 0 0 5 0 7
0 0 0 0 0 0 0 0 0 0 0 2 17 0 0 0 0 0 0 0 0 0 0 0 0 0 0 5 9 4 80 88 30 2 5 22 88 100 80 3 0 0 0 0 1
0 0 0 0 0 0 0 0 0 0 0 36 99 5 0 0 0 0 0 0 0 0 0 0 0 0 0 2 14 22 5 54 5 5 4 3 60 38 57 1 0 0 0 0 0
0 0 0 0 0 0 0 0 0 0 23 56 98 0 0 0 0 0 0 0 0 0 0 0 0 0 0 0 6 78 10 5 5 0 2 0 5 5 61 3 2 0 0 0 0
0 0 0 0 0 0 0 0 0 0 0 39 45 0 0 0 0 0 0 0 0 0 0 0 0 0 0 0 0 4 6 4 3 5 3 0 57 6 34 5 4 5 0 0 0
0 0 0 0 0 0 0 0 0 0 3 8 1 0 0 0 0 0 0 0 0 0 0 0 0 0 0 0 0 0 3 1 35 5 3 0 55 100 7 5 5 5 3 0 0
0 0 0 0 0 0 0 0 0 8 4 0 0 0 0 0 0 0 0 0 0 0 0 0 0 0 0 0 0 0 0 5 16 90 5 5 17 99 83 85 5 0 0 2 0
0 0 0 0 0 0 0 0 0 0 0 0 0 0 0 0 0 0 0 0 0 0 0 0 0 0 0 0 0 0 0 3 25 94 63 5 86 6 94 25 37 3 0 0 0
0 0 0 0 0 1 6 0 0 0 0 0 0 0 0 0 0 0 0 0 0 0 0 0 0 0 0 0 0 0 0 3 5 72 89 100 99 99 100 94 16 5 0 0 0
0 0 0 0 2 0 0 0 0 0 0 0 0 0 0 0 0 0 0 0 0 0 0 0 0 0 0 0 0 0 0 0 3 5 12 81 96 100 100 99 7 6 0 0 0
0 0 0 0 0 0 0 0 0 0 0 0 0 0 0 0 0 0 0 0 0 0 0 0 0 0 0 0 0 0 0 0 0 5 5 5 72 5 14 53 36 5 0 0 0
0 0 0 0 0 0 0 0 0 0 0 0 0 0 0 0 0 0 0 0 0 0 0 0 0 0 0 0 0 0 0 0 0 0 5 10 62 76 76 5 14 5 3 0 0
0 0 1 0 0 0 0 0 0 0 0 0 0 0 0 0 0 0 0 0 0 0 0 0 0 0 0 0 0 0 0 0 0 0 0 0 0 0 23 42 100 6 4 0 0
0 0 1 0 0 0 0 0 0 0 0 0 0 0 0 0 0 0 0 0 0 0 0 2 0 0 0 0 0 0 0 0 0 0 0 0 0 0 4 5 5 5 14 5 0
0 1 0 0 0 0 0 0 0 0 4 0 0 0 0 0 0 0 0 0 0 0 0 0 0 0 0 0 0 0 0 0 0 0 0 0 0 0 0 4 5 5 5 5 0
0 0 0 0 0 0 0 0 45 30 72 11 0 0 0 0 0 0 0 0 0 0 0 0 0 0 0 0 0 0 0 0 0 0 0 0 0 0 0 0 0 1 1 5 5
0 0 0 0 0 0 0 83 71 90 60 3 2 60 34 54 9 0 0 0 0 0 0 0 1 0 0 0 0 0 0 0 0 0 0 0 0 0 0 0 0 0 0 0 3
0 1 5 0 0 7 38 99 24 1 1 3 1 38 100 100 100 58 22 7 0 0 0 0 0 0 0 0 0 0 0 0 0 0 0 0 0 0 0 0 0 0 0 0 0
5 91 5 0 19 92 99 11 10 63 69 97 76 10 99 100 98 100 100 93 0 0 0 0 0 0 0 0 0 0 0 0 0 0 0 0 0 0 0 0 0 0 0 0 0
89 64 13 7 17 63 100 91 100 100 100 100 100 100 84 100 100 100 100 63 1 0 0 0 0 0 4 0 0 0 0 0 0 0 0 0 0 0 0 0 0 0 0 0 0
100 99 48 100 100 100 99 100 100 100 100 100 93 86 8 81 100 100 100 100 44 0 0 0 0 0 0 1 0 0 0 0 0 0 0 1 0 0 0 0 0 0 0 0 0
100 100 98 100 100 91 100 100 97 100 100 100 93 54 87 44 98 100 100 100 80 22 0 0 0 0 1 100 9 0 0 0 0 0 2 5 0 0 0 0 0 0 0 0 0
100 100 100 100 100 100 100 100 100 100 100 100 100 100 100 100 97 100 100 100 100 91 3 0 0 0 0 79 5 0 0 0 0 0 2 12 5 0 0 0 0 0 0 0 0
100 100 100 100 100 100 100 100 100 100 87 100 90 100 100 100 100 100 100 99 99 99 77 42 1 47 39 19 47 0 0 0 0 2 5 44 5 2 0 0 0 0 0 0 0

GFSSW_prec_cloud_036.txt.gz
Cloud_Cover
0 0 0 0 0 0 0 0 0 0 2 0 12 5 3 0 0 0 0 0 0 0 0 0 0 0 0 3 14 25 99 99 100 78 100 26 55 3 79 0 76 30 4 1 100
0 0 0 0 0 0 0 0 0 0 0 10 14 4 2 5 0 0 0 0 0 0 0 0 0 0 0 0 18 100 100 100 89 100 100 99 36 42 91 98 26 3 66 42 100
0 0 0 0 0 0 0 0 0 1 0 0 0 0 0 0 0 0 0 0 0 0 0 0 0 0 0 0 4 100 7 94 47 98 100 100 8 63 23 17 23 37 23 78 100
0 0 0 0 0 0 0 0 0 0 0 0 1 1 0 0 0 0 0 0 0 0 0 0 0 0 0 0 0 98 67 61 97 40 66 100 89 19 98 83 1 0 1 8 94
0 0 0 0 0 0 0 0 0 0 0 21 19 28 1 0 0 0 0 0 0 0 0 0 0 0 0 0 9 62 48 81 100 95 19 81 98 100 56 70 0 13 14 44 38
0 0 0 0 0 0 0 0 0 0 13 92 71 70 0 0 0 0 0 0 0 0 0 0 0 0 0 0 27 82 89 100 100 99 18 13 40 75 88 39 55 10 0 8 28
0 0 0 0 0 0 0 0 0 0 14 28 99 16 0 0 0 0 0 0 0 0 0 0 0 0 0 0 4 83 100 7 98 16 73 57 80 77 100 13 0 0 0 0 0
0 0 0 0 0 0 0 0 0 0 0 0 100 0 0 0 0 0 0 0 0 0 0 0 0 0 0 0 37 25 95 55 50 70 5 2 4 14 4 18 0 0 0 0 0
0 0 0 0 0 0 0 0 0 0 0 15 15 0 0 0 0 0 0 0 0 0 0 0 0 0 0 0 2 5 4 2 88 6 15 0 26 53 65 97 0 0 0 0 0
0 0 0 0 0 0 0 0 0 30 2 0 0 0 0 0 0 0 0 0 0 0 0 0 0 0 0 0 0 5 1 5 34 37 5 9 17 64 3 12 45 0 0 0 0
0 0 0 0 0 0 0 0 0 0 0 0 0 0 0 0 0 0 0 0 0 0 0 0 0 0 0 0 1 4 1 0 36 24 60 2 5 7 4 82 100 0 0 0 0
0 0 0 0 0 0 0 0 0 0 0 0 0 0 0 0 0 0 0 0 0 0 0 0 0 0 0 0 0 0 2 3 3 98 68 92 2 98 12 1 82 99 0 0 0
0 0 0 0 0 0 0 0 0 0 0 0 0 0 0 0 0 0 0 0 0 0 0 0 0 0 0 0 0 0 0 0 5 84 100 100 66 68 54 62 22 32 74 0 0
0 0 0 0 0 0 0 0 0 0 0 0 0 0 0 0 0 0 0 0 0 0 0 0 0 0 0 0 0 0 0 0 5 51 92 98 96 16 98 32 73 5 75 0 0
0 0 0 0 0 0 0 0 0 0 0 0 0 0 0 0 0 0 0 0 0 0 0 0 0 0 0 0 0 0 0 0 0 82 72 81 74 78 33 4 49 85 6 28 15
0 0 0 0 0 0 0 0 0 0 0 0 0 0 0 0 0 0 0 0 0 0 0 0 0 0 0 0 0 0 0 0 0 1 0 1 86 19 25 11 8 5 29 7 26
0 0 0 0 0 0 0 0 0 0 0 8 0 0 0 0 0 0 0 0 0 0 0 0 0 0 0 0 0 0 0 0 0 0 0 0 1 0 8 100 47 75 7 93 1
0 0 0 0 0 0 0 0 0 0 61 0 0 0 0 0 0 0 0 0 0 0 0 0 0 0 0 0 0 0 0 0 0 0 0 0 0 0 0 4 100 100 85 29 5
0 0 0 0 0 0 0 0 4 0 0 0 4 100 91 98 0 7 0 0 0 0 0 0 0 0 0 0 0 0 0 0 0 0 0 0 0 0 0 0 3 96 94 54 5
0 0 6 0 0 1 5 0 33 5 0 0 3 100 100 98 4 5 28 1 5 0 0 0 0 0 0 0 0 0 0 0 0 0 0 0 0 0 0 0 0 0 27 77 5
12 3 12 6 44 24 60 61 2 34 12 0 2 87 100 100 78 98 88 99 98 94 25 0 0 0 2 0 0 0 0 0 0 0 0 4 5 0 0 0 0 0 0 5 6
100 99 31 97 100 100 100 10 22 8 13 99 81 51 100 100 100 100 100 100 6 40 44 2 0 0 27 0 0 0 0 0 0 0 0 6 76 0 0 0 0 0 0 2 11
3 5 97 14 95 100 100 100 76 4 94 28 94 79 100 100 100 100 100 100 38 5 100 83 0 0 13 74 27 0 0 0 0 0 0 0 0 0 4 0 0 0 0 0 2
45 79 33 60 100 100 100 70 32 13 98 100 53 100 96 100 100 100 100 100 99 63 7 8 0 2 1 0 11 0 0 0 0 0 0 0 0 0 0 0 0 0 0 0 0
89 100 100 100 98 99 95 100 57 76 100 100 72 19 42 100 100 100 100 100 100 79 4 4 0 15 16 35 100 0 0 0 0 0 0 0 1 0 0 0 0 0 0 0 0
100 100 100 100 100 100 100 100 100 100 100 46 19 86 100 100 100 100 100 100 100 88 64 18 3 4 5 28 92 82 11 0 0 0 0 0 50 0 0 0 0 0 0 0 0
96 100 100 100 100 100 100 95 100 100 90 45 91 60 10 99 100 100 100 100 100 100 100 87 82 5 0 5 26 98 63 78 2 0 1 0 56 35 25 0 0 0 0 0 0

GFSSW_prec_cloud_039.txt.gz
Cloud_Cover
0 0 0 0 0 0 0 0 0 0 0 0 0 5 13 1 0 0 0 0 0 0 0 0 0 3 5 91 8 100 100 100 100 100 100 100 100 100 26 0 0 5 4 0 0
0 0 0 0 0 0 0 0 0 0 0 0 0 0 12 2 1 0 0 0 0 0 0 0 0 0 5 4 17 100 100 100 100 100 100 100 68 2 65 64 25 76 0 2 0
0 0 0 0 0 0 0 0 0 0 0 0 5 3 4 0 0 0 0 0 0 0 0 0 0 0 0 0 0 55 94 100 100 100 96 85 96 26 32 28 5 5 1 3 22
0 0 0 0 0 0 0 0 0 0 0 0 64 37 2 0 0 0 0 0 0 0 0 0 0 0 0 0 5 92 67 50 98 95 93 73 100 100 4 0 0 4 0 0 0
0 0 0 0 0 0 0 0 0 0 0 36 100 46 14 0 0 0 0 0 0 0 0 0 0 0 0 0 4 99 86 100 90 98 30 47 55 100 13 8 1 0 0 13 50
0 0 0 0 0 0 0 0 0 0 0 71 100 98 11 0 0 0 0 0 0 0 0 0 0 0 0 0 0 3 16 100 100 98 98 33 7 100 8 5 4 0 0 9 83
0 0 0 0 0 0 0 0 0 0 0 32 100 55 0 0 0 0 0 0 0 0 0 0 0 0 0 0 0 2 100 100 98 100 51 99 4 72 1 67 97 0 0 0 1
0 0 0 0 0 0 0 0 0 0 0 35 100 49 1 0 0 0 0 0 0 0 0 0 0 0 0 0 0 5 100 86 33 99 87 50 5 5 3 30 17 0 0 0 0
0 0 0 0 0 0 0 0 0 0 0 5 23 0 0 0 0 0 0 0 0 0 0 0 0 0 0 0 0 5 9 42 42 82 86 66 13 5 95 27 77 99 0 0 0
0 0 0 0 0 0 0 0 0 0 7 0 0 0 0 0 0 0 0 0 0 0 0 0 0 0 0 0 0 0 5 5 5 45 7 26 8 61 51 2 100 99 8 2 0
0 0 0 0 0 0 0 0 0 0 0 0 0 0 0 0 0 0 0 0 0 0 0 0 0 0 0 0 0 0 4 4 0 48 74 4 4 89 26 33 11 100 100 23 0
0 0 0 0 0 0 0 0 0 0 0 0 0 0 0 0 0 0 0 0 0 0 0 0 0 0 0 0 0 0 0 1 0 6 99 5 11 88 9 2 96 100 100 100 98
0 0 0 0 0 0 0 0 0 0 0 0 0 0 0 0 0 0 0 0 0 0 0 0 0 0 0 0 0 0 0 0 0 3 98 89 84 100 96 100 80 100 100 100 100
0 0 0 0 0 0 0 0 0 0 0 0 0 0 0 0 0 0 0 0 0 0 0 0 0 0 0 0 0 0 0 0 0 7 52 77 74 11 100 84 39 98 100 100 100
0 0 0 0 0 0 0 0 0 0 0 0 0 0 0 0 0 0 0 0 0 0 0 0 0 0 0 0 0 0 0 0 0 2 22 100 83 94 100 69 52 40 4 63 9
0 0 0 0 0 0 0 0 0 0 0 0 0 0 0 0 0 0 0 0 0 0 0 0 0 0 0 0 0 0 0 0 0 0 3 5 66 4 2 0 13 4 0 0 0
0 0 0 0 0 0 0 0 0 0 0 0 0 0 0 0 0 0 0 0 0 0 0 0 0 0 0 0 0 0 0 0 0 0 0 1 22 2 54 5 1 1 5 4 0
0 0 0 0 0 0 0 0 0 0 0 0 0 65 97 4 0 0 0 0 0 0 0 0 0 0 0 0 0 0 0 0 0 0 0 0 0 0 0 9 57 93 64 5 3
0 0 0 0 0 0 0 2 7 1 0 0 0 0 100 100 32 1 0 0 0 0 0 0 0 0 0 0 0 0 0 0 0 0 0 0 0 0 0 0 0 1 100 21 5
0 0 0 18 0 0 0 4 97 100 4 0 0 0 6 100 65 96 8 0 17 4 83 0 3 0 0 0 0 0 0 0 0 0 0 0 0 0 0 0 0 0 5 5 4
0 5 56 98 8 5 5 100 77 84 64 4 0 0 0 100 100 100 100 97 98 94 47 2 0 0 13 0 0 0 0 0 0 0 0 0 0 0 0 0 0 0 5 1 5
0 76 100 100 73 8 71 98 60 100 98 28 3 4 3 47 100 100 100 100 100 100 10 56 0 0 0 0 0 0 0 0 0 0 0 0 0 0 0 0 0 0 0 1 1
0 5 60 97 100 100 26 27 88 14 76 10 2 84 12 76 100 100 100 100 100 100 95 93 1 0 0 2 2 0 0 0 0 0 0 0 0 0 0 0 0 0 0 0 0
5 5 64 100 100 100 100 20 95 100 4 6 54 91 100 3 100 100 100 100 100 100 100 69 0 0 0 0 0 0 2 0 0 0 0 0 0 0 3 0 0 0 0 0 2
5 92 64 100 100 100 100 100 76 100 56 10 25 100 15 3 100 100 100 100 100 100 100 72 0 0 0 0 2 9 38 5 0 0 0 2 0 0 4 8 0 0 0 0 0
5 64 91 100 100 100 100 100 99 100 63 20 12 93 25 28 100 100 100 100 100 100 100 76 44 3 0 3 100 78 67 2 0 0 2 4 0 0 0 3 2 0 0 0 0
95 86 100 100 100 100 100 100 100 100 100 98 47 81 93 44 94 100 100 100 100 100 100 91 100 3 1 100 36 5 23 97 54 0 0 0 0 0 3 1 0 0 0 0 0

GFSSW_prec_cloud_042.txt.gz
Cloud_Cover
0 0 0 0 0 0 0 0 0 1 1 0 2 16 11 10 1 0 1 0 0 0 0 0 0 1 5 5 29 5 58 100 100 100 100 100 87 94 87 100 100 58 5 4 4
0 0 0 0 0 0 0 0 0 0 0 0 0 26 36 8 13 0 0 0 0 0 0 0 0 0 5 4 48 6 97 95 98 59 100 100 85 100 100 100 18 1 5 0 0
0 0 0 0 0 0 0 0 0 0 0 0 10 100 93 1 10 0 0 0 0 0 0 0 0 0 5 0 0 13 8 45 73 100 100 100 96 88 97 5 0 4 14 4 0
0 0 0 0 0 0 0 0 0 0 0 0 55 100 4 0 0 0 0 0 0 0 0 0 0 0 0 10 0 4 0 27 88 74 100 100 94 97 9 1 0 0 0 0 0
0 0 0 0 0 0 0 0 0 0 0 0 55 98 0 0 0 0 0 0 0 0 0 0 0 0 0 0 0 0 0 0 4 5 6 47 60 24 5 2 0 0 0 0 0
0 0 0 0 0 0 0 0 0 0 0 0 66 98 8 0 0 0 0 0 0 0 0 0 0 0 0 0 0 0 5 31 83 30 12 65 81 6 5 4 0 0 0 0 0
0 0 0 0 0 0 0 0 0 0 0 0 100 38 0 0 0 0 0 0 0 0 0 0 0 0 0 0 1 4 10 94 16 94 79 91 6 0 5 5 5 3 4 1 0
0 0 0 0 0 0 0 0 0 0 0 8 100 100 28 0 0 0 0 0 0 0 0 0 0 0 0 0 0 4 14 91 3 79 64 99 5 0 1 5 5 34 10 40 5
0 0 0 0 0 0 0 0 0 0 0 7 26 48 14 0 0 0 0 0 0 0 0 0 0 0 0 0 0 3 0 7 28 62 100 100 77 0 2 1 3 5 85 90 10
0 0 0 0 0 0 0 0 0 0 1 0 0 0 0 0 0 0 0 0 0 0 0 0 0 0 0 0 0 0 0 4 6 37 86 100 100 6 1 0 5 5 29 100 100
0 0 0 0 0 0 0 0 0 0 0 0 0 0 0 0 0 0 0 0 0 0 0 0 0 0 0 0 0 0 0 4 0 3 98 79 10 7 3 0 0 60 7 45 100
0 0 0 0 0 0 0 0 0 0 0 0 0 0 0 0 0 0 0 0 0 0 0 0 0 0 0 0 0 0 0 2 0 5 36 19 100 35 23 0 0 0 55 100 94
0 0 0 0 0 0 0 0 0 0 0 0 0 0 0 0 0 0 0 0 0 0 0 0 0 0 0 0 0 0 0 0 0 1 6 75 96 85 32 12 5 0 96 97 97
0 0 0 0 0 0 0 0 0 0 0 0 0 0 0 0 0 0 0 0 0 0 0 0 0 0 0 0 0 0 0 0 0 1 5 67 56 100 22 5 0 0 8 100 100
0 0 0 0 0 0 0 0 0 0 0 0 0 0 0 0 0 0 0 0 0 0 0 0 0 0 0 0 0 0 0 0 0 5 5 64 13 7 6 5 0 0 2 16 62
0 0 0 0 0 0 0 0 0 0 0 0 0 0 0 0 0 0 0 0 0 0 0 0 0 0 0 0 0 0 0 0 0 4 4 17 27 0 4 4 1 0 4 1 4
0 0 0 0 0 0 0 0 0 0 0 0 0 0 0 0 0 0 0 0 0 0 0 0 0 0 0 0 0 0 0 0 0 0 0 0 5 0 3 1 2 1 5 2 36
0 0 0 0 0 0 0 0 0 0 0 0 0 0 0 3 2 0 0 0 0 0 0 0 0 0 0 0 0 0 0 0 0 0 0 0 0 0 0 35 5 5 4 5 3
0 0 0 0 0 0 1 5 11 0 0 0 0 0 0 0 32 5 0 0 5 46 72 58 0 0 0 0 0 0 0 0 0 0 0 0 0 0 0 0 3 0 47 4 5
0 0 0 0 0 0 0 8 44 0 0 0 0 64 0 0 0 25 75 52 100 100 99 22 0 0 0 2 0 0 0 0 0 0 0 0 0 0 0 0 0 0 0 0 0
0 0 0 0 6 1 0 33 32 5 5 0 52 97 78 0 0 0 96 99 100 100 100 80 26 0 78 6 0 0 0 0 0 0 0 0 0 0 0 0 0 0 0 0 0
5 0 2 6 11 11 15 16 73 44 5 2 5 5 34 5 0 0 32 100 94 100 100 86 100 14 0 0 2 6 0 0 0 0 0 0 0 0 0 0 0 0 0 0 0
75 0 0 8 100 100 100 100 100 45 6 25 0 0 0 5 2 0 3 100 100 100 100 100 100 66 0 2 85 29 0 0 0 0 0 0 0 0 0 0 0 0 0 0 0
9 1 4 42 64 54 100 100 100 100 97 82 2 0 0 0 1 0 0 100 100 100 100 100 69 50 5 0 40 0 2 0 0 0 0 0 0 0 0 0 0 0 0 0 0
0 4 5 81 91 92 100 100 100 100 100 97 6 11 65 2 4 0 0 59 100 100 100 100 60 49 0 0 1 0 0 1 0 0 0 0 0 0 1 0 0 0 0 0 0
0 5 8 98 100 100 100 100 100 100 100 100 87 100 32 5 5 0 6 98 100 100 100 100 100 8 0 0 0 0 0 0 0 0 5 0 0 5 4 0 5 0 0 0 0
5 31 100 100 100 100 100 100 100 100 100 100 84 100 100 14 2 0 4 100 100 100 100 100 100 35 0 31 87 22 12 3 0 0 5 4 2 9 24 1 25 2 0 0 0

GFSSW_prec_cloud_045.txt.gz
Cloud_Cover
0 0 0 0 0 0 0 0 0 0 0 0 5 14 84 98 4 6 3 0 0 0 0 0 0 0 2 42 72 88 43 59 92 100 100 100 100 100 100 100 100 100 98 94 1
0 0 0 0 0 0 0 0 0 0 0 0 3 36 100 100 20 0 0 0 0 0 0 0 0 0 73 0 22 48 18 45 90 100 100 100 100 100 100 98 97 100 94 1 0
0 0 0 0 0 0 0 0 0 0 0 0 7 39 100 14 33 0 0 0 0 0 0 0 0 0 44 30 5 4 8 60 95 99 100 100 100 100 99 91 80 15 1 0 0
0 0 0 0 0 0 0 0 0 0 0 0 20 77 20 0 0 0 0 0 0 0 0 0 0 0 0 10 0 5 64 51 100 91 100 91 99 93 59 100 59 0 0 0 0
0 0 0 0 0 0 0 0 0 0 0 0 1 97 0 0 0 0 0 0 0 0 0 0 0 0 0 0 0 4 64 17 65 98 12 79 100 100 100 75 1 0 0 0 0
0 0 0 0 0 0 0 0 0 0 0 0 11 60 0 0 0 0 0 0 0 0 0 0 0 0 0 0 0 61 6 4 4 6 77 82 5 25 14 0 5 0 0 0 0
0 0 0 0 0 0 0 0 0 0 0 0 98 10 0 0 0 0 0 0 0 0 0 0 0 0 0 0 4 7 3 5 5 5 4 5 4 0 3 5 5 5 0 0 5
0 0 0 0 0 0 0 0 0 0 0 1 92 86 21 0 0 0 0 0 0 0 0 0 0 0 0 0 0 0 4 0 1 42 93 96 42 0 0 2 5 0 0 0 4
0 0 0 0 0 0 0 0 0 0 0 2 21 31 24 0 0 0 0 0 0 0 0 0 0 0 0 0 0 0 0 0 5 4 100 44 5 0 0 0 4 1 1 0 3
0 0 0 0 0 0 0 0 0 0 0 0 1 24 0 0 0 0 0 0 0 0 0 0 0 0 0 0 0 0 0 0 0 2 83 48 3 4 0 0 2 3 5 2 1
0 0 0 0 0 0 1 0 0 0 0 0 0 0 0 0 0 0 0 0 0 0 0 0 0 0 0 0 0 0 0 0 0 5 79 20 60 5 0 0 0 5 5 5 0
0 0 0 0 0 0 0 0 0 0 0 0 0 0 0 0 0 0 0 0 0 0 0 0 0 0 0 0 0 0 0 0 0 5 37 38 0 5 2 0 0 4 11 5 9
0 0 0 0 0 0 0 0 0 0 0 0 0 0 0 0 0 0 0 0 0 0 0 0 0 0 0 0 0 0 0 0 0 35 5 81 68 5 0 0 0 0 85 26 15
0 0 0 0 0 0 0 0 0 0 0 0 0 0 0 0 0 0 0 0 0 0 0 0 0 0 0 0 0 0 0 0 0 84 5 32 77 5 13 0 0 5 5 5 81
0 0 0 0 0 0 0 0 0 0 0 0 0 0 0 0 0 0 0 0 0 0 0 0 0 0 0 0 0 0 0 0 0 2 76 54 50 46 3 0 0 1 5 5 5
0 0 0 0 0 0 0 0 0 0 0 0 0 0 0 0 0 0 0 0 0 0 0 0 0 0 0 0 0 0 0 0 0 1 8 6 14 5 1 0 0 0 5 34 5
0 0 0 0 0 0 0 0 0 0 0 0 0 0 0 0 0 0 0 0 0 0 0 0 0 0 0 0 0 0 0 0 0 96 3 0 3 0 0 0 0 0 0 0 5
0 0 0 0 0 0 0 0 0 0 0 0 0 0 0 0 0 0 0 0 0 0 0 60 0 0 0 0 0 0 0 0 0 5 3 0 0 0 0 0 0 0 0 0 32
0 0 0 0 0 0 0 0 0 1 0 0 0 0 0 0 0 0 44 1 6 0 1 9 0 0 0 0 0 0 0 0 0 0 3 0 0 0 0 0 0 0 0 0 4
7 1 0 0 0 0 1 4 5 4 5 4 3 0 0 0 0 0 43 46 29 28 30 5 29 0 0 1 3 0 0 0 0 0 0 0 0 0 0 0 0 0 0 0 0
22 0 0 0 0 0 23 40 2 5 5 4 4 5 0 0 0 0 0 55 100 54 92 20 58 2 0 1 0 0 0 0 0 0 0 0 0 0 0 0 0 0 0 0 0
15 0 0 0 0 5 5 5 5 6 97 38 5 5 5 5 0 5 0 6 100 84 92 90 98 100 0 0 0 1 0 41 2 0 0 0 0 0 0 0 0 0 0 0 0
78 23 0 4 8 71 98 24 92 89 100 100 55 33 5 4 2 46 46 0 9 99 100 98 100 11 0 6 2 94 6 0 0 0 0 0 0 0 0 0 0 0 0 0 0
22 0 2 79 96 54 92 100 95 100 100 100 100 86 36 2 1 53 100 12 5 59 100 100 100 26 5 59 96 49 7 0 0 0 0 0 0 0 0 0 0 0 0 0 0
0 4 5 62 10 96 94 97 100 100 100 100 100 100 100 5 2 0 100 99 5 5 100 100 100 73 6 63 74 5 5 1 0 0 0 2 0 0 0 0 0 0 0 0 0
5 30 10 72 91 94 77 93 100 100 100 100 100 100 100 41 5 5 23 100 4 5 100 100 96 13 5 27 95 10 92 5 0 0 0 1 0 0 0 0 0 0 0 0 0
52 98 100 90 100 100 100 100 100 100 100 100 100 100 100 98 88 1 0 25 3 1 50 100 100 64 6 27 100 100 100 89 63 2 0 3 0 1 0 0 0 0 0 0 0

GFSSW_prec_cloud_048.txt.gz
Cloud_Cover
0 0 0 0 0 0 0 0 0 0 0 0 0 21 10 100 85 17 11 0 0 0 0 16 0 0 1 10 100 81 37 81 97 100 100 100 100 100 100 100 100 93 82 59 100
0 0 0 0 0 0 0 0 0 0 0 0 5 23 45 100 31 1 0 0 0 0 0 28 7 0 24 26 100 68 20 47 99 100 100 100 100 100 100 93 14 99 100 86 78
0 0 0 0 0 0 0 0 0 0 0 0 28 22 98 18 9 0 0 0 0 0 0 0 0 0 0 0 17 22 59 37 78 98 98 100 100 98 93 30 78 96 88 49 12
0 0 0 0 0 0 0 0 0 0 0 21 32 21 44 0 0 0 0 0 0 0 0 0 0 0 0 1 5 28 5 10 100 46 100 99 99 51 94 73 100 85 53 8 1
0 0 0 0 0 0 0 0 0 0 0 10 7 93 0 0 0 0 0 0 0 0 0 0 0 0 0 1 5 8 100 40 69 42 77 100 78 85 100 99 29 99 100 58 0
0 0 0 0 0 0 0 0 0 0 0 0 0 26 0 0 0 0 0 0 0 0 0 0 0 0 0 0 5 8 100 98 24 13 5 18 64 100 36 5 4 12 14 0 0
0 0 0 0 0 0 0 0 0 0 0 0 2 0 0 0 0 0 0 0 0 0 0 0 0 0 0 0 13 5 29 6 5 39 77 5 5 5 1 4 0 0 0 0 0
0 0 0 0 0 0 0 0 0 0 0 10 73 0 12 0 0 0 0 0 0 0 0 0 0 0 0 0 1 1 37 5 5 3 17 8 1 0 0 54 0 0 0 0 0
0 0 0 0 0 0 0 0 0 0 7 42 14 0 0 0 0 0 0 0 0 0 0 0 0 0 0 0 0 4 1 4 6 5 4 10 12 0 32 43 0 1 1 0 0
0 0 0 0 0 0 0 0 0 0 8 2 0 9 0 0 0 0 0 0 0 0 0 0 0 0 0 0 0 0 0 0 5 5 5 18 91 42 4 0 3 5 3 2 0
0 0 0 0 0 0 2 0 0 0 0 0 0 0 0 0 0 0 0 0 0 0 0 0 0 0 0 0 0 0 0 0 5 4 4 0 4 16 5 1 0 0 0 1 0
0 0 0 0 0 0 0 0 0 0 0 0 0 0 0 0 0 0 0 0 0 0 0 0 0 0 0 0 0 0 0 0 2 11 6 0 1 5 0 0 0 4 5 2 5
0 0 0 0 0 0 0 0 0 0 0 0 0 0 0 0 0 0 0 0 0 0 0 0 0 0 0 0 0 0 0 0 0 2 47 5 5 5 0 0 0 0 1 2 5
0 0 0 0 0 0 0 0 0 0 0 0 0 0 0 0 0 0 0 0 0 0 0 0 0 0 0 0 0 0 0 0 0 0 4 29 4 5 0 0 0 0 0 4 4
0 0 0 0 0 0 0 0 0 0 0 0 0 0 0 0 0 0 0 0 0 0 0 0 0 0 0 0 0 0 0 0 0 0 0 11 50 0 0 42 0 0 1 1 5
0 0 0 0 0 0 0 0 0 0 0 0 0 0 0 0 0 0 0 0 0 0 0 0 0 0 0 0 0 0 0 0 0 0 0 0 48 8 0 0 0 0 1 5 5
0 0 0 0 0 0 0 0 0 0 0 0 0 0 0 0 0 0 0 0 0 9 0 0 0 0 0 0 0 0 0 0 0 0 0 0 43 5 0 0 0 0 2 4 5
0 0 0 0 0 0 0 0 0 0 0 0 0 0 0 0 0 0 0 0 0 0 0 2 0 0 0 0 0 0 0 0 0 0 0 0 3 11 0 0 0 0 5 5 5
1 0 0 0 0 0 0 0 0 0 0 0 0 0 0 0 0 0 0 0 0 0 0 0 0 0 0 0 0 0 0 0 0 0 0 0 0 0 0 0 0 5 5 0 0
67 0 0 0 0 0 0 0 0 0 0 2 20 4 0 0 0 0 0 0 0 0 2 3 39 0 0 0 2 0 0 0 0 0 0 0 0 0 0 0 0 2 3 1 0
0 0 2 2 0 0 0 0 0 2 3 4 3 2 2 0 4 4 0 0 0 0 0 1 10 1 0 0 1 0 1 0 0 0 0 0 0 0 0 0 0 0 0 0 0
4 20 3 0 0 0 0 0 0 5 5 47 18 6 5 14 86 8 5 0 0 0 0 2 20 64 0 3 1 46 5 2 0 0 0 0 0 0 0 0 0 0 5 3 2
100 78 0 0 3 5 1 3 5 5 10 18 6 56 18 5 5 8 2 0 0 0 0 0 88 22 0 86 0 69 87 42 5 19 0 0 0 0 0 0 0 0 0 5 4
8 1 3 5 5 5 92 5 5 5 5 99 100 100 69 12 5 5 5 0 0 17 95 4 22 15 3 2 10 5 99 89 83 19 5 1 2 0 0 0 0 0 0 4 0
2 5 5 46 18 72 100 47 5 37 88 100 100 98 100 90 97 28 5 5 3 73 100 4 28 67 6 5 14 0 89 81 6 5 4 0 3 0 0 0 0 0 0 0 0
47 52 17 78 57 100 88 100 100 100 87 100 96 100 100 100 100 97 87 26 4 59 100 6 14 76 61 3 5 1 73 99 12 5 5 0 74 0 0 0 0 0 0 0 0
98 98 100 98 100 100 100 100 100 100 100 100 100 100 100 100 100 100 100 99 5 4 100 93 52 89 100 15 5 5 26 45 16 5 5 0 74 0 0 0 2 0 0 48 21

GFSSW_prec_cloud_054.txt.gz
Cloud_Cover
0 0 0 0 0 0 0 1 0 0 0 1 29 33 99 86 68 0 0 0 0 0 0 0 0 1 4 86 60 67 18 52 82 87 36 79 89 100 100 100 98 100 36 22 88
0 0 0 0 0 0 3 12 0 0 0 17 26 100 100 3 0 0 0 0 0 0 0 0 0 0 0 3 58 50 53 65 48 57 100 78 98 78 81 100 85 38 7 93 99
0 0 0 0 0 0 5 0 0 0 0 21 26 6 1 10 0 0 0 0 0 0 0 0 0 0 0 0 10 87 65 21 95 100 100 100 97 90 99 98 10 8 31 100 48
0 0 0 0 0 0 0 0 0 0 0 26 19 0 0 0 0 0 0 0 0 0 0 0 0 0 0 0 5 9 7 73 100 85 97 100 100 69 89 76 26 85 74 41 15
0 0 0 0 0 0 0 0 0 0 0 9 6 0 6 0 0 0 0 0 0 0 0 0 0 0 0 0 4 5 63 99 67 81 72 76 100 96 99 69 52 30 85 16 6
0 0 0 0 0 0 0 0 0 0 0 0 0 0 0 0 0 0 0 0 0 0 0 0 0 0 0 0 0 5 15 84 86 99 43 15 33 67 86 81 46 100 100 6 0
0 0 0 0 0 0 0 0 0 0 0 0 0 0 0 0 0 0 0 0 0 0 0 0 0 0 0 0 0 2 5 5 30 58 76 97 5 7 7 30 99 77 3 20 10
0 0 0 0 0 0 0 0 0 0 0 0 0 0 0 0 0 0 0 0 0 0 0 0 0 0 0 0 0 0 3 73 42 86 100 100 98 5 56 42 5 0 9 32 18
0 0 0 0 0 0 0 0 0 0 0 0 0 0 0 0 0 0 0 0 0 0 0 0 0 0 0 0 0 0 0 1 99 97 92 100 100 41 71 5 0 0 0 5 28
0 0 0 0 0 0 0 0 0 22 8 0 0 0 0 0 0 0 0 0 0 0 0 0 0 0 0 0 0 0 0 0 6 28 55 76 90 4 6 0 0 0 0 0 0
0 0 0 0 0 0 7 0 0 0 0 0 0 0 0 0 0 0 0 0 0 0 0 0 0 0 0 0 0 0 0 0 4 100 70 97 84 42 2 0 0 0 0 0 0
0 0 0 0 0 0 4 0 0 0 0 0 0 0 0 0 0 0 0 0 0 0 0 0 0 0 0 0 0 0 0 0 48 60 53 92 100 19 0 0 0 0 0 0 0
0 0 0 0 0 0 0 0 0 0 0 0 0 0 0 0 0 0 0 0 0 0 0 0 0 0 0 0 0 0 0 0 5 11 14 78 63 71 5 3 0 0 0 0 0
0 0 0 25 9 0 0 0 0 0 0 0 0 0 0 0 0 0 0 0 0 0 0 0 0 0 0 0 0 0 0 0 3 2 23 8 100 9 5 5 0 3 0 0 0
0 0 0 31 0 0 0 0 0 0 0 0 0 0 0 0 0 0 0 0 0 0 0 0 0 0 0 0 0 0 0 0 0 5 5 84 55 99 20 5 5 0 0 0 0
0 0 9 12 0 0 0 0 0 0 0 0 0 0 0 0 0 0 0 0 0 0 0 0 0 0 0 0 0 0 0 0 0 0 36 4 32 5 96 54 5 3 0 0 0
5 2 10 0 0 0 0 0 0 0 0 0 0 0 0 0 0 0 0 0 0 0 0 0 0 0 0 0 0 0 0 0 0 0 0 0 4 2 41 58 5 0 0 4 3
0 37 5 0 0 0 0 0 0 0 0 0 0 0 0 0 0 0 0 0 0 0 0 0 0 0 0 0 0 0 0 0 0 0 0 0 0 0 8 1 4 4 5 5 5
16 0 0 0 5 5 9 4 1 0 0 0 0 0 0 0 0 0 0 0 0 0 0 0 0 0 0 0 0 0 0 0 0 0 0 0 0 0 0 0 0 3 5 5 5
5 5 0 0 0 1 2 0 0 0 0 0 0 0 0 0 0 0 0 0 0 0 0 0 0 0 0 0 0 7 1 10 1 1 0 0 0 0 0 0 0 49 59 5 5
6 63 5 5 5 5 9 6 5 5 0 0 0 0 0 0 0 0 1 0 0 0 0 0 0 0 0 0 0 0 0 97 29 1 0 0 0 0 0 0 0 2 19 5 1
0 0 0 2 3 0 4 0 0 3 2 2 0 5 58 88 94 31 19 5 0 0 0 0 0 0 0 1 0 0 23 2 100 12 3 4 18 3 0 0 0 0 2 8 0
0 0 0 0 30 5 5 10 25 11 56 59 62 70 92 84 87 100 100 35 5 0 0 4 0 0 0 0 0 0 0 5 100 100 48 53 4 0 0 0 0 0 0 0 0
8 31 42 45 13 17 90 99 67 72 75 10 8 33 64 51 96 100 99 86 57 15 2 0 0 0 0 0 0 2 5 14 4 94 27 97 100 52 2 0 0 0 0 0 0
66 100 98 89 97 100 83 95 66 68 28 20 91 93 100 99 98 100 100 100 99 37 27 4 3 0 0 0 0 0 3 1 0 22 26 82 100 100 2 0 0 0 0 0 0
84 93 100 100 95 76 7 34 18 100 76 85 84 100 41 71 100 100 100 100 100 100 92 84 31 0 0 0 0 0 0 0 0 5 2 2 44 100 28 0 0 0 0 0 0
90 80 99 77 83 98 100 100 100 91 100 100 92 100 100 62 49 57 84 82 98 100 100 99 85 36 5 1 0 0 0 1 0 0 5 0 1 91 5 0 0 0 0 0 0

GFSSW_prec_cloud_057.txt.gz
Cloud_Cover
0 0 0 0 0 0 0 2 0 0 8 17 0 6 0 0 0 0 0 0 0 0 0 0 0 5 0 5 33 100 31 100 100 100 100 12 54 97 100 67 98 91 94 5 36
0 0 0 0 0 0 11 0 0 0 0 1 0 0 0 0 0 0 0 0 0 0 0 0 0 0 4 20 10 98 95 99 62 100 89 40 38 100 97 78 88 41 90 20 83
0 0 0 0 0 0 0 0 0 0 0 1 11 0 0 0 0 0 0 0 0 0 0 0 0 0 5 0 10 51 46 100 35 10 69 100 78 96 70 92 71 74 85 26 94
0 0 0 0 0 0 0 0 0 0 0 0 22 0 0 0 0 0 0 0 0 0 0 0 0 0 0 0 39 17 62 87 98 57 72 100 98 100 91 80 25 14 46 30 52
0 0 0 0 0 0 0 0 0 0 0 0 20 0 11 0 0 0 0 0 0 0 0 0 0 0 0 0 0 3 92 48 99 100 100 100 100 100 100 83 3 5 30 60 47
0 0 0 0 0 0 0 0 0 0 0 0 0 0 0 0 0 0 0 0 0 0 0 0 0 0 0 0 0 4 6 25 54 46 100 100 81 89 100 5 5 5 29 72 35
0 0 0 0 0 0 0 0 0 0 0 0 0 0 0 0 0 0 0 0 0 0 0 0 0 0 0 0 0 0 4 23 80 20 95 94 100 100 97 100 26 16 28 56 54
0 0 0 0 0 0 0 0 0 0 0 0 0 0 0 0 0 0 0 0 0 0 0 0 0 0 0 0 0 0 0 84 26 6 31 5 98 52 5 12 16 20 9 33 81
0 0 0 0 0 0 0 0 0 0 0 0 0 0 0 0 0 0 0 0 0 0 0 0 0 0 0 0 0 0 0 3 78 33 5 7 87 100 53 3 4 12 10 19 33
0 0 0 0 0 0 0 11 0 26 16 0 0 0 0 0 0 0 0 0 0 0 0 0 0 0 0 0 0 0 0 3 46 96 30 71 96 100 74 7 4 0 0 9 25
0 0 0 0 0 0 12 0 0 0 0 0 0 0 0 0 0 0 0 0 0 0 0 0 0 0 0 0 0 0 0 0 39 75 95 33 100 100 100 20 5 0 0 5 19
0 0 0 0 0 0 0 0 0 0 0 0 0 0 0 0 0 0 0 0 0 0 0 0 0 0 0 0 0 0 0 0 12 56 100 42 82 100 40 0 0 0 0 0 24
0 0 0 0 4 6 0 0 0 0 0 0 0 0 0 0 0 0 0 0 0 0 0 0 0 0 0 0 0 0 0 0 5 21 96 62 85 46 99 0 0 0 0 0 0
0 0 0 13 9 0 0 0 0 0 0 0 0 0 0 0 0 0 0 0 0 0 0 0 0 0 0 0 0 0 0 0 1 94 59 28 82 36 69 55 0 0 0 0 0
0 0 0 33 0 0 0 0 0 0 0 0 0 0 0 0 0 0 0 0 0 0 0 0 0 0 0 0 0 0 0 0 0 0 24 64 84 99 92 70 7 0 0 0 0
1 4 4 0 0 0 0 3 2 0 0 0 0 0 0 0 0 0 0 0 0 0 0 0 0 0 0 0 0 0 0 0 0 0 0 1 34 28 16 59 100 5 1 0 0
0 0 18 4 8 1 1 0 1 1 0 0 0 0 0 0 0 0 0 0 0 0 0 0 0 0 0 0 0 0 0 0 0 0 0 0 3 5 66 100 88 75 4 0 0
5 33 2 0 1 82 17 1 0 0 0 0 0 0 0 0 0 0 0 0 0 0 0 0 0 0 0 0 0 0 0 0 0 0 0 0 0 0 19 44 50 100 91 0 0
16 5 5 3 0 0 61 5 4 3 0 0 0 0 0 0 0 0 0 0 0 0 0 0 0 0 0 0 0 0 1 0 1 0 0 0 0 0 0 63 78 82 100 92 8
0 4 89 97 7 5 1 2 2 1 4 5 4 0 0 0 0 0 0 0 0 0 0 0 0 0 0 0 0 1 12 1 0 3 0 3 0 0 0 0 28 43 69 3 100
0 4 0 5 45 92 62 49 26 39 17 3 4 1 2 0 4 1 5 2 0 0 0 0 0 0 0 0 0 0 0 57 85 2 0 4 0 3 3 0 0 4 4 7 90
0 76 0 1 43 21 88 6 6 40 8 5 2 0 10 53 97 100 42 98 5 5 0 0 0 0 0 0 0 0 2 0 83 90 3 16 5 45 68 2 0 2 5 5 4
5 6 17 68 96 97 8 5 2 30 70 51 65 80 78 98 99 100 100 98 5 8 0 3 0 0 0 0 0 0 0 5 4 34 96 14 4 95 99 13 5 0 1 4 8
100 100 99 26 14 68 93 41 87 59 74 50 52 81 91 98 100 100 100 100 83 19 4 0 0 0 0 46 17 2 3 5 5 94 57 96 100 11 100 92 12 0 0 4 3
27 61 100 100 61 22 17 5 11 68 27 5 67 14 64 56 12 90 100 100 92 100 31 4 2 3 4 5 2 0 1 17 96 81 34 10 100 100 100 91 94 4 4 7 95
5 16 5 1 1 70 6 85 96 14 67 54 58 89 90 87 92 78 55 97 89 100 100 100 100 100 100 64 5 0 0 5 5 5 80 3 10 100 100 100 100 39 49 39 0
13 6 11 5 15 56 37 68 74 99 22 15 15 18 10 5 39 82 86 82 8 47 100 99 95 100 100 100 32 6 0 0 0 0 0 4 1 98 64 100 64 88 40 74 1

GFSSW_prec_cloud_060.txt.gz
Cloud_Cover
0 0 0 0 0 0 0 0 0 0 0 0 0 1 0 0 0 0 0 0 0 0 0 0 0 2 0 22 40 99 65 95 100 99 100 100 100 100 100 100 98 99 26 7 5
0 0 0 0 0 0 0 0 0 0 0 0 0 5 6 0 0 0 0 0 0 0 0 0 0 1 1 17 6 44 92 95 100 96 100 96 82 79 100 99 100 99 35 12 9
0 0 0 0 0 0 0 0 0 0 0 0 0 17 2 0 0 0 0 0 0 0 0 0 0 0 0 0 26 40 59 98 84 100 42 99 100 100 100 100 99 68 5 34 20
0 0 0 0 0 0 0 0 0 0 0 0 3 14 0 0 0 0 0 0 0 0 0 0 0 0 0 1 37 95 84 99 100 25 49 51 100 100 100 100 100 100 6 38 62
0 0 0 0 0 0 0 0 0 0 0 0 6 18 16 0 0 0 0 0 0 0 0 0 0 0 0 0 20 14 92 82 84 99 63 68 99 100 100 100 100 100 26 96 46
0 0 0 0 0 0 0 0 0 0 0 0 6 0 0 0 0 0 0 0 0 0 0 0 0 0 0 0 2 28 31 100 9 62 35 89 100 100 96 90 100 24 11 100 19
0 0 0 0 0 0 0 0 0 6 0 0 0 0 0 0 0 0 0 0 0 0 0 0 0 0 0 0 0 0 19 37 9 67 85 79 100 88 100 100 41 5 27 85 82
0 0 0 0 0 0 0 0 0 0 0 0 1 0 0 0 0 0 0 0 0 0 0 0 0 0 0 0 0 0 0 3 20 47 5 79 100 86 97 100 100 56 76 43 49
0 0 0 0 0 0 0 0 0 0 0 0 1 0 0 0 0 0 0 0 0 0 0 0 0 0 0 0 0 0 0 0 76 79 41 5 52 19 96 58 97 42 49 63 92
0 0 0 0 0 0 0 0 0 0 0 0 0 0 0 0 0 0 0 0 0 0 0 0 0 0 0 0 0 0 0 0 4 63 29 96 66 88 100 100 100 100 97 100 63
0 0 0 0 0 0 1 0 0 0 0 0 0 0 0 0 0 0 0 0 0 0 0 0 0 0 0 0 0 0 0 0 0 77 4 100 24 100 15 100 100 100 100 90 92
0 0 0 0 0 4 5 0 0 0 0 0 0 0 0 0 0 0 0 0 0 0 0 0 0 0 0 0 0 0 0 0 3 86 20 72 42 100 97 100 100 100 60 35 26
0 0 0 0 5 5 0 0 0 0 0 0 0 0 0 0 0 0 0 0 0 0 0 0 0 0 0 0 0 0 0 0 0 98 45 38 68 5 100 100 100 100 100 8 0
0 0 0 35 2 0 0 0 0 0 0 0 0 0 0 0 0 0 0 0 0 0 0 0 0 0 0 0 0 0 0 0 0 12 93 46 0 100 3 100 100 93 1 0 0
0 0 0 0 0 0 0 0 5 5 13 0 0 0 0 0 0 0 0 0 0 0 0 0 0 0 0 0 0 0 0 0 0 0 6 13 100 14 6 21 95 100 100 100 3
0 0 0 0 0 0 0 2 1 4 93 0 0 0 0 0 0 0 0 0 0 0 0 0 0 0 0 0 0 0 0 0 0 0 0 0 32 5 73 25 96 100 100 19 0
0 0 11 3 0 0 1 5 56 49 44 0 0 0 0 0 0 0 0 0 0 0 0 0 0 0 0 0 0 0 0 0 0 0 0 0 0 0 59 1 100 100 100 81 2
0 16 0 5 5 5 5 5 6 90 100 0 0 26 3 0 0 0 0 0 0 0 0 0 0 0 0 0 0 0 0 0 0 0 0 0 0 0 0 79 100 100 100 100 2
0 0 0 5 33 4 27 81 14 6 7 54 2 5 4 0 0 0 0 0 0 0 0 0 0 4 0 0 0 0 14 0 0 0 0 0 0 0 0 6 100 92 94 82 60
0 0 3 2 75 98 94 46 78 0 5 6 58 22 5 8 1 0 0 0 0 0 0 0 0 0 0 4 0 0 0 37 0 0 0 0 0 0 0 0 36 5 41 80 100
0 36 2 36 97 100 98 91 83 5 2 0 5 51 70 5 15 3 23 3 1 0 0 0 0 0 0 0 1 4 0 2 85 42 0 1 0 0 3 0 0 1 32 100 100
0 100 0 2 52 95 100 100 100 100 100 97 21 5 23 25 5 68 66 94 0 2 4 0 0 0 0 0 3 5 1 0 52 5 15 1 0 0 73 97 5 0 28 100 100
71 100 98 96 100 100 18 5 12 65 80 84 78 55 12 5 5 5 12 30 17 3 5 0 0 0 0 0 0 1 0 0 1 2 5 54 4 0 66 99 100 17 0 27 16
75 100 100 100 25 18 41 77 99 3 17 4 3 3 3 0 14 9 21 26 18 78 3 0 0 1 0 0 0 4 10 1 2 5 1 5 32 0 100 86 100 92 5 12 100
4 1 89 96 90 41 46 50 65 62 13 5 15 5 4 2 2 5 48 28 37 5 5 1 0 2 0 0 1 0 0 0 0 0 5 0 46 0 100 95 100 81 4 0 13
85 8 31 1 4 81 10 62 5 9 0 26 38 73 2 38 91 20 98 99 70 87 5 29 87 94 42 5 5 0 0 0 0 0 0 96 3 5 100 41 6 5 22 14 85
100 99 100 78 28 5 10 5 1 0 14 17 5 1 17 83 63 4 12 4 11 90 83 84 6 60 6 97 74 75 4 0 0 0 0 1 0 27 100 49 96 100 100 70 81

GFSSW_prec_cloud_063.txt.gz
Cloud_Cover
0 0 0 0 0 0 0 0 14 6 2 0 7 11 18 0 0 0 0 0 0 0 0 0 0 0 0 0 98 96 45 100 100 100 100 77 100 100 100 100 100 100 100 100 5
0 0 0 0 0 0 0 1 0 0 0 0 0 25 10 0 0 0 0 0 0 0 0 0 0 0 15 0 100 18 100 88 87 76 100 97 100 100 100 100 100 100 100 100 5
0 0 0 0 0 0 0 4 0 0 0 13 0 2 4 0 0 0 0 0 0 0 0 0 0 0 0 0 16 50 67 100 85 64 60 99 95 100 100 100 100 100 100 100 5
0 0 0 0 0 0 0 1 2 0 4 15 0 8 0 0 0 0 0 0 0 0 0 0 0 0 0 0 15 46 43 92 82 29 20 98 100 100 98 100 91 100 100 75 5
0 0 0 0 0 0 0 0 0 0 35 2 0 5 16 0 0 0 0 0 0 0 0 0 0 0 0 0 19 78 62 100 100 100 82 98 100 100 100 100 100 100 100 91 38
0 0 0 0 0 0 0 0 0 0 43 0 0 4 0 0 0 0 0 0 0 0 0 0 0 0 0 0 0 44 100 99 100 100 100 74 100 100 100 100 100 100 100 100 24
0 0 10 0 0 0 0 0 0 0 12 0 0 0 0 0 0 0 0 0 0 0 0 0 0 0 0 0 0 5 74 100 79 94 99 100 100 100 100 100 100 100 100 100 11
0 0 0 0 0 0 0 0 0 0 0 0 0 0 0 0 0 0 0 0 0 0 0 0 0 0 0 0 0 0 4 4 71 94 100 9 38 100 100 100 93 100 100 74 1
0 1 16 0 0 0 0 0 0 0 0 0 0 0 0 0 0 0 0 0 0 0 0 0 0 0 0 0 0 0 0 0 3 4 100 41 24 13 65 97 70 84 100 92 31
0 8 2 0 0 0 0 0 0 0 0 0 0 0 0 0 0 0 0 0 0 0 0 0 0 0 0 0 0 0 0 0 0 3 61 100 29 7 89 100 100 99 61 100 18
0 3 2 0 0 0 1 0 0 0 0 0 0 0 0 0 0 0 0 0 0 0 0 0 0 0 0 0 0 0 0 0 0 21 3 18 12 65 37 100 100 100 100 92 100
0 0 0 0 0 0 6 0 0 0 0 0 0 0 0 0 0 0 0 0 0 0 0 0 0 0 0 0 0 0 0 0 0 11 0 3 72 62 70 100 100 100 100 100 88
0 0 0 0 0 0 0 0 0 0 0 0 0 0 0 0 0 0 0 0 0 0 0 0 0 0 0 0 0 0 0 0 0 4 56 5 62 91 78 98 100 100 98 100 87
0 0 0 4 0 0 0 0 0 0 0 0 0 0 0 0 0 0 0 0 0 0 0 0 0 0 0 0 0 0 0 0 0 1 81 78 76 5 5 66 100 55 97 100 100
0 0 0 29 0 0 0 0 3 5 2 0 0 0 0 0 0 0 0 0 0 0 0 0 0 0 0 0 0 0 0 0 0 0 0 5 99 47 91 70 99 100 100 100 95
0 0 11 0 2 2 2 3 0 5 94 3 1 1 0 0 0 0 0 0 0 0 0 0 0 0 0 0 0 0 0 0 0 0 0 1 13 5 13 20 9 100 100 100 80
0 0 54 0 6 3 5 5 18 99 40 50 3 25 7 2 0 0 0 0 0 0 0 0 0 0 0 0 0 0 0 0 0 0 0 0 2 0 0 1 63 72 100 100 100
0 0 0 0 86 98 92 48 100 65 22 5 0 2 100 25 5 5 0 0 0 0 0 0 0 0 0 0 0 0 0 0 0 0 0 0 0 0 0 0 5 5 100 100 100
0 0 0 0 42 100 100 100 84 5 7 2 1 4 99 13 46 80 49 5 2 0 0 0 0 0 0 0 0 0 0 0 0 0 0 0 0 0 0 0 3 2 5 85 97
0 2 1 0 94 100 100 96 61 12 84 5 2 5 85 24 8 0 5 4 0 0 0 0 0 0 0 0 0 0 0 0 0 0 0 0 0 0 0 0 3 2 1 24 96
20 5 11 70 96 100 100 94 79 57 1 1 0 0 7 5 18 58 90 5 3 0 0 0 0 0 0 0 0 0 0 0 0 0 0 0 0 0 47 3 94 100 58 100 78
100 95 0 3 100 100 100 100 100 100 33 50 5 0 0 1 5 19 48 0 3 0 0 0 0 1 0 0 0 0 0 0 3 0 1 1 0 0 62 82 98 30 100 94 87
4 66 100 100 44 72 100 100 100 100 100 91 62 79 77 10 0 0 29 78 9 0 0 0 0 0 5 1 0 0 0 2 0 0 0 5 0 0 61 100 100 60 39 99 91
35 38 100 100 100 100 29 15 56 100 100 100 100 100 100 100 100 76 26 2 4 31 5 4 1 0 0 11 2 0 0 0 0 0 0 4 0 0 22 100 100 100 100 53 80
100 99 52 38 100 100 100 100 34 5 3 0 7 12 17 15 27 49 24 12 5 2 2 2 1 0 0 0 0 0 0 0 0 0 0 0 0 4 0 100 100 100 100 100 99
15 94 100 100 100 11 5 5 5 27 5 5 5 4 0 0 0 0 1 5 5 2 65 5 0 0 0 0 0 0 0 0 0 0 0 0 0 74 0 30 100 81 100 36 50
0 4 6 76 61 18 56 8 5 5 0 0 0 0 1 1 0 0 0 0 0 0 3 5 71 13 2 0 5 1 0 0 0 0 0 0 0 5 0 0 100 95 99 100 23

GFSSW_prec_cloud_066.txt.gz
Cloud_Cover
0 0 0 0 0 0 0 11 5 16 14 14 16 20 3 0 0 0 0 0 0 0 0 0 0 0 0 0 56 83 80 52 68 39 100 71 100 98 100 100 100 100 100 100 100
0 0 0 0 0 0 0 5 15 11 14 15 18 12 1 0 0 0 0 0 0 0 0 0 0 0 0 38 69 96 100 100 91 100 85 46 100 100 100 100 100 100 100 50 100
0 0 0 0 0 0 0 0 7 17 1 22 44 9 0 0 0 0 0 0 0 0 0 0 0 0 0 0 0 1 98 100 97 100 99 100 100 100 97 100 100 100 100 99 100
0 0 1 0 0 7 6 0 1 0 2 43 12 0 0 0 0 0 0 0 0 0 0 0 0 0 0 0 0 0 52 69 85 80 100 100 100 100 100 100 100 100 100 100 100
0 0 2 7 3 0 4 0 0 3 0 74 0 7 1 0 0 0 0 0 0 0 0 0 0 0 0 0 0 0 12 14 100 100 100 100 100 100 100 100 100 100 100 100 100
0 2 0 9 10 3 0 0 0 0 0 27 0 7 0 0 0 0 0 0 0 0 0 0 0 0 0 0 0 4 52 8 6 55 95 100 100 100 100 100 100 100 100 100 100
0 0 0 0 0 1 0 0 0 0 0 1 0 0 0 0 0 0 0 0 0 0 0 0 0 0 0 0 0 0 6 12 5 6 59 100 73 100 100 100 100 100 100 100 100
1 22 10 1 0 0 6 0 0 0 0 0 0 0 0 0 0 0 0 0 0 0 0 0 0 0 0 0 0 0 0 6 5 5 35 80 100 100 100 100 100 100 100 100 100
0 5 2 0 0 0 0 0 0 0 0 0 0 0 0 0 0 0 0 0 0 0 0 0 0 0 0 0 0 0 0 0 25 44 46 27 74 49 69 100 100 100 100 100 99
0 1 0 0 0 0 0 0 0 0 0 0 0 0 0 0 0 0 0 0 0 0 0 0 0 0 0 0 0 0 0 0 40 84 5 5 86 7 77 91 100 100 100 100 100
0 0 0 0 0 0 5 0 0 0 0 0 0 0 0 0 0 0 0 0 0 0 0 0 0 0 0 0 0 0 0 0 3 31 3 0 26 9 100 24 99 100 100 100 100
0 0 0 0 0 0 40 0 0 0 0 0 0 0 0 0 0 0 0 0 0 0 0 0 0 0 0 0 0 0 0 0 0 0 0 0 5 1 8 6 95 100 100 97 100
0 0 0 0 3 0 0 0 0 0 0 0 0 0 0 0 0 0 0 0 0 0 0 0 0 0 0 0 0 0 0 0 0 0 3 0 58 88 59 6 52 100 100 98 100
0 0 0 27 0 0 0 0 0 0 0 0 0 0 0 0 0 0 0 0 0 0 0 0 0 0 0 0 0 0 0 0 0 0 2 57 98 67 82 12 11 100 100 100 100
0 0 1 2 3 0 0 0 2 0 5 2 0 0 0 0 0 0 0 0 0 0 0 0 0 0 0 0 0 0 0 0 0 0 37 6 95 99 39 5 63 100 100 100 100
0 0 37 0 9 50 5 2 4 64 5 84 19 1 0 0 0 0 0 0 0 0 0 0 0 0 0 0 0 0 0 0 0 0 0 2 6 78 55 28 6 13 100 100 100
0 0 54 0 1 81 83 100 97 100 2 74 100 57 1 0 0 0 0 0 0 0 0 0 0 0 0 0 0 0 0 0 0 0 0 1 4 0 1 4 4 5 96 69 100
0 0 0 0 5 99 100 95 41 10 2 0 16 100 96 5 0 0 0 0 0 0 0 0 0 0 0 0 0 0 0 0 0 0 0 0 2 3 1 79 99 34 2 100 100
1 0 0 0 10 77 54 8 52 11 5 1 5 6 63 72 5 18 0 0 0 0 0 0 0 0 0 0 0 0 0 0 0 0 0 0 0 0 46 56 0 2 4 100 100
3 0 0 32 2 5 63 35 10 82 66 27 11 5 29 100 100 100 18 1 0 0 0 0 0 0 0 0 0 0 0 0 0 0 0 0 0 0 0 0 0 0 0 80 54
4 0 53 7 38 92 100 100 100 98 79 74 81 16 1 18 40 65 100 94 35 7 0 0 0 0 0 0 0 0 0 0 0 0 0 0 0 0 0 0 0 0 0 1 2
5 3 71 94 64 100 100 100 100 74 51 26 6 5 4 1 5 5 5 13 32 7 69 61 91 52 0 0 0 0 0 0 0 0 0 0 0 0 0 5 0 0 0 0 0
5 78 54 100 99 67 100 100 100 100 89 26 14 1 0 0 1 4 50 26 5 5 5 5 4 60 2 0 0 0 0 0 0 0 0 3 0 0 4 7 5 0 0 0 0
10 88 84 97 100 100 100 100 100 100 100 100 100 100 100 73 6 2 0 3 38 6 5 28 21 20 75 42 0 0 3 0 0 0 0 0 2 0 0 4 5 0 0 0 0
0 0 78 63 100 100 100 100 99 100 100 100 100 100 100 98 98 60 5 5 0 6 18 5 5 10 49 69 58 4 0 1 0 0 0 0 0 0 0 1 3 3 0 0 4
0 0 0 10 10 99 86 99 100 18 5 26 33 99 100 100 100 100 44 5 0 1 0 5 2 5 5 3 5 5 0 4 0 0 0 0 0 0 0 0 5 5 0 24 24
0 0 0 0 0 5 6 5 6 6 5 5 5 4 0 0 2 4 3 0 0 0 0 3 3 0 5 6 5 1 0 0 0 3 0 0 0 0 0 0 0 43 5 23 47

GFSSW_prec_cloud_069.txt.gz
Cloud_Cover
0 0 0 0 1 0 0 1 6 19 3 9 16 17 9 28 0 0 0 0 0 0 0 0 0 0 0 0 2 68 87 100 100 100 100 100 85 100 100 100 100 64 97 100 100
0 0 0 1 5 9 4 7 4 8 10 8 27 20 17 13 0 0 0 0 0 0 0 0 0 0 3 0 4 100 92 55 53 100 89 100 100 100 100 100 100 100 100 100 100
0 0 5 5 6 2 11 8 1 4 8 10 98 24 16 0 0 0 0 0 0 0 0 0 0 0 0 0 0 94 76 8 13 87 83 97 100 100 100 100 100 100 100 100 100
0 11 12 12 5 7 6 9 3 5 5 17 79 0 7 0 0 0 0 0 0 0 0 0 0 0 0 0 5 95 29 42 96 93 100 100 100 100 100 100 100 100 100 87 52
0 12 15 30 11 5 10 1 4 4 0 9 36 0 0 0 0 0 0 0 0 0 0 0 0 0 0 0 2 97 69 5 5 8 81 98 100 100 100 100 100 100 66 98 100
16 10 21 16 14 11 4 9 2 8 0 1 23 13 0 0 0 0 0 0 0 0 0 0 0 0 0 0 28 23 7 5 5 5 26 95 100 100 100 100 100 100 99 100 97
15 20 40 14 11 0 0 0 2 0 0 1 2 0 0 0 0 0 0 0 0 0 0 0 0 0 0 0 6 0 0 0 0 5 59 100 100 100 100 100 100 100 100 86 100
14 20 17 6 1 0 1 0 0 0 0 0 6 0 0 0 0 0 0 0 0 0 0 0 0 0 0 0 0 0 0 0 0 5 5 54 98 71 100 100 100 99 100 97 99
30 45 8 2 0 0 0 0 0 0 0 0 1 0 0 0 0 0 0 0 0 0 0 0 0 0 0 0 0 0 0 0 0 5 5 9 93 100 89 78 98 100 69 91 89
18 3 0 0 0 3 4 0 0 0 1 0 0 0 0 0 0 0 0 0 0 0 0 0 0 0 0 0 0 0 0 0 5 22 55 21 46 58 9 85 78 98 100 99 96
0 0 0 0 10 38 60 0 0 0 0 0 0 0 0 0 0 0 0 0 0 0 0 0 0 0 0 0 0 0 0 4 5 5 3 2 4 5 97 21 36 83 95 100 96
0 0 0 15 33 22 61 0 0 0 0 0 0 0 0 0 0 0 0 0 0 0 0 0 0 0 0 0 0 0 0 5 77 43 0 0 42 5 66 99 98 95 99 99 100
0 5 29 24 11 1 0 0 0 0 0 0 0 0 0 0 0 0 0 0 0 0 0 0 0 0 0 0 0 0 0 69 51 5 0 0 98 90 7 30 60 57 78 98 100
1 20 26 80 0 0 0 0 0 5 5 0 2 0 0 0 0 0 0 0 0 0 0 0 0 0 0 0 0 0 0 9 3 1 0 0 4 76 5 5 50 39 40 100 100
5 23 19 58 5 0 3 5 5 42 89 5 8 6 0 0 0 0 0 0 0 0 0 0 0 0 0 0 0 0 0 0 0 0 0 0 0 12 92 100 82 5 62 100 84
0 9 70 13 3 0 5 46 100 98 100 72 28 32 4 0 0 0 0 0 0 0 0 0 0 0 0 0 0 0 0 0 0 0 0 0 0 0 100 100 100 26 98 74 61
0 0 85 0 0 37 100 100 100 98 79 91 100 100 66 5 2 0 0 0 0 0 0 0 0 0 0 0 0 0 0 0 0 0 0 0 0 0 100 84 95 62 10 95 21
0 0 1 0 0 0 100 78 84 99 94 50 15 25 82 67 5 0 0 0 0 0 0 0 0 0 0 0 0 0 0 0 0 0 0 0 0 0 0 59 10 45 40 74 86
0 2 0 5 4 7 99 33 23 82 93 76 97 73 5 84 31 5 0 0 0 0 0 0 0 0 0 0 0 0 0 0 0 0 0 0 0 0 2 0 0 0 0 3 4
0 2 2 5 41 14 100 100 96 75 48 93 88 47 5 49 97 47 0 0 0 0 0 0 0 0 0 0 0 0 0 0 0 0 0 0 0 0 0 0 0 0 0 0 0
1 5 84 5 95 80 100 100 100 100 100 64 58 100 94 100 96 100 98 63 12 0 0 0 0 0 0 0 0 0 0 0 0 0 0 0 0 0 0 0 0 0 0 0 0
0 3 21 95 80 100 100 100 100 100 100 100 96 81 99 95 48 77 100 15 91 46 5 4 1 0 0 0 0 0 0 0 0 0 0 0 0 0 0 0 0 0 0 0 0
0 0 36 95 100 97 100 100 100 95 95 100 100 100 100 59 3 45 68 72 100 100 100 43 24 24 0 0 0 0 0 0 0 0 0 0 0 0 0 0 0 49 23 0 0
0 0 0 71 100 62 70 100 100 100 100 100 76 9 2 5 0 0 23 96 100 100 100 100 100 100 81 5 2 0 0 0 0 0 0 0 0 0 20 98 18 23 50 63 11
0 0 0 0 98 100 95 29 100 100 100 100 100 99 96 11 0 0 0 10 91 53 23 45 55 100 100 47 5 5 5 0 0 0 0 0 0 0 78 66 42 0 45 97 58
0 0 0 0 0 99 100 100 100 100 97 100 100 100 100 99 5 0 3 5 2 2 27 62 60 79 100 100 90 5 5 4 0 0 0 0 0 0 0 0 0 0 0 29 97
0 0 0 0 0 0 20 48 52 90 90 5 41 98 99 84 50 5 0 0 2 0 0 0 9 24 74 100 100 100 7 5 1 0 0 0 0 0 0 0 59 5 0 10 30

GFSSW_prec_cloud_072.txt.gz
Cloud_Cover
0 0 0 0 0 1 6 0 4 8 13 16 19 28 88 98 31 22 0 0 0 0 0 0 0 0 0 0 3 5 86 100 98 100 100 100 100 100 100 100 100 67 100 100 96
0 3 4 2 25 3 9 11 1 1 3 11 21 28 23 98 7 0 0 0 0 0 0 0 0 0 0 0 18 89 39 100 100 100 100 100 100 100 100 98 50 99 100 100 100
0 2 8 7 4 6 3 11 8 0 5 14 23 60 0 3 0 0 0 0 0 0 0 0 0 0 0 0 34 100 14 86 100 100 100 100 100 100 100 100 100 91 99 100 100
7 8 82 19 6 11 8 9 6 9 8 16 79 12 0 0 0 0 0 0 0 0 0 0 0 0 0 0 17 89 25 51 6 52 100 95 86 95 100 100 100 100 43 100 100
6 10 61 77 8 16 9 7 13 12 6 18 98 9 0 0 0 0 0 0 0 0 0 0 0 0 0 0 6 90 5 6 5 5 99 30 100 98 100 100 100 100 96 35 100
36 42 39 13 4 13 9 13 8 19 15 2 95 39 0 0 0 0 0 0 0 0 0 0 0 0 0 0 12 27 4 15 5 5 44 9 52 100 100 100 100 99 99 99 98
100 79 43 36 5 9 10 10 9 14 16 0 72 11 0 0 0 0 0 0 0 0 0 0 0 0 0 0 0 0 1 3 5 5 5 72 84 13 100 69 100 100 100 98 94
100 81 14 12 4 13 27 34 19 13 15 0 57 8 0 0 0 0 0 0 0 0 0 0 0 0 0 0 0 0 1 4 5 5 5 49 99 100 100 100 100 95 94 76 100
62 10 3 4 35 92 84 29 7 0 0 27 3 0 0 0 0 0 0 0 0 0 0 0 0 0 0 0 0 0 0 0 0 5 5 23 34 44 100 100 100 100 76 97 98
5 78 4 22 75 100 84 0 6 0 1 3 0 0 0 0 0 0 0 0 0 0 0 0 0 0 0 0 0 0 0 0 0 2 5 5 6 14 94 99 78 93 92 51 99
5 45 19 100 100 100 57 0 0 0 0 0 0 0 0 0 0 0 0 0 0 0 0 0 0 0 0 0 0 0 0 0 0 5 5 5 5 5 100 100 100 99 100 45 87
53 71 92 100 100 86 44 0 0 0 0 0 0 0 0 0 0 0 0 0 0 0 0 0 0 0 0 0 0 0 0 1 5 5 5 0 27 0 50 100 100 89 8 23 98
66 59 100 100 11 1 0 0 0 1 1 0 0 0 0 0 0 0 0 0 0 0 0 0 0 0 0 0 0 0 0 3 25 5 3 0 0 14 6 42 78 97 66 38 83
51 98 100 100 0 0 0 0 4 82 45 3 4 5 1 0 0 0 0 0 0 0 0 0 0 0 0 0 0 0 0 2 99 6 4 0 0 0 38 9 8 73 100 72 90
100 100 100 94 11 0 0 5 60 82 100 56 92 76 5 4 0 0 0 0 0 0 0 0 0 0 0 0 0 0 0 11 87 65 5 0 0 0 2 3 68 100 72 8 5
100 90 100 27 3 0 0 98 99 100 98 99 100 92 68 73 64 0 0 0 0 0 0 0 0 0 0 0 0 0 0 4 24 80 3 0 0 0 16 80 96 100 100 58 5
100 58 92 0 0 0 64 79 81 100 25 71 77 100 100 100 100 19 0 0 0 0 0 0 0 0 0 0 0 0 0 0 15 6 0 0 0 0 22 99 97 100 94 37 5
40 4 2 0 0 1 89 64 94 100 99 93 100 81 100 100 100 100 1 0 0 0 0 0 0 0 0 0 0 0 0 0 0 0 0 0 0 0 3 97 100 100 94 38 9
0 0 3 0 3 2 65 100 100 100 100 96 100 100 100 99 98 100 37 0 0 0 0 0 0 0 0 0 0 0 0 0 0 0 0 0 0 0 0 100 18 92 96 85 6
0 0 6 5 5 19 86 86 100 100 100 97 100 100 100 100 65 100 100 24 0 0 0 0 0 0 0 0 0 0 0 0 0 0 0 0 0 0 0 1 70 56 47 92 42
5 0 4 60 5 21 100 100 100 100 100 100 100 100 100 100 100 100 100 99 5 0 0 0 0 0 0 0 0 0 0 0 0 0 0 0 0 0 4 66 100 100 100 78 9
0 0 1 100 5 74 100 100 100 100 100 100 100 100 100 100 100 100 100 100 100 99 40 4 0 0 0 0 0 0 0 0 0 0 0 0 0 0 88 95 100 100 100 100 34
0 0 0 78 73 60 100 100 100 100 82 88 99 100 82 95 100 100 100 100 100 100 100 100 77 2 0 0 0 0 0 0 0 0 0 0 0 0 2 1 81 100 100 100 99
0 0 0 0 87 43 100 100 100 100 100 100 94 58 87 32 13 80 100 100 100 100 100 100 72 0 0 0 0 0 0 0 0 0 0 0 0 0 28 60 1 96 100 100 100
0 0 0 0 6 99 89 98 100 100 100 100 100 100 25 21 55 87 100 100 100 100 100 100 100 100 18 0 0 0 0 0 0 0 0 0 0 0 69 83 11 6 68 95 100
0 0 0 0 0 33 61 92 69 100 100 100 100 100 94 26 2 0 0 20 94 100 99 100 100 100 100 65 12 5 2 0 0 0 0 0 0 0 6 0 0 0 0 30 61
0 0 0 0 0 0 9 31 91 88 96 100 90 100 100 100 95 34 3 1 0 6 97 100 100 100 100 96 24 5 5 5 5 0 0 0 0 0 0 2 0 0 0 0 0

GFSSW_prec_cloud_075.txt.gz
Cloud_Cover
0 6 6 5 11 9 7 6 5 5 6 19 13 100 28 73 42 3 0 0 0 0 0 0 0 0 0 0 8 16 100 100 100 84 100 88 100 100 100 61 97 100 100 92 82
4 9 11 7 12 14 9 11 11 13 10 8 22 99 20 99 0 0 0 0 0 0 0 0 0 0 1 6 34 58 56 100 93 42 100 100 100 100 100 65 55 100 60 79 98
12 26 10 6 11 10 14 16 13 12 8 12 25 100 2 17 0 0 0 0 0 0 0 0 0 0 0 24 35 55 14 55 100 100 100 100 100 90 90 70 7 94 100 100 98
8 78 12 16 2 12 7 11 14 7 16 20 24 91 0 0 0 0 0 0 0 0 0 0 0 0 0 39 77 30 5 8 58 70 100 100 100 100 100 99 84 100 100 100 89
100 100 99 94 72 26 6 17 14 16 18 19 16 78 0 0 0 0 0 0 0 0 0 0 0 0 0 0 29 48 5 5 30 59 100 100 97 100 100 99 96 100 100 100 100
100 100 95 68 37 0 10 14 22 33 23 25 27 36 0 0 0 0 0 0 0 0 0 0 0 0 0 0 25 5 1 5 4 5 31 24 18 91 100 97 99 96 96 96 68
94 14 62 64 5 0 54 99 43 17 23 16 82 4 0 0 0 0 0 0 0 0 0 0 0 0 0 0 0 14 2 5 5 5 5 9 18 27 74 52 48 18 92 68 5
67 29 17 70 95 100 100 90 58 96 66 1 50 2 0 0 0 0 0 0 0 0 0 0 0 0 0 0 0 0 1 4 5 5 6 60 75 95 100 92 100 70 84 98 99
62 10 20 97 100 100 100 16 5 0 12 52 3 0 0 0 0 0 0 0 0 0 0 0 0 0 0 0 0 5 4 4 9 5 60 20 16 100 100 100 100 100 100 99 99
0 4 95 100 100 100 35 8 23 10 31 3 0 0 0 0 0 0 0 0 0 0 0 0 0 0 0 0 0 0 0 2 5 3 77 51 5 85 44 100 100 100 99 100 52
0 40 100 100 100 100 17 0 0 0 0 0 0 0 0 0 0 0 0 0 0 0 0 0 0 0 0 0 0 0 0 0 4 2 50 5 5 67 85 96 100 100 70 64 77
21 100 100 100 100 100 22 0 0 0 0 0 0 0 0 0 0 0 0 0 0 0 0 0 0 0 0 0 0 0 0 0 4 5 7 76 5 5 50 97 98 100 96 16 97
65 100 100 100 42 31 0 0 0 0 0 0 0 0 0 0 0 0 0 0 0 0 0 0 0 0 0 0 0 0 0 3 3 2 5 6 5 23 37 97 99 46 64 40 78
100 100 100 100 0 0 0 0 0 5 0 1 4 14 2 2 0 0 0 0 0 0 0 0 0 0 0 0 0 0 0 3 2 3 5 0 0 5 17 39 68 85 68 29 6
100 100 100 98 0 0 0 0 4 93 84 22 92 68 5 8 0 0 0 0 0 0 0 0 0 0 0 0 0 0 0 1 5 5 3 0 0 0 76 54 100 100 81 25 6
100 100 100 30 0 0 0 0 56 84 79 84 100 100 69 13 33 4 0 0 0 0 0 0 0 0 0 0 0 0 0 0 2 3 0 0 0 0 1 5 27 75 61 14 32
98 77 71 0 0 0 2 39 93 100 88 100 100 100 100 100 100 91 3 0 0 0 0 0 0 0 0 0 0 0 0 0 2 0 2 0 0 0 0 5 37 100 91 17 26
56 6 4 0 0 0 2 64 100 99 100 100 100 100 100 93 98 100 100 3 0 0 0 0 0 0 0 0 0 0 0 0 0 0 0 0 0 0 0 8 99 100 80 33 5
6 1 0 0 0 0 2 100 100 100 100 100 100 100 100 86 100 100 100 97 0 0 0 0 0 0 0 0 0 0 0 0 0 0 0 0 0 0 0 0 41 93 100 59 7
1 0 0 0 5 2 68 82 100 100 100 99 100 92 95 52 96 98 100 100 52 0 0 0 0 0 0 0 0 0 0 0 0 0 0 0 0 0 17 87 100 100 100 100 95
2 0 0 0 13 25 86 100 100 98 100 100 100 100 100 100 100 100 100 100 100 24 0 0 0 0 0 0 0 0 0 0 0 0 0 0 0 12 100 100 100 100 100 100 100
3 0 0 0 9 83 100 100 100 100 100 100 100 100 100 100 100 100 100 100 100 100 3 0 0 0 0 0 0 0 0 0 0 0 0 0 0 32 88 100 100 100 100 100 100
0 0 0 0 1 93 74 92 100 100 100 100 100 100 89 100 100 100 100 100 100 100 100 2 0 0 0 0 0 0 0 0 0 0 0 0 0 0 4 40 100 100 100 100 100
0 0 0 0 0 52 100 88 100 100 86 72 69 97 88 100 100 100 100 100 100 100 100 47 1 0 0 0 0 0 0 0 0 0 0 0 0 0 0 0 8 57 91 100 100
0 0 0 0 0 2 100 100 99 100 100 100 78 7 76 100 98 96 100 100 100 100 100 100 99 7 0 0 0 0 0 0 0 0 0 0 0 0 4 7 0 2 10 61 100
0 0 0 0 0 0 4 79 100 100 100 100 100 100 6 5 11 95 100 100 98 100 100 100 100 100 100 65 5 0 0 0 0 0 0 0 0 0 10 6 0 0 0 0 1
0 0 0 0 0 0 0 4 44 83 100 100 100 100 98 66 5 24 84 100 100 100 100 100 100 97 90 93 99 99 12 0 0 0 0 0 0 0 0 0 0 0 0 0 0

GFSSW_prec_cloud_078.txt.gz
Cloud_Cover
12 11 12 15 19 15 64 70 14 15 11 17 4 1 6 0 0 0 0 0 0 0 0 0 0 6 5 33 47 98 100 100 100 94 89 100 100 100 100 93 75 79 89 29 24
10 19 17 20 9 10 25 62 79 7 13 21 17 0 5 0 0 0 0 0 0 0 0 0 0 0 0 1 50 83 100 100 99 79 100 100 100 100 100 100 99 85 80 70 57
74 4 17 7 19 15 16 16 10 53 9 24 10 0 0 5 0 0 0 0 0 0 0 0 0 0 0 7 39 63 100 100 100 95 50 70 100 100 100 85 48 63 100 19 78
100 100 100 99 36 19 18 13 13 13 34 16 21 0 0 0 0 0 0 0 0 0 0 0 0 0 0 5 12 4 22 37 100 100 91 97 61 97 82 48 68 67 100 28 100
100 97 48 20 11 13 15 12 21 17 10 0 20 2 16 0 0 0 0 0 0 0 0 0 0 0 0 62 100 15 24 70 53 100 100 100 100 100 99 78 33 100 89 60 93
15 15 11 35 15 7 6 73 100 55 19 11 12 1 0 0 0 0 0 0 0 0 0 0 0 0 0 37 96 14 13 17 34 80 57 100 100 100 86 97 100 95 42 88 11
99 73 94 77 56 99 100 95 40 90 54 0 16 1 0 0 0 0 0 0 0 0 0 0 0 0 0 0 0 1 5 5 5 7 5 94 41 98 93 79 100 98 12 54 61
100 100 100 100 100 100 100 20 30 30 92 0 5 0 0 0 0 0 0 0 0 0 0 0 0 0 0 0 0 2 4 39 9 9 5 29 39 82 96 32 100 94 34 68 100
100 76 100 100 100 100 71 97 54 7 2 8 2 0 0 0 0 0 0 0 0 0 0 0 0 0 0 0 0 0 34 45 4 5 5 31 26 100 83 56 94 62 6 90 100
4 100 100 100 100 100 2 4 12 0 0 0 0 0 0 0 0 0 0 0 0 0 0 0 0 0 0 0 0 5 40 4 65 5 26 65 37 67 100 100 96 100 90 95 94
52 100 100 100 100 84 1 0 0 0 0 0 0 0 0 0 0 0 0 0 0 0 0 0 0 0 0 0 4 20 20 32 6 3 64 97 52 7 100 100 100 100 100 99 29
100 100 100 100 99 26 7 5 11 8 0 0 0 0 0 0 0 0 0 0 0 0 0 0 0 0 0 0 0 0 4 4 0 0 13 66 58 91 100 79 100 100 96 100 90
100 100 100 84 6 30 0 2 1 5 2 0 0 0 0 0 0 0 0 0 0 0 0 0 0 0 0 0 0 0 4 4 4 0 0 4 71 71 79 98 98 100 100 100 100
100 99 100 1 47 0 0 0 0 0 0 0 0 0 0 0 0 0 0 0 0 0 0 0 0 0 0 0 0 0 0 8 0 1 16 17 95 60 97 82 100 99 78 98 100
100 100 91 64 0 0 0 0 0 0 0 0 1 0 0 2 0 0 0 0 0 0 0 0 0 0 0 0 0 4 0 0 1 0 0 2 85 10 58 77 94 100 100 52 100
100 100 38 28 0 0 0 0 0 34 99 27 38 1 3 95 7 0 0 0 0 0 0 0 0 0 0 0 0 0 0 0 5 0 0 5 65 2 28 5 84 78 100 100 100
100 66 44 0 0 0 0 0 55 100 11 86 100 90 100 100 95 5 2 4 1 0 0 0 0 1 15 1 0 0 0 0 1 0 0 3 4 4 2 10 86 100 64 100 96
88 34 1 0 0 0 0 27 100 63 100 7 100 100 100 100 100 100 74 87 5 0 2 1 0 0 0 0 0 0 0 0 3 0 0 0 2 0 4 24 65 61 56 96 100
36 0 0 0 0 0 0 100 13 100 41 100 100 100 100 100 100 100 98 85 32 0 81 92 3 0 0 0 0 0 0 17 5 5 4 0 0 0 0 7 88 100 94 90 84
0 0 0 0 0 4 96 97 95 81 100 100 100 100 100 100 100 100 96 100 99 41 22 79 6 0 0 0 0 0 0 0 0 2 4 3 0 0 0 28 100 100 100 90 50
0 0 0 0 0 5 93 100 100 100 100 100 100 100 100 100 96 100 100 100 100 100 2 0 1 0 0 0 0 0 0 0 0 0 1 5 12 0 35 100 100 100 100 100 98
0 0 0 0 4 12 94 69 100 98 98 100 100 100 100 100 100 100 100 100 100 100 94 5 2 0 0 0 0 0 0 0 0 0 0 51 2 11 18 100 100 100 100 100 100
0 0 0 0 5 85 100 100 100 100 100 96 100 100 100 100 96 99 97 100 100 100 100 11 3 0 0 0 0 0 0 0 0 0 3 0 1 1 29 56 100 100 100 100 100
3 0 0 0 0 2 100 90 83 100 100 100 100 100 100 100 100 100 100 60 63 100 100 99 19 1 2 0 0 0 0 0 0 1 21 2 0 18 20 24 35 87 100 100 100
0 1 0 0 0 0 83 100 82 100 91 100 100 100 100 100 100 100 100 87 100 72 100 100 25 3 0 0 0 0 0 0 0 0 5 14 0 4 8 0 11 28 46 76 99
4 2 0 0 0 0 2 73 100 66 92 100 51 100 100 100 100 100 100 100 100 100 100 100 100 100 6 0 0 0 0 0 0 0 0 0 0 18 0 0 0 0 0 0 0
5 2 0 0 0 0 0 3 86 100 90 100 74 100 18 28 68 100 97 74 48 72 100 81 100 100 100 100 26 0 0 0 0 0 0 0 0 0 0 0 0 0 0 0 0

GFSSW_prec_cloud_081.txt.gz
Cloud_Cover
15 13 19 17 16 20 18 16 17 12 20 11 9 0 0 0 0 0 0 0 0 0 14 0 0 0 53 100 88 91 62 98 82 60 97 83 100 100 93 100 80 77 31 34 58
16 14 27 19 17 14 18 18 17 16 11 18 12 9 0 1 0 0 0 0 0 0 0 0 0 0 4 96 89 98 40 90 100 72 80 99 100 100 100 99 100 66 95 74 8
97 100 100 38 25 15 15 15 15 15 7 0 1 0 0 5 0 0 0 0 0 0 0 0 0 0 5 87 92 100 78 100 100 86 95 90 100 100 99 98 62 33 93 83 12
97 72 8 11 16 18 9 18 18 16 21 0 0 0 0 0 0 0 0 0 0 0 0 0 0 0 70 68 100 98 70 100 100 41 85 69 100 100 100 96 100 58 44 81 5
12 7 2 3 10 10 18 13 33 83 12 8 0 0 0 0 0 0 0 0 0 0 0 0 0 0 38 92 5 88 100 21 100 99 91 96 33 100 100 88 100 60 52 32 13
100 100 100 40 10 28 91 100 71 23 14 11 0 0 0 0 0 0 0 0 0 0 0 0 0 0 24 29 82 89 74 92 33 100 100 99 100 100 100 98 100 40 53 93 7
100 100 100 52 100 100 100 92 14 76 99 7 0 1 0 0 0 0 0 0 0 0 0 0 0 0 0 62 95 69 38 33 27 36 100 100 100 100 100 100 100 100 45 100 16
92 8 68 23 12 100 93 5 0 21 44 6 2 0 0 0 0 0 0 0 0 0 0 0 0 0 0 14 42 10 72 97 32 41 68 81 100 100 95 98 100 100 86 80 93
13 6 19 100 99 90 67 0 19 0 1 0 2 0 0 0 0 0 0 0 0 0 0 0 0 0 0 0 1 1 69 92 37 34 18 94 88 100 99 86 51 100 99 96 85
99 100 37 100 90 38 6 0 0 48 0 0 0 0 0 0 0 0 0 0 0 0 0 0 0 0 0 0 2 5 56 82 74 32 8 100 80 62 93 40 60 98 100 99 45
100 100 100 100 100 85 96 85 34 5 0 0 0 0 0 0 0 0 0 0 0 0 0 0 0 0 0 0 7 97 16 100 90 31 97 70 100 5 100 100 100 100 100 93 48
100 100 100 100 94 100 57 22 2 4 3 0 0 0 0 0 0 0 0 0 0 0 0 0 0 0 0 1 5 0 100 88 44 100 76 100 97 10 19 100 100 94 98 90 100
79 67 64 17 5 33 89 100 100 84 13 5 0 0 0 0 0 0 0 0 0 0 0 0 0 0 0 0 4 3 100 94 2 4 3 32 60 100 33 85 100 100 100 97 43
100 100 40 0 54 0 0 6 30 87 31 5 18 4 0 0 0 0 0 0 0 0 0 0 0 0 0 0 1 5 5 100 39 5 5 4 62 92 20 58 67 100 91 87 100
56 63 94 81 0 0 0 0 0 0 0 0 3 20 2 5 0 0 0 0 0 0 0 0 0 0 0 1 1 4 12 58 96 0 100 69 65 81 99 89 42 100 90 46 26
100 100 96 0 0 0 0 0 0 1 71 79 0 0 0 0 4 4 0 1 0 0 0 0 0 0 0 0 1 4 58 14 48 3 5 24 23 88 100 97 14 96 77 84 99
100 100 51 0 1 0 0 0 53 88 88 98 57 15 50 5 64 16 0 5 5 2 0 0 0 3 0 3 4 8 82 55 16 1 4 3 100 6 100 15 90 51 100 100 24
53 53 1 0 0 0 0 44 95 100 100 35 9 100 94 100 100 29 65 41 8 18 2 3 56 15 4 4 4 5 3 5 4 4 4 77 96 42 11 47 20 62 78 100 100
40 4 2 0 0 0 5 97 99 72 24 99 59 100 100 100 100 100 100 90 98 69 66 32 97 94 53 25 45 9 2 2 75 20 7 46 5 7 29 43 81 78 19 90 100
9 5 5 0 0 0 88 51 98 5 5 87 100 100 100 83 100 100 100 86 84 34 6 98 100 4 0 0 3 22 3 7 22 98 93 88 1 18 1 41 100 100 100 66 33
12 7 0 0 0 26 100 100 14 94 88 100 100 100 99 100 100 80 100 70 9 77 55 91 100 3 0 0 0 0 0 10 79 94 100 100 74 0 0 70 98 100 100 100 100
7 51 0 0 61 56 100 58 56 100 100 100 100 98 100 69 100 100 100 96 49 100 99 86 100 15 0 0 0 4 5 5 6 6 94 100 95 73 5 32 91 100 100 100 100
6 3 0 0 100 100 100 45 44 100 100 100 100 100 100 100 99 95 64 88 100 100 96 89 6 99 4 0 0 0 0 4 35 98 67 86 52 49 21 61 59 100 100 100 83
12 15 2 0 0 3 76 89 74 98 100 100 100 100 100 100 100 62 100 100 86 100 100 100 92 100 76 11 0 0 0 0 4 6 93 93 5 44 32 13 75 100 100 100 100
9 4 2 7 0 0 7 100 46 82 99 99 100 100 100 100 100 100 100 87 98 87 93 100 100 80 1 0 2 4 0 0 0 2 98 100 30 7 8 26 18 37 100 100 100
12 7 0 0 0 0 0 61 100 66 34 28 99 100 100 100 100 100 100 100 100 100 100 70 100 93 5 0 0 0 0 0 0 0 76 100 100 100 35 9 0 0 0 0 2
10 56 0 0 0 4 0 1 98 97 100 5 6 58 92 100 100 100 100 100 100 100 100 100 100 17 100 13 0 0 0 0 0 0 2 99 85 18 18 0 0 0 0 0 0

GFSSW_prec_cloud_084.txt.gz
Cloud_Cover
37 19 16 12 12 13 16 11 11 11 13 7 3 0 0 0 0 0 0 0 0 0 0 0 0 0 61 100 84 100 100 100 100 77 81 54 100 87 100 100 100 75 0 6 0
100 100 98 23 21 11 14 17 17 12 8 7 2 0 0 0 0 0 0 0 0 0 0 0 0 13 72 97 96 100 100 100 100 68 100 66 97 100 100 100 99 22 4 54 1
14 15 25 11 9 17 1 7 18 18 8 16 6 0 0 0 0 0 0 0 0 0 0 0 0 6 100 76 89 97 100 96 100 26 96 100 99 100 100 99 100 12 5 4 91
16 14 14 4 1 4 17 12 0 17 20 8 16 0 0 0 0 0 0 0 0 0 0 0 0 10 24 83 10 100 97 96 99 21 100 80 100 100 100 100 100 27 24 4 11
100 100 96 83 13 15 14 26 44 20 18 10 0 0 0 0 0 0 0 0 0 0 0 0 0 1 21 83 38 99 93 76 5 20 58 68 79 100 100 100 89 97 56 7 5
100 100 100 100 35 30 85 100 92 16 27 9 1 0 0 0 0 0 0 0 0 0 0 0 0 0 100 60 20 100 48 96 29 96 88 48 96 100 100 100 90 100 74 5 5
100 100 71 52 100 98 41 100 21 14 92 96 13 0 0 0 0 0 0 0 0 0 0 0 0 11 16 99 5 100 77 94 78 51 75 100 98 95 99 86 98 100 48 17 16
1 15 54 32 55 96 38 3 0 44 34 12 9 0 0 0 0 0 0 0 0 0 0 0 0 0 0 74 38 84 89 100 99 22 100 100 100 100 100 81 87 100 39 23 33
19 80 16 0 0 20 0 0 0 74 2 10 0 0 0 0 0 0 0 0 0 0 0 0 0 0 0 9 73 98 77 20 79 22 18 72 100 100 100 99 86 98 94 59 15
100 98 0 4 18 11 0 0 0 17 17 0 0 0 0 0 0 0 0 0 0 0 0 0 0 0 0 2 9 5 22 99 61 34 91 52 30 100 100 100 84 100 94 94 44
53 49 47 45 86 0 2 1 0 2 0 0 0 0 0 0 0 0 0 0 0 0 0 0 0 0 0 0 2 7 3 100 86 64 23 38 4 95 100 100 100 87 97 68 45
100 95 100 14 0 4 6 27 7 5 5 4 0 0 0 0 0 0 0 0 0 0 0 0 0 0 0 0 0 6 100 99 5 98 100 8 81 96 51 86 100 84 95 44 70
100 100 74 0 5 39 2 40 100 100 5 15 5 3 0 0 0 0 0 0 0 0 0 0 0 0 0 0 0 1 82 48 83 100 16 100 13 99 100 96 89 100 100 100 66
100 100 93 6 22 0 0 3 7 100 100 34 14 5 0 0 0 0 0 0 0 0 0 0 0 0 0 0 0 0 10 92 98 100 78 100 85 100 100 99 8 100 100 100 100
100 100 100 90 0 0 0 0 0 0 58 100 61 5 5 2 0 0 0 0 0 0 0 0 0 0 0 0 0 4 98 72 100 100 33 100 98 100 98 91 58 100 100 100 100
53 100 98 5 5 0 0 0 0 0 54 85 68 100 47 2 2 2 0 0 0 5 0 0 0 0 0 0 0 0 64 83 81 7 5 47 100 98 17 15 100 26 100 100 100
5 15 45 84 5 0 0 0 15 33 24 27 80 2 38 98 1 4 4 2 1 2 0 0 0 0 0 0 2 2 15 52 29 18 5 25 98 78 11 10 65 47 97 100 100
5 76 96 16 4 0 0 21 71 75 70 7 33 54 5 19 60 5 37 5 4 5 2 0 0 0 5 0 1 4 4 13 23 17 17 3 99 0 47 100 100 83 79 100 100
87 100 95 6 0 0 27 89 93 99 98 46 2 1 100 100 96 100 93 6 8 7 13 13 0 11 5 5 28 6 0 58 100 20 13 34 4 97 49 100 100 96 94 96 100
100 100 89 5 0 0 52 100 100 100 0 22 100 74 100 98 100 98 90 97 91 100 86 100 13 100 28 32 30 96 2 4 12 100 100 22 0 0 3 100 100 100 100 100 99
100 100 89 1 0 88 100 100 100 60 3 68 66 47 82 95 69 50 100 54 100 27 66 98 2 18 96 0 7 3 30 2 3 99 100 100 33 99 12 21 100 100 100 100 100
88 100 73 5 3 100 100 9 19 100 100 99 62 99 100 100 89 63 100 15 100 77 88 100 88 64 21 5 1 85 60 5 5 0 45 70 100 24 28 100 100 100 100 100 100
100 100 5 7 68 100 100 30 32 100 92 99 100 100 91 94 100 100 99 97 98 100 100 60 71 80 100 25 1 0 4 18 27 9 95 83 68 100 80 44 78 100 91 100 100
100 100 64 14 5 54 98 100 44 100 97 100 100 100 100 97 62 100 98 100 40 32 100 100 100 93 84 65 24 0 2 14 57 40 80 100 22 72 88 99 86 100 100 100 100
100 92 9 90 43 3 0 99 68 85 87 100 100 100 100 100 100 100 100 99 5 44 100 100 100 100 100 100 31 0 0 14 4 1 100 100 16 33 26 78 86 53 95 81 100
100 94 3 100 1 5 0 23 100 3 94 100 100 100 100 100 100 100 94 100 23 58 84 43 100 100 100 84 1 6 3 4 0 0 87 39 100 95 100 95 80 30 2 0 0
100 49 7 100 24 87 6 0 44 94 11 57 100 100 100 100 100 100 100 100 85 89 100 99 40 69 8 1 0 3 16 0 0 32 73 9 100 66 3 17 28 0 0 0 0

GFSSW_prec_cloud_087.txt.gz
Cloud_Cover
94 88 43 23 18 7 17 21 13 14 19 19 18 13 0 0 0 0 0 0 0 0 0 0 0 1 6 5 95 100 100 100 100 90 100 86 87 69 67 92 60 37 1 2 0
19 18 21 11 11 14 15 13 16 12 16 16 23 16 0 0 0 0 0 0 0 0 0 0 0 0 4 37 100 100 100 100 100 100 86 96 85 100 47 98 15 12 5 10 0
99 96 95 87 7 8 10 10 11 18 23 2 13 23 0 0 0 0 0 0 0 0 0 0 0 2 4 70 74 100 100 100 100 100 100 96 100 99 87 99 99 1 62 1 2
100 100 100 100 42 11 15 10 19 17 22 20 6 13 0 0 0 0 0 0 0 0 0 0 0 0 88 100 100 100 96 100 100 80 37 96 99 99 100 100 100 73 10 7 0
100 100 100 83 14 77 41 34 99 100 15 25 23 7 0 0 0 0 0 0 0 0 0 0 0 0 24 95 41 62 76 100 100 100 87 80 100 100 100 100 100 100 20 6 68
100 100 100 63 96 96 100 100 98 40 70 100 52 0 0 0 0 0 0 0 0 0 0 0 0 0 93 100 28 95 92 91 100 100 7 21 76 100 100 100 100 100 54 42 71
9 100 100 100 100 100 100 99 4 5 96 100 94 0 0 0 0 0 0 0 0 0 0 0 0 2 100 81 82 93 37 100 46 100 85 19 100 100 100 100 100 82 33 62 7
22 100 100 100 86 85 54 0 0 3 94 51 31 0 0 0 0 0 0 0 0 0 0 0 0 4 4 41 73 88 84 100 9 71 18 5 94 100 97 37 65 100 44 42 100
100 100 100 100 86 72 3 0 0 0 53 0 6 0 0 0 0 0 0 0 0 0 0 0 0 0 0 1 12 11 84 10 44 24 68 42 83 100 100 95 73 100 66 35 100
100 100 100 58 100 88 0 0 0 0 25 0 0 0 0 0 0 0 0 0 0 0 0 0 0 0 0 0 0 5 5 37 100 24 20 91 100 100 100 100 75 100 100 46 100
100 100 100 100 0 0 0 0 0 0 0 0 0 0 0 0 0 0 0 0 0 0 0 0 0 0 0 0 0 0 39 45 100 100 90 95 100 100 78 99 100 100 100 100 97
100 100 98 100 0 4 22 0 0 0 0 0 0 0 0 0 0 0 0 0 0 0 0 0 0 0 0 0 0 2 100 98 100 100 86 75 86 86 98 98 88 100 84 100 99
100 100 100 100 14 21 0 0 0 0 2 3 2 0 0 0 0 0 0 0 0 0 0 0 0 0 0 0 0 5 100 88 100 100 90 100 100 100 54 89 53 100 100 100 100
100 100 100 100 16 2 2 0 0 0 51 67 64 13 2 0 0 0 0 0 0 0 0 0 0 0 0 0 0 5 12 92 67 100 73 100 100 100 100 96 19 96 100 100 100
25 84 100 97 5 44 63 6 0 0 0 52 100 90 6 5 0 0 0 0 0 0 0 0 0 0 0 0 0 0 12 100 100 99 100 100 100 100 100 30 56 92 100 100 100
5 83 93 32 9 54 59 74 4 0 1 28 60 100 100 18 5 5 0 0 0 0 0 0 0 0 0 0 0 0 16 40 94 27 97 60 100 97 96 98 100 100 72 100 100
7 95 86 40 92 85 6 1 1 2 0 82 96 47 100 98 13 2 45 0 0 0 0 0 0 0 0 0 0 0 67 49 97 100 5 31 98 92 89 90 100 100 86 92 100
5 79 98 94 21 9 29 3 39 8 81 6 39 4 9 100 100 25 99 1 0 0 0 0 0 0 0 0 0 0 67 94 20 100 92 92 88 98 100 93 100 58 100 80 100
43 88 100 79 5 5 0 5 40 20 83 100 6 98 5 10 100 100 100 15 0 0 0 5 0 0 0 0 0 0 3 14 100 99 54 2 22 98 59 76 100 100 100 100 97
98 98 41 83 85 3 3 17 36 94 37 78 4 63 2 5 12 70 97 88 74 5 5 40 4 0 0 2 0 0 3 9 44 5 88 5 16 70 65 79 100 100 99 100 100
100 92 58 100 95 5 60 26 52 44 98 100 88 85 2 8 97 36 100 86 100 8 5 100 5 0 30 12 0 0 2 0 5 30 29 97 87 17 4 9 36 100 100 100 100
89 34 29 100 1 4 39 100 100 99 62 100 74 88 78 100 97 32 76 100 88 5 95 14 5 1 7 7 13 5 5 0 5 18 100 100 97 100 100 82 99 100 100 100 100
17 72 100 54 32 7 95 100 100 100 96 77 69 96 98 51 100 100 80 100 88 78 99 5 43 13 3 93 52 77 59 5 0 52 91 100 97 75 98 100 100 100 100 100 100
97 100 100 93 100 32 81 96 99 1 94 99 100 100 100 100 100 100 100 90 100 50 52 95 89 52 82 29 98 100 40 2 0 1 98 95 96 100 58 100 98 100 100 100 100
100 100 100 88 19 7 1 30 77 98 92 96 100 100 100 100 100 100 100 100 100 100 100 98 100 46 86 100 50 3 7 3 63 6 100 16 21 100 82 100 100 100 100 100 100
88 100 95 48 36 62 14 2 100 92 61 86 100 8 47 86 68 76 100 100 100 100 100 100 100 100 100 100 13 0 0 0 99 90 72 5 12 100 18 100 100 100 100 100 100
100 100 82 30 99 33 8 0 5 96 6 94 100 96 76 100 100 100 100 100 100 100 100 100 100 100 100 100 89 100 100 92 100 100 5 0 13 98 92 82 100 90 78 96 100

GFSSW_prec_cloud_090.txt.gz
Cloud_Cover
100 41 23 7 7 11 25 15 10 16 19 46 20 15 16 0 0 0 0 0 0 0 0 0 2 5 26 15 85 100 100 100 100 100 100 98 89 100 51 38 3 0 0 0 0
100 100 100 100 41 10 29 20 11 17 13 33 23 20 19 2 6 0 0 0 0 0 0 0 0 5 49 33 24 100 100 100 100 100 99 100 100 56 81 100 5 5 20 4 2
100 100 100 100 100 100 96 19 71 22 61 14 22 22 3 0 0 0 0 0 0 0 0 0 0 1 43 95 94 95 100 100 100 100 100 100 100 100 97 100 40 5 0 0 0
100 100 100 100 99 92 6 100 100 35 98 74 20 20 0 0 0 0 0 0 0 0 0 0 0 0 0 3 51 95 100 100 100 100 99 100 100 100 100 63 100 5 4 4 1
100 49 100 100 100 100 100 97 100 100 100 87 100 8 0 0 0 0 0 0 0 0 0 0 0 0 2 2 4 97 100 100 100 94 100 100 100 100 100 100 68 72 5 5 1
19 92 100 100 100 100 100 100 100 100 67 100 100 11 0 0 0 0 0 0 0 0 0 0 0 0 0 45 44 80 100 100 100 95 100 100 100 100 89 100 92 98 75 5 5
98 100 100 100 100 100 100 100 24 24 46 100 100 4 0 0 0 0 0 0 0 0 0 0 19 0 0 96 81 100 100 100 100 100 100 100 98 79 100 100 100 100 100 66 52
100 100 100 100 100 100 100 68 20 12 96 100 75 0 0 0 0 0 0 0 0 0 0 0 62 0 0 1 22 100 100 100 100 93 91 38 89 100 100 100 94 100 100 35 46
100 100 100 100 100 100 48 0 4 0 80 22 1 0 0 0 0 0 0 0 0 0 0 0 0 0 0 0 1 77 99 100 100 100 87 48 100 100 100 100 100 100 100 89 24
100 100 100 100 100 30 0 0 0 0 4 0 0 0 0 0 0 0 0 0 0 0 0 0 0 0 0 0 0 25 28 38 71 100 93 88 100 100 100 100 98 36 100 100 100
100 100 100 100 100 3 2 0 0 0 0 0 0 0 0 0 0 0 0 0 0 0 0 0 0 0 0 0 0 4 7 100 100 100 100 100 77 97 100 100 100 100 100 90 97
100 100 100 100 100 85 54 0 0 0 0 0 0 0 0 0 0 0 0 0 0 0 0 0 0 0 0 0 0 4 49 99 95 100 100 100 100 99 100 100 100 100 91 46 100
82 100 100 100 98 48 1 0 0 0 0 0 0 0 0 0 0 0 0 0 0 0 0 0 0 0 0 0 0 1 100 74 86 99 100 100 100 100 100 100 100 98 100 98 55
35 94 100 55 10 49 95 3 5 8 1 0 0 0 2 0 0 0 0 0 0 0 0 0 0 0 0 0 0 0 75 95 19 76 100 100 100 100 100 100 100 100 100 100 100
22 29 100 100 90 100 97 56 22 65 20 3 0 0 0 5 0 0 0 0 0 0 0 0 0 0 0 0 0 0 100 100 100 61 99 100 100 100 100 100 100 96 95 100 100
95 100 100 100 100 91 44 100 96 100 11 58 5 5 5 16 5 4 0 0 0 0 0 0 0 0 0 0 0 1 100 100 99 100 82 100 100 100 100 100 100 94 88 80 100
83 99 100 100 100 12 5 94 100 100 6 28 30 4 76 52 83 5 4 1 0 0 0 0 0 0 0 0 0 0 96 80 21 5 100 99 86 100 99 100 97 79 7 77 98
8 100 58 100 100 40 5 5 9 11 10 5 5 40 4 96 48 59 5 3 0 0 0 0 0 0 0 0 0 0 89 60 24 2 36 99 12 100 100 100 100 99 69 100 62
100 82 80 100 92 22 100 3 0 5 3 3 3 0 3 4 92 99 87 15 0 5 0 0 0 0 0 0 0 0 38 54 12 6 99 5 22 44 100 96 100 100 100 100 100
99 18 95 61 5 95 93 0 2 5 5 4 2 0 0 0 16 100 100 100 16 36 0 0 0 0 0 0 0 0 7 79 5 44 96 20 13 5 100 100 100 100 92 99 100
92 51 100 79 5 78 14 5 28 5 5 5 5 0 1 0 0 60 100 100 100 29 4 0 0 0 0 0 0 0 0 8 3 52 94 67 40 44 58 100 100 100 88 95 98
93 22 45 78 97 96 5 2 54 9 86 6 5 5 3 0 0 3 93 100 100 63 5 5 5 0 0 0 0 0 0 0 5 64 99 100 98 99 26 100 100 99 100 100 100
71 100 90 7 100 20 2 20 100 100 100 17 28 5 2 3 0 3 84 14 95 100 100 51 50 2 0 0 1 0 0 1 4 99 92 100 90 100 91 56 100 89 100 100 100
82 99 78 100 71 0 15 14 100 98 97 73 84 96 89 59 76 100 62 99 100 96 100 84 21 5 0 4 4 0 7 35 5 5 30 41 100 100 98 84 100 100 100 100 100
44 70 7 66 23 2 0 0 2 13 8 39 98 63 99 70 100 100 100 88 76 100 26 100 100 36 4 5 4 6 23 47 10 5 77 89 97 82 98 58 98 94 100 100 100
99 26 34 5 0 0 5 0 92 5 3 14 100 100 100 100 100 100 100 91 68 100 73 59 100 100 96 5 5 0 16 40 68 100 37 19 100 99 4 14 60 100 100 100 100
100 90 48 5 0 11 3 0 0 1 0 70 99 64 99 100 100 94 100 100 100 99 98 60 99 100 100 68 14 16 100 100 100 54 6 83 23 28 5 8 31 87 95 99 99

GFSSW_prec_cloud_093.txt.gz
Cloud_Cover
100 100 100 100 100 65 19 5 10 89 100 86 22 38 20 15 0 0 0 0 0 0 0 0 5 44 51 100 100 100 100 91 84 100 100 91 93 100 15 0 0 0 0 0 0
100 100 100 100 100 100 71 4 23 7 68 100 71 18 29 18 10 0 0 0 0 0 0 0 3 5 37 99 93 99 100 94 100 100 100 100 76 88 39 30 0 0 0 0 0
100 100 100 100 100 100 98 55 100 100 34 56 100 35 20 23 0 0 0 0 0 0 0 0 0 5 5 75 10 77 100 100 100 100 100 100 75 98 72 66 9 5 0 0 5
100 100 100 100 100 100 100 100 100 100 91 15 18 90 15 17 0 0 0 0 2 0 0 0 0 0 5 5 11 100 100 100 100 100 100 99 96 96 96 74 43 5 1 0 0
23 74 100 100 100 100 100 100 100 100 100 61 2 96 3 0 0 0 0 0 2 0 0 0 0 2 5 6 5 100 100 100 100 98 100 100 100 100 100 100 14 23 83 1 4
100 100 100 100 100 100 100 100 100 100 100 83 58 1 1 0 0 0 0 0 0 0 0 0 0 0 4 5 37 100 100 100 100 100 100 100 100 100 100 100 24 26 26 71 0
100 100 100 100 100 100 100 100 100 100 100 100 100 0 0 0 0 0 0 0 0 0 1 0 0 0 0 5 24 100 100 100 100 100 100 100 100 100 100 98 100 28 7 68 5
100 100 100 100 100 100 100 61 38 70 100 100 96 1 0 0 0 0 0 0 0 0 0 0 33 86 6 0 10 100 100 100 100 100 100 100 100 100 100 100 100 37 5 1 0
100 100 100 100 98 83 10 20 22 19 80 84 4 0 0 0 0 0 0 0 0 0 0 0 1 86 0 0 15 98 96 100 100 100 100 100 100 100 100 100 94 97 18 12 0
100 100 100 100 100 94 32 2 0 0 1 0 0 0 0 0 0 0 0 0 0 0 0 0 11 16 0 0 6 45 87 100 100 98 100 100 100 100 100 100 99 100 81 8 28
100 100 100 100 100 100 24 0 0 0 0 0 0 0 0 0 0 0 0 0 0 0 0 0 0 0 0 0 0 0 66 98 100 100 100 100 100 100 100 98 100 100 46 5 5
37 100 100 100 100 100 71 0 0 0 0 0 0 0 0 0 0 0 0 0 0 0 0 0 0 0 0 0 1 1 100 95 100 100 100 100 100 100 100 100 100 100 100 29 7
23 48 100 90 94 60 4 17 4 2 0 0 0 0 0 0 0 0 0 0 0 0 0 0 0 0 0 0 0 4 100 100 100 100 100 100 100 100 100 100 100 100 100 98 82
2 25 100 22 35 90 100 99 98 96 11 1 0 0 0 0 0 0 0 0 0 0 0 0 0 0 0 0 0 1 71 100 100 100 100 100 100 100 100 100 100 100 100 100 34
20 99 57 98 100 100 100 100 100 100 78 6 3 0 0 0 0 0 0 0 0 0 0 0 0 0 0 0 0 2 100 96 88 78 58 100 99 100 100 100 100 100 82 100 65
5 10 94 94 100 100 100 100 100 100 100 100 99 23 0 0 0 0 0 0 0 0 0 0 0 0 0 0 0 66 100 61 31 13 36 76 100 100 85 100 100 100 74 92 100
2 95 90 91 90 100 100 100 86 100 100 100 96 85 5 0 0 5 1 1 0 0 0 0 0 0 0 0 0 0 89 46 64 15 5 5 100 100 100 98 100 100 91 100 86
14 100 98 55 100 100 100 59 17 5 43 100 100 100 98 5 0 1 5 5 0 0 0 0 0 0 0 0 0 0 9 4 59 3 2 58 43 100 100 100 83 100 100 100 82
7 100 21 100 100 100 72 76 100 93 5 62 89 100 100 86 4 37 73 100 4 5 0 0 0 0 0 0 0 0 0 2 80 12 0 3 1 85 100 100 96 100 100 100 100
6 100 23 100 100 26 99 91 61 25 2 2 6 15 60 100 88 5 100 100 100 5 5 0 0 0 0 0 0 0 0 0 5 5 0 0 1 1 100 100 62 100 100 100 99
19 97 67 40 27 96 95 79 5 5 2 3 4 1 1 5 5 1 99 100 83 89 5 0 0 0 0 0 0 0 0 0 28 5 0 0 1 19 44 100 100 100 100 98 100
5 91 82 0 5 5 5 0 0 0 0 1 0 0 0 0 3 5 2 100 78 95 80 5 0 0 0 0 0 0 0 0 5 25 0 0 54 99 98 100 100 100 100 100 100
5 74 97 5 4 5 3 29 5 16 18 98 13 5 4 0 1 0 0 15 94 28 100 76 5 0 0 0 0 0 0 0 4 5 3 4 27 96 100 100 93 100 100 100 100
2 66 29 19 4 5 0 4 15 100 8 7 53 5 29 6 4 5 0 0 8 21 39 100 17 74 3 0 0 0 0 0 0 5 0 4 37 100 98 97 100 100 100 100 100
6 38 7 22 4 0 0 0 0 2 0 5 15 76 20 42 17 5 6 4 0 45 100 100 100 100 70 3 0 5 0 0 0 0 0 0 5 24 63 100 100 64 100 100 100
31 100 30 5 4 5 0 5 0 5 2 83 95 6 100 85 100 79 84 48 35 98 100 100 100 100 100 33 4 46 3 0 3 0 0 3 5 5 7 9 61 42 100 100 100
5 72 19 5 5 4 1 0 0 0 0 6 74 77 74 98 100 100 100 90 76 100 100 100 100 100 100 100 99 16 100 54 97 46 26 28 8 40 52 100 100 100 50 99 100

GFSSW_prec_cloud_096.txt.gz
Cloud_Cover
100 100 100 100 100 100 98 9 98 82 31 1 68 100 40 20 0 8 0 0 0 0 0 61 100 100 100 100 100 100 100 100 100 100 100 98 70 89 37 10 0 0 0 0 3
100 100 100 100 100 100 100 100 50 100 99 47 12 13 24 70 35 0 0 0 0 0 0 27 88 97 97 100 100 100 100 100 100 100 100 100 79 100 93 100 0 0 0 4 0
100 100 100 100 100 100 100 100 100 99 100 99 35 31 19 25 0 0 0 0 0 0 0 0 5 80 5 40 100 100 96 78 100 100 93 100 24 100 100 93 2 1 23 7 0
63 100 100 100 100 100 100 100 100 100 100 100 25 25 2 13 0 0 0 0 0 0 0 0 0 57 18 33 99 100 100 100 100 95 98 100 96 100 100 49 18 8 0 3 0
100 100 100 100 100 100 100 100 100 100 100 100 30 2 6 0 0 0 0 0 0 3 2 0 0 4 55 12 56 100 100 100 100 100 100 100 100 100 84 98 5 4 4 0 0
100 100 100 100 100 100 99 100 100 100 100 100 32 16 0 0 0 0 0 0 0 1 3 0 0 43 80 23 44 100 100 100 100 100 100 100 100 100 74 100 8 5 0 0 0
100 100 100 100 100 100 84 98 94 100 100 100 58 3 0 0 0 0 0 0 0 3 5 0 0 2 4 6 5 100 98 100 100 100 100 100 100 100 100 88 48 8 1 0 0
100 100 100 100 74 90 51 65 92 66 100 100 90 0 0 0 0 0 0 0 0 0 5 0 0 0 4 5 16 99 83 100 100 100 100 100 100 100 100 100 99 38 5 1 0
100 100 100 100 100 100 100 100 71 67 100 78 3 0 0 0 0 0 0 0 0 0 0 0 0 0 39 4 4 69 100 100 100 100 100 96 100 100 100 100 100 95 6 5 0
100 100 100 100 100 100 59 3 0 5 8 0 0 0 0 0 0 0 0 0 0 0 0 0 0 0 83 1 4 5 100 100 100 100 100 100 47 94 99 100 99 100 5 6 5
100 100 100 100 100 100 20 0 0 0 0 0 0 0 0 0 0 0 0 0 0 0 0 0 0 0 6 10 0 0 86 100 100 100 100 100 100 100 98 78 91 37 54 5 19
25 100 100 100 100 100 55 1 0 0 0 0 0 0 0 0 0 0 0 0 0 0 0 0 0 1 89 2 0 16 73 100 100 100 100 100 100 100 100 100 98 100 85 78 29
4 44 100 100 100 97 100 89 70 70 6 0 0 0 0 0 0 0 0 0 0 0 0 0 0 11 41 51 13 1 69 100 100 100 98 100 100 100 100 100 96 100 90 30 20
0 6 46 58 89 100 100 100 100 100 100 65 0 0 0 0 0 0 0 0 0 0 0 0 0 37 99 24 33 99 77 84 100 59 55 87 100 100 100 100 84 97 99 61 18
0 1 100 96 98 100 100 100 100 100 100 97 99 5 0 0 0 0 0 0 0 0 0 0 0 0 45 18 0 6 61 99 91 100 100 100 100 99 100 100 100 100 97 98 100
0 57 98 9 94 100 100 100 100 100 83 100 100 100 6 0 0 0 0 0 0 0 0 0 0 0 0 0 0 0 99 53 90 72 100 100 100 100 100 100 100 100 100 67 75
8 100 90 8 100 100 100 100 100 100 100 100 100 100 100 16 5 3 4 1 0 0 0 0 0 0 0 0 0 0 98 87 93 50 100 58 100 100 100 100 100 100 100 100 100
84 67 13 5 100 82 98 100 98 72 100 100 100 100 100 100 78 7 9 5 0 0 0 0 0 0 0 0 0 0 5 14 7 40 52 5 100 100 100 100 100 100 100 100 94
17 23 5 99 100 100 100 60 10 55 38 37 100 100 100 100 100 58 5 77 88 5 0 0 0 0 0 0 0 0 0 32 92 35 2 4 78 100 100 100 100 100 100 100 100
0 0 6 100 100 76 100 86 100 100 32 24 46 88 100 100 100 100 63 5 98 88 6 0 0 0 0 0 0 0 0 0 3 28 11 3 8 100 100 100 99 100 100 100 100
0 0 98 19 24 88 23 69 31 59 34 73 60 8 5 91 100 100 19 5 5 96 100 46 2 0 0 0 0 0 0 0 0 0 0 2 0 12 100 100 100 92 100 100 100
0 0 0 100 4 5 74 16 6 5 4 3 2 5 5 5 65 100 76 5 0 17 9 100 85 2 0 0 0 0 0 0 0 0 0 0 0 69 57 100 100 100 100 100 100
5 4 2 28 3 0 0 0 0 0 0 1 2 2 3 0 2 9 99 80 5 5 78 100 100 89 1 0 0 0 0 0 0 0 0 0 0 100 100 100 100 100 100 100 100
9 13 17 4 2 0 0 4 0 0 0 0 2 80 15 5 4 0 2 15 8 5 66 100 100 100 88 1 0 0 0 0 0 0 0 0 37 100 100 100 100 100 100 100 100
5 5 5 5 5 1 0 0 0 0 0 0 3 1 5 23 7 4 0 0 3 5 4 100 100 100 100 47 0 0 0 0 0 0 0 0 0 4 100 100 100 100 100 100 100
5 5 5 5 4 0 0 0 0 0 0 0 5 100 12 90 8 99 6 5 5 5 5 53 100 100 100 73 5 4 2 0 0 0 0 0 0 0 100 100 100 100 100 100 100
5 2 5 4 0 4 4 3 0 0 0 5 2 11 97 47 33 10 14 66 82 22 5 4 92 100 100 70 91 16 5 4 0 0 0 0 0 70 100 96 82 69 100 100 100

GFSSW_prec_cloud_099.txt.gz
Cloud_Cover
100 100 100 100 85 45 99 100 100 12 99 100 27 25 25 14 0 0 0 0 0 0 0 0 5 70 100 100 100 100 86 92 93 100 100 95 99 41 5 0 0 0 0 0 77
86 100 100 100 100 100 62 36 100 100 100 100 94 22 34 100 0 0 0 0 0 0 0 0 5 18 100 100 100 100 77 100 96 100 100 7 93 100 4 5 6 7 11 25 44
100 100 100 100 100 100 100 100 61 70 100 100 100 44 8 34 0 0 0 0 0 4 0 0 40 32 100 100 100 100 96 76 99 100 37 34 56 76 5 2 4 0 0 2 2
100 100 100 100 100 100 100 100 100 85 51 72 100 28 0 1 0 0 0 0 0 5 3 0 57 92 100 100 100 100 100 78 100 100 100 73 45 100 99 18 3 0 0 0 0
100 100 100 100 100 100 100 100 100 100 100 68 34 7 1 0 0 0 0 0 0 2 5 0 54 100 75 100 100 100 100 95 100 100 100 100 9 96 35 11 5 1 0 0 0
100 100 100 100 100 100 100 100 100 100 43 9 16 0 0 0 0 0 0 0 0 0 5 0 2 22 44 100 35 76 100 100 100 98 100 100 34 5 16 13 5 5 0 0 0
100 100 100 100 100 100 100 100 100 97 100 100 30 2 0 0 0 0 0 0 0 0 5 3 0 5 5 14 40 52 91 100 100 100 100 100 94 56 22 7 6 5 4 0 5
100 100 100 100 100 100 100 100 100 100 100 100 12 0 0 0 0 0 0 0 0 0 2 3 0 0 5 32 62 80 99 100 100 100 100 100 100 100 72 52 6 16 5 1 0
100 100 100 100 100 100 100 96 89 100 98 54 0 0 0 0 0 0 0 0 0 0 0 2 0 15 30 90 25 68 100 96 100 100 100 100 100 100 100 91 5 10 5 2 0
100 100 100 100 100 100 19 0 2 32 20 0 0 0 0 0 0 0 0 0 0 0 0 0 0 19 24 98 25 94 100 100 100 100 100 100 100 100 100 100 62 17 5 5 0
92 100 100 100 100 100 1 1 2 0 0 0 0 0 0 0 0 0 0 0 0 0 0 0 0 2 0 21 23 6 100 100 85 100 100 100 100 100 100 100 85 19 7 13 0
4 68 100 100 100 100 16 16 95 92 22 1 0 0 0 0 0 0 0 0 0 0 0 0 0 5 4 13 32 0 42 98 93 100 100 100 100 100 91 100 100 100 72 100 70
0 0 100 100 84 43 47 100 75 100 100 99 13 0 0 0 0 0 0 0 0 0 0 0 0 0 64 71 49 1 6 100 100 100 100 100 100 100 99 100 80 76 67 88 100
0 2 100 23 0 5 7 94 100 100 100 100 100 16 0 0 0 0 0 0 0 0 0 0 0 0 100 98 100 100 17 75 100 100 100 100 95 100 100 100 96 100 100 94 62
0 62 100 96 0 5 31 100 100 100 100 100 100 100 27 1 0 0 0 0 0 0 0 0 0 0 40 100 89 88 97 75 100 100 100 100 100 100 100 100 92 100 97 34 7
16 100 98 12 4 72 100 100 100 100 100 100 100 100 100 42 0 0 0 0 0 0 0 0 0 0 0 39 89 100 100 100 100 100 100 100 100 100 96 100 95 100 100 91 56
85 100 91 0 49 53 99 89 100 100 100 100 100 100 100 100 13 0 0 0 0 0 0 0 0 0 0 2 100 99 100 79 99 98 100 100 100 100 100 100 93 100 100 100 94
100 54 4 4 57 98 23 100 100 100 100 100 100 100 100 100 97 5 0 0 0 0 0 0 0 0 0 0 0 39 100 100 89 100 100 100 100 100 100 100 78 95 100 100 98
9 0 0 4 61 80 5 100 98 84 94 100 100 100 100 83 96 62 5 0 0 5 5 1 0 0 0 0 0 0 0 17 98 100 100 98 100 100 100 100 100 100 100 84 100
0 0 0 97 4 38 86 81 55 100 100 99 92 91 100 52 10 60 85 5 0 1 49 68 5 0 0 0 0 0 0 0 4 48 67 86 100 100 100 100 100 91 100 100 100
0 0 0 6 32 5 8 13 35 100 14 27 5 5 5 82 24 7 77 80 5 2 4 98 98 6 0 0 0 0 0 0 0 0 2 7 100 100 100 100 100 83 100 100 100
0 0 0 0 13 98 10 5 5 5 6 0 3 2 0 5 6 50 82 100 56 5 5 5 98 95 5 0 0 0 0 0 0 0 0 0 6 100 100 100 100 100 100 100 100
0 0 0 0 0 2 5 0 0 0 0 0 0 0 0 0 3 5 5 75 100 70 5 5 13 100 61 3 0 0 0 0 0 0 0 0 0 13 100 100 100 100 100 100 100
0 0 0 0 0 0 0 0 0 0 0 0 0 0 2 0 0 1 5 8 100 100 46 5 28 100 25 36 2 0 0 0 0 0 0 0 0 25 76 99 96 100 100 100 100
0 0 0 0 0 0 0 0 0 0 0 0 0 0 1 38 5 0 0 5 5 48 100 5 8 100 99 5 5 1 0 0 0 0 0 0 0 0 12 98 100 100 100 100 100
1 0 4 4 1 0 0 0 0 0 0 0 0 0 0 43 5 5 5 2 4 5 14 93 6 4 100 96 6 5 0 0 0 0 0 0 0 0 21 99 100 100 100 100 100
3 0 5 5 4 5 3 5 5 0 0 0 0 0 0 41 82 56 5 23 5 15 5 5 51 5 7 94 100 13 5 2 0 0 0 0 0 0 71 97 100 100 100 100 100

GFSSW_prec_cloud_102.txt.gz
Cloud_Cover
100 100 100 100 100 100 100 49 53 82 7 35 49 37 25 0 0 0 0 0 0 0 0 0 0 2 100 100 82 100 96 94 88 53 96 69 99 44 50 7 1 0 0 0 6
100 100 100 100 100 100 100 98 90 100 77 20 18 35 12 0 0 0 0 0 0 0 0 0 0 0 87 100 99 95 99 98 73 99 56 57 17 96 89 38 1 0 0 0 1
100 100 100 100 100 100 100 100 100 100 100 20 22 9 3 0 0 0 0 0 0 0 0 0 0 5 72 100 100 93 81 99 99 100 74 11 5 5 80 2 0 0 0 0 0
100 100 92 95 77 94 18 70 100 90 87 97 16 18 0 0 0 0 0 0 0 0 0 0 0 1 41 96 100 100 62 98 99 100 100 47 56 88 57 0 0 0 0 0 0
100 100 100 100 100 100 100 100 100 93 5 8 0 9 0 0 0 0 0 0 0 0 0 0 0 2 79 87 100 100 61 85 78 85 85 51 5 3 8 0 0 0 0 0 0
100 100 100 92 100 100 47 22 39 7 3 21 0 0 0 0 0 0 0 0 0 0 0 0 0 8 83 91 100 100 91 66 100 100 91 97 17 4 4 0 4 0 0 0 0
100 100 100 100 100 100 68 50 78 100 96 14 0 0 0 0 0 0 0 0 0 0 0 0 0 2 9 88 100 100 100 100 100 100 53 91 54 68 0 2 5 0 0 0 0
100 100 100 100 100 100 100 100 100 100 96 0 0 0 0 0 0 0 0 0 0 0 0 0 0 36 1 80 100 100 100 100 100 100 100 100 92 39 10 2 2 5 5 0 4
86 98 100 100 100 99 97 40 74 100 14 0 0 0 0 0 0 0 0 0 0 0 0 2 0 23 0 27 99 100 100 100 100 100 100 100 100 100 21 51 66 57 15 4 6
6 28 88 78 85 76 4 4 20 42 0 0 0 0 0 0 0 0 0 0 0 0 0 0 4 16 5 15 91 100 81 100 100 96 100 100 100 100 97 100 100 100 82 9 6
5 0 7 63 46 38 2 0 0 0 0 1 0 0 0 0 0 0 0 0 0 0 0 0 2 5 55 71 12 36 90 100 100 100 100 100 100 100 100 100 92 95 97 56 37
3 0 86 100 100 93 7 0 6 5 26 62 41 1 0 0 0 0 0 0 0 0 0 0 2 6 98 24 25 95 99 100 100 100 100 100 100 100 100 100 100 100 100 58 58
0 1 99 100 18 25 2 5 35 82 100 100 100 94 4 0 0 0 0 0 0 0 0 0 0 5 5 45 99 29 98 100 100 100 100 100 100 100 100 100 100 72 100 90 43
0 34 100 11 47 0 17 5 23 99 100 100 100 100 99 4 0 0 0 0 0 0 0 0 0 0 5 12 35 91 82 90 100 100 100 100 100 100 100 100 100 100 100 98 78
6 100 100 94 0 0 5 81 17 95 100 100 100 100 100 73 0 0 0 0 0 0 0 0 0 0 0 40 56 54 66 100 100 100 100 100 100 100 100 100 100 100 100 80 69
83 100 98 14 0 17 58 46 11 90 100 100 100 100 100 99 26 1 0 0 0 0 0 0 0 0 0 0 86 5 66 100 100 100 100 100 100 100 100 100 100 100 99 100 97
100 100 57 0 0 34 89 36 99 94 49 83 74 92 100 100 95 60 1 0 0 0 0 0 0 0 0 0 4 94 30 68 100 100 100 100 100 100 100 100 100 98 100 96 99
98 33 2 0 0 16 5 100 86 100 100 97 61 59 96 100 100 71 25 0 0 2 23 0 0 0 0 0 0 1 4 100 96 100 100 100 100 100 100 100 100 74 100 100 100
34 0 0 0 3 2 11 21 84 66 93 100 100 77 56 79 92 88 34 6 5 0 18 4 1 0 0 0 0 0 59 34 96 88 100 100 100 100 100 100 100 48 100 100 100
0 0 0 0 0 0 2 26 26 7 84 100 100 100 99 52 70 77 64 5 17 0 23 45 13 1 0 0 0 0 0 4 43 77 100 100 100 100 100 100 100 58 100 100 100
0 1 0 0 0 9 6 3 2 10 31 7 53 42 77 100 100 94 64 88 5 1 0 29 5 18 0 0 0 0 0 0 2 4 100 91 100 100 100 100 100 99 100 100 100
0 4 0 0 1 0 18 60 5 5 0 1 0 0 5 25 86 100 96 65 56 5 5 5 5 74 5 1 0 4 0 0 0 0 6 76 100 100 100 100 100 100 100 98 100
0 0 0 0 5 4 0 0 0 1 1 2 2 0 0 3 5 10 90 68 99 56 6 24 4 100 100 49 0 0 0 0 3 3 4 61 100 100 100 100 93 100 100 54 100
0 4 0 0 0 1 3 4 4 0 0 0 0 0 0 5 2 2 5 27 18 38 42 5 74 87 100 100 62 11 0 0 0 0 2 2 80 100 100 100 100 100 100 95 99
0 0 0 4 0 0 0 0 0 0 0 0 0 0 3 48 13 5 0 1 5 5 12 11 97 97 83 98 69 98 92 0 0 0 5 8 2 100 100 100 100 100 100 100 100
0 0 0 0 0 0 0 0 0 0 0 0 0 0 0 72 27 94 4 3 83 4 100 100 100 70 82 0 4 23 4 0 0 0 0 5 5 50 100 100 100 100 100 100 100
0 0 0 0 0 1 3 0 4 2 0 0 0 0 0 3 4 5 5 4 3 33 51 62 82 100 75 86 5 8 51 11 2 0 0 2 2 0 0 32 87 100 100 100 100

GFSSW_prec_cloud_105.txt.gz
Cloud_Cover
58 97 100 100 100 100 100 93 21 0 19 4 5 0 10 0 0 0 0 0 0 0 29 0 4 11 100 100 100 89 98 81 99 99 80 66 96 97 46 29 77 74 14 5 2
100 100 100 100 100 100 100 94 98 27 3 2 1 0 0 0 0 0 0 0 0 0 0 0 8 23 79 100 96 100 100 97 100 94 47 53 64 91 20 99 99 71 14 0 3
100 100 99 100 100 100 96 30 100 94 22 8 20 0 0 0 0 0 0 0 0 0 0 0 48 31 100 100 100 99 100 100 100 100 98 58 22 95 72 45 29 2 0 0 0
100 100 100 100 100 100 100 100 100 100 22 17 0 0 0 0 0 0 0 0 0 0 0 0 8 31 100 100 100 100 88 100 42 100 100 55 15 62 59 65 35 14 0 0 0
100 100 86 98 100 100 77 44 5 6 1 3 20 0 0 0 0 0 0 0 0 0 0 0 0 32 100 100 100 100 73 83 100 100 100 89 75 92 31 13 27 35 0 0 0
100 100 100 100 100 79 94 3 0 0 6 0 0 0 0 0 0 0 0 0 0 0 0 0 0 32 93 100 100 100 100 46 100 100 100 64 100 43 0 3 5 5 0 0 0
65 70 69 100 99 95 61 11 1 0 28 17 10 0 0 0 0 0 0 0 0 0 0 0 0 0 78 100 32 100 100 100 92 100 100 87 86 99 0 0 5 0 0 0 0
37 24 4 26 91 90 34 2 29 12 6 0 0 0 0 0 0 0 0 0 0 0 0 0 0 0 99 93 88 97 100 100 100 100 100 96 92 100 0 1 2 0 0 0 0
4 0 0 13 3 0 0 0 11 18 4 1 2 0 0 0 0 0 0 0 0 0 0 0 0 2 35 51 57 100 100 100 100 100 96 98 82 98 4 1 6 5 5 23 26
0 0 0 0 81 0 0 8 0 57 13 0 0 0 0 0 0 0 0 0 0 0 0 0 0 0 24 100 79 99 100 100 100 100 100 100 100 92 24 80 98 98 86 100 96
0 0 0 10 90 8 32 0 0 0 0 0 0 0 0 0 0 0 0 0 0 0 0 0 0 0 31 39 100 100 100 100 100 100 100 100 100 100 100 100 100 50 100 100 100
0 0 0 0 0 22 2 0 0 0 0 4 5 5 0 0 0 0 0 0 0 0 0 0 0 4 65 83 28 95 100 100 100 100 100 100 100 100 100 100 100 100 100 82 100
0 0 1 0 6 33 0 0 1 5 5 25 21 75 84 3 0 0 0 0 0 0 0 0 2 5 4 50 17 94 77 100 100 100 100 100 100 100 100 100 100 100 100 94 100
0 42 20 0 40 0 0 0 5 5 8 51 76 94 100 100 27 0 0 0 0 0 0 0 0 3 54 5 5 100 56 100 100 100 100 100 100 100 100 100 100 85 100 65 100
7 100 100 83 0 0 0 1 5 4 96 30 68 100 98 98 43 2 0 0 0 0 0 0 0 0 6 93 18 100 96 100 100 100 100 100 100 100 100 100 100 100 72 71 41
93 100 85 14 0 0 1 1 24 13 99 5 18 98 100 96 83 28 1 0 0 0 0 11 1 0 0 88 5 8 37 100 100 100 100 100 100 100 100 100 100 100 100 100 99
100 77 38 0 0 0 0 11 63 98 50 12 34 100 100 100 99 67 5 3 3 3 0 0 0 0 1 4 17 83 68 100 100 100 100 100 100 100 100 100 100 100 100 100 66
49 38 0 0 0 0 0 0 100 99 100 100 71 95 100 100 100 97 18 5 4 4 5 0 0 0 0 27 11 1 100 36 100 100 100 100 100 100 100 100 100 100 100 95 92
35 0 0 0 0 0 0 99 95 99 8 100 100 100 100 81 100 100 51 15 26 5 87 93 5 8 0 0 5 21 31 9 89 100 100 100 100 100 100 100 100 100 99 97 99
0 1 0 0 0 0 22 46 1 5 8 100 100 100 100 100 99 100 100 96 100 8 83 75 99 5 3 0 0 15 69 38 54 100 100 100 100 100 100 100 100 100 100 100 100
0 6 0 0 0 4 97 22 10 4 4 57 84 100 100 100 100 100 100 68 79 88 11 100 36 100 5 0 0 0 0 4 31 100 100 100 100 100 100 100 100 100 92 100 100
2 90 0 0 43 84 76 5 2 5 0 4 5 63 91 99 100 78 100 73 57 90 13 6 93 99 100 11 0 4 1 0 0 42 100 100 100 100 100 100 100 100 100 36 100
4 5 0 2 95 21 2 2 5 36 5 6 17 22 14 100 54 100 100 88 100 100 71 96 6 100 100 70 1 1 5 4 3 5 93 100 100 100 100 100 100 100 99 100 100
3 66 3 5 1 44 28 32 15 0 2 2 3 3 5 53 34 68 79 74 67 82 100 26 90 70 100 98 78 85 0 4 5 92 55 97 100 75 100 100 100 100 100 96 92
7 19 5 12 1 5 3 1 3 5 0 0 6 2 17 98 100 99 62 97 58 64 100 100 100 65 100 95 60 100 88 5 5 5 96 100 97 100 58 100 100 100 100 100 100
5 1 0 0 0 1 0 0 0 0 0 1 0 0 3 49 95 100 100 99 99 93 100 100 100 57 8 100 100 100 91 32 100 19 5 24 62 100 88 1 99 100 99 100 100
5 13 2 5 5 4 19 0 0 0 0 0 0 0 0 34 3 5 5 81 99 90 92 100 100 100 98 94 100 73 90 100 97 66 55 92 22 97 93 2 12 100 100 100 100

GFSSW_prec_cloud_108.txt.gz
Cloud_Cover
100 100 100 100 100 100 100 79 68 21 23 18 5 1 0 0 0 0 0 0 0 0 0 0 0 75 100 100 100 94 98 100 80 40 23 15 93 67 23 64 48 25 21 0 48
100 100 100 100 100 100 100 54 10 22 22 1 14 6 0 0 0 0 0 0 0 0 0 0 23 72 100 100 100 100 100 99 64 38 23 12 12 100 35 86 96 61 3 0 24
100 100 100 100 100 38 34 72 15 2 1 2 0 0 0 0 0 0 0 0 0 0 0 1 37 87 100 100 100 100 100 100 100 71 100 91 86 5 34 40 99 0 0 8 6
100 85 40 15 17 14 8 0 2 1 10 0 0 0 0 0 0 0 0 0 0 0 0 0 44 100 89 100 100 100 100 100 100 55 68 78 19 86 94 67 3 3 0 0 21
85 100 97 80 37 22 16 5 0 0 0 9 0 1 0 0 0 0 0 0 0 0 0 0 0 95 100 82 100 100 100 100 100 71 47 98 27 99 88 19 0 0 0 0 3
17 11 20 62 34 25 14 0 0 0 0 0 0 0 0 0 0 0 0 0 0 0 0 0 0 67 78 100 89 100 86 92 100 100 100 100 8 51 23 99 2 0 0 2 0
0 6 12 26 26 27 4 7 0 0 0 0 0 0 0 0 0 0 0 0 0 0 0 0 0 15 100 100 93 100 100 80 99 55 100 100 71 73 7 18 18 16 0 24 12
0 0 0 0 15 10 0 0 0 13 18 9 0 0 0 0 0 0 0 0 0 0 0 0 0 0 100 95 96 100 100 98 100 100 100 83 100 100 19 5 3 0 4 13 31
0 0 0 0 6 2 0 0 0 0 5 1 0 0 0 0 0 0 0 0 0 0 0 0 0 0 11 100 100 82 100 100 100 85 100 96 100 86 12 16 5 13 14 2 65
0 0 0 1 1 0 0 0 2 31 16 0 0 0 0 0 0 0 0 0 0 0 0 0 0 0 0 93 68 100 100 100 100 100 100 100 100 100 30 21 13 4 21 30 37
0 0 0 0 0 0 6 0 0 0 0 0 0 0 0 0 0 0 0 0 0 0 0 0 0 0 1 80 99 100 72 100 100 100 100 100 100 100 100 100 100 60 30 81 44
0 0 0 0 0 0 3 0 0 0 0 0 0 0 0 0 0 0 0 0 0 0 0 0 0 2 8 100 88 100 100 100 100 100 100 100 100 100 100 99 100 100 100 47 95
0 0 0 0 5 30 0 0 0 0 0 3 4 5 28 28 4 0 0 0 0 0 0 0 0 5 5 94 61 33 100 100 100 100 100 100 100 100 100 100 100 100 99 88 55
0 7 78 38 19 0 0 0 0 0 6 9 8 74 98 97 41 3 0 0 0 0 0 0 0 0 7 45 94 100 100 100 100 100 100 100 100 100 100 100 100 100 11 7 30
10 100 100 96 0 0 0 0 0 2 95 72 30 98 12 84 38 5 1 0 0 0 0 0 0 4 5 70 99 98 100 99 100 100 100 100 100 100 100 100 100 100 100 100 100
100 100 98 6 0 0 0 0 4 14 96 92 5 5 64 54 99 21 0 0 0 0 0 0 0 0 1 6 70 71 100 100 100 100 100 100 100 100 100 100 100 100 100 38 68
100 96 58 0 0 0 0 0 62 94 98 100 80 6 45 100 74 94 5 3 1 0 0 0 2 1 1 12 93 100 75 100 100 100 100 100 100 100 100 100 100 100 99 97 60
61 92 1 0 0 0 0 8 100 49 100 100 100 89 100 91 100 100 9 5 4 3 25 0 0 0 0 2 100 9 100 100 100 100 100 100 100 100 100 100 100 100 100 100 100
33 0 0 0 0 0 0 87 98 64 50 72 100 100 100 100 100 100 100 90 5 5 56 59 37 10 0 0 77 40 52 86 92 100 100 100 100 100 100 100 100 100 100 96 92
0 0 0 0 0 0 3 47 45 3 1 64 100 100 100 100 97 100 100 100 100 67 100 83 36 36 12 0 2 72 100 16 13 100 100 100 96 100 100 100 100 100 100 100 52
0 4 0 0 0 2 53 45 4 0 0 86 100 100 100 100 100 100 91 90 87 42 20 52 69 90 83 1 0 0 5 22 38 100 100 100 100 100 100 100 100 100 100 100 98
1 18 0 0 10 94 100 5 5 5 0 12 9 67 77 97 100 100 100 95 99 98 4 98 100 100 96 57 0 0 0 5 2 59 100 100 100 100 31 100 100 94 100 100 100
0 4 0 0 64 100 4 1 42 77 10 17 47 4 2 25 62 100 100 81 17 98 54 4 38 95 100 95 94 0 4 5 0 2 97 100 100 100 99 100 90 100 69 100 100
0 98 55 3 11 75 25 67 70 0 0 0 2 1 4 60 47 45 100 92 100 67 89 34 5 9 100 86 28 70 4 5 78 39 22 100 100 95 76 100 100 76 100 100 99
0 98 95 98 9 82 37 37 22 59 1 0 8 11 5 21 74 96 60 60 99 87 100 100 78 88 2 81 98 74 32 4 5 2 95 99 100 88 100 100 10 100 100 100 100
2 41 5 46 63 100 17 5 5 2 0 4 0 0 0 3 70 1 2 97 30 100 100 100 100 76 98 43 83 100 100 29 61 5 0 89 75 96 99 100 70 99 100 100 100
58 5 5 82 100 100 72 5 5 0 1 0 0 0 0 4 2 2 4 14 87 22 100 100 100 91 73 73 100 92 96 100 100 90 15 62 92 92 6 70 100 100 97 100 100

GFSSW_prec_cloud_111.txt.gz
Cloud_Cover
100 100 100 100 87 73 58 15 20 18 26 18 15 0 0 0 0 0 0 0 0 0 0 0 0 4 100 100 91 92 100 100 100 97 70 30 100 60 99 24 45 3 0 1 96
100 100 100 100 96 41 16 15 24 25 7 12 14 12 0 0 0 0 0 0 0 0 0 0 0 7 100 100 90 100 100 100 100 100 29 6 68 34 87 63 100 37 0 6 1
100 100 96 90 54 12 27 11 10 13 12 14 27 20 0 0 0 0 0 0 0 0 0 0 0 91 100 100 92 100 100 100 100 100 100 13 0 5 88 98 73 0 0 50 99
34 24 7 2 28 45 28 24 12 2 2 5 21 6 0 0 0 0 0 0 0 0 0 0 0 62 100 100 100 100 100 100 100 100 100 58 44 5 90 6 29 0 2 41 1
48 23 19 11 20 30 28 21 9 9 21 4 0 0 0 0 0 0 0 0 0 0 0 0 1 40 99 100 98 100 100 100 100 100 100 98 12 100 100 38 0 0 85 0 0
4 0 0 15 29 36 24 2 6 13 24 21 6 0 0 0 0 0 0 0 0 0 0 0 0 58 98 100 100 100 100 100 100 100 100 100 99 8 84 7 21 0 4 54 51
0 0 0 0 5 26 30 0 0 14 20 15 26 0 0 0 0 0 0 0 0 0 0 0 0 84 100 98 100 100 100 100 100 100 100 100 98 54 32 64 0 0 0 84 0
0 0 0 0 17 24 0 0 0 1 28 29 7 0 0 0 0 0 0 0 0 0 0 0 0 0 88 86 100 100 100 100 100 100 100 100 100 96 100 8 0 0 21 72 98
0 0 0 0 0 0 0 0 0 0 8 0 0 0 0 0 0 0 0 0 0 0 0 0 0 0 0 51 100 100 100 98 100 100 100 100 100 79 100 93 1 3 73 62 100
0 0 0 0 0 0 0 0 0 1 0 0 0 0 0 0 0 0 0 0 0 0 0 0 0 0 0 18 33 96 99 100 100 100 100 100 98 94 86 23 5 2 33 12 61
0 0 0 0 1 0 0 0 0 0 0 0 0 0 0 0 0 0 0 0 0 0 0 0 0 1 5 5 72 44 88 100 100 100 100 100 100 100 90 87 58 60 10 3 0
0 0 0 2 1 22 48 0 0 0 0 0 0 0 0 0 0 0 0 0 0 0 0 0 0 2 86 92 96 98 54 100 100 100 100 100 100 100 100 100 100 94 95 99 5
0 0 22 79 56 39 0 0 0 0 0 0 0 0 0 1 2 3 0 0 0 0 0 0 0 4 100 7 65 100 100 95 100 100 100 100 100 100 100 83 100 100 88 66 72
0 68 100 100 6 0 0 0 0 0 0 0 0 2 5 5 49 81 7 0 0 0 0 0 0 1 100 85 54 100 100 100 100 100 100 100 100 100 100 100 68 100 100 100 94
72 100 100 98 14 0 0 0 0 0 7 2 1 2 91 46 63 99 38 0 0 0 0 0 0 2 16 77 10 86 100 100 100 100 100 100 100 100 100 100 52 100 94 100 100
99 90 98 0 0 0 0 0 0 2 4 27 4 4 56 100 96 100 100 2 0 0 0 0 0 3 7 91 4 11 100 100 100 100 100 100 100 100 100 24 74 89 100 100 100
19 66 85 0 0 0 0 0 39 20 18 50 44 99 5 100 99 100 100 48 0 0 0 0 0 0 12 6 1 87 100 100 100 100 100 100 100 100 99 99 69 100 100 95 77
1 98 2 0 0 2 0 1 15 39 30 4 100 94 96 99 100 100 100 98 2 0 0 0 0 0 0 1 2 22 100 100 100 100 100 100 100 100 100 87 92 100 100 82 100
9 0 0 0 0 4 0 5 40 93 91 79 3 92 69 46 100 100 100 100 100 22 71 40 6 0 0 0 36 1 65 100 99 100 100 100 100 100 100 28 86 88 100 96 100
5 0 0 0 0 4 9 9 1 5 0 5 54 100 95 61 100 99 100 25 93 81 4 79 3 0 0 0 35 24 2 14 100 100 100 100 100 100 100 100 95 100 100 99 99
7 0 0 0 0 2 69 27 4 0 0 3 60 59 37 100 96 100 100 96 6 5 4 25 55 12 7 5 0 32 0 90 100 100 100 100 100 100 100 100 100 100 72 83 72
4 0 0 0 5 20 79 68 6 1 0 0 22 96 93 100 93 100 99 49 100 21 3 5 6 5 17 83 8 1 4 4 100 100 100 100 100 100 100 85 100 100 100 99 100
0 0 0 4 3 89 94 100 96 4 1 0 3 0 0 4 32 56 18 65 100 88 65 5 100 100 99 21 90 27 3 0 100 100 100 100 100 100 100 91 100 100 100 100 100
0 8 61 5 5 84 100 100 99 16 5 0 0 0 0 5 32 36 78 49 96 78 100 100 83 100 95 63 91 5 0 4 2 98 100 100 100 100 100 100 100 98 100 100 100
4 5 7 99 16 5 79 100 100 100 5 0 1 4 0 0 9 92 3 47 76 5 87 100 100 100 93 43 94 76 1 5 5 0 86 100 100 100 100 100 100 100 88 87 94
5 5 5 54 5 5 92 100 100 100 63 0 0 0 0 0 65 5 32 90 5 63 100 100 100 46 58 90 24 100 83 0 1 31 0 95 100 100 100 100 88 100 100 100 72
5 9 5 5 5 41 94 100 100 100 70 2 0 0 0 0 0 3 1 0 0 4 47 97 100 77 5 87 38 59 100 77 16 100 1 77 19 48 100 100 100 100 100 100 100

GFSSW_prec_cloud_114.txt.gz
Cloud_Cover
100 100 89 100 66 54 33 46 46 75 32 20 18 39 25 0 0 0 0 0 0 0 0 0 0 0 16 54 50 100 100 100 100 100 89 19 89 17 81 0 7 0 0 21 29
15 29 100 89 97 78 35 24 25 31 20 29 30 28 19 0 0 0 0 0 0 0 0 0 0 0 5 100 100 100 100 100 100 100 100 86 100 97 57 48 100 0 12 0 0
98 80 40 33 60 96 100 95 80 26 26 24 17 23 2 0 0 0 0 0 0 0 0 0 2 3 21 100 100 100 100 100 100 100 100 100 72 9 13 100 51 0 0 0 0
16 10 21 61 99 70 100 100 78 47 46 23 18 15 0 0 0 0 0 0 0 0 0 0 0 2 56 100 100 100 100 100 100 100 100 100 100 40 53 8 1 0 0 0 64
4 1 5 8 28 72 85 39 19 27 25 22 20 23 0 0 0 0 0 0 0 0 0 0 0 0 9 100 100 100 100 100 100 100 100 100 100 5 32 39 0 0 0 0 0
0 0 0 0 13 22 28 37 17 26 49 18 15 12 2 0 0 0 0 0 0 0 0 0 0 0 34 100 100 100 100 100 100 100 66 100 100 25 58 59 34 0 0 0 0
0 0 0 0 0 11 16 0 1 24 28 28 11 0 0 0 0 0 0 0 0 0 0 0 0 2 87 100 100 100 100 97 99 100 100 100 100 95 74 100 42 0 0 0 66
0 0 0 0 0 1 0 2 13 19 38 33 9 0 0 0 0 0 0 0 0 0 0 0 2 0 1 100 100 100 98 100 100 100 100 100 100 99 100 34 100 41 0 0 26
0 0 0 0 0 6 0 0 0 0 33 2 0 0 0 0 0 0 0 0 0 0 0 23 2 0 0 100 100 100 100 100 100 100 100 100 100 100 58 8 75 0 0 0 14
0 0 0 0 5 5 9 0 0 0 14 0 0 0 0 0 0 0 0 0 0 0 0 0 0 0 0 60 100 100 100 100 100 100 100 100 100 92 35 8 0 0 0 1 9
0 0 0 14 97 75 20 0 0 0 0 0 0 0 0 0 0 0 0 0 0 0 0 0 0 1 5 74 29 100 100 100 100 100 100 100 100 100 100 98 5 0 1 94 2
0 1 60 100 100 100 73 0 0 0 0 0 0 0 0 0 0 0 0 0 0 0 0 0 0 4 5 5 5 96 100 100 100 100 100 100 100 100 84 87 22 10 8 52 0
2 96 100 100 100 21 0 0 0 0 0 0 0 0 0 0 0 0 0 0 0 0 0 0 0 5 5 4 5 97 100 100 100 100 100 100 100 100 100 99 29 100 76 43 15
18 95 100 97 4 0 0 0 0 0 0 0 0 0 0 0 2 3 0 4 0 0 0 0 0 5 5 5 0 100 99 100 100 100 100 100 100 100 100 100 100 99 100 100 100
16 10 100 95 48 0 0 0 0 0 0 0 0 4 0 0 5 19 43 38 2 0 0 0 5 18 7 0 1 93 100 88 100 100 100 76 79 100 100 100 100 97 56 100 86
6 93 98 4 18 0 0 0 0 0 0 0 0 4 20 19 52 8 95 100 75 0 0 0 0 5 32 5 0 3 100 99 100 100 100 100 100 100 77 98 100 98 66 84 87
0 100 87 0 0 0 0 5 7 1 0 2 0 2 56 10 100 5 97 95 90 4 20 0 0 4 5 5 18 3 100 66 100 100 100 100 100 100 86 90 72 100 100 31 100
0 29 8 0 0 0 0 0 21 89 5 0 59 3 88 56 100 99 100 100 100 94 100 20 0 2 0 2 5 1 45 100 100 100 100 100 100 100 100 82 8 90 100 99 99
8 4 0 0 0 0 1 0 100 89 44 16 6 2 68 29 76 94 79 100 100 99 70 9 0 4 4 0 0 8 100 66 100 100 100 100 100 100 100 98 69 58 100 100 97
3 5 2 0 0 0 0 0 78 100 95 1 2 2 9 89 52 100 87 67 97 3 5 25 34 0 0 0 0 0 13 10 51 100 100 100 100 100 94 99 30 86 100 100 38
0 3 0 0 2 0 0 0 14 100 100 24 5 6 44 74 16 96 100 77 100 84 5 14 0 0 0 0 0 12 3 3 95 100 100 100 100 88 100 100 100 99 100 100 100
0 0 0 0 3 1 5 5 34 100 100 100 3 0 87 96 96 70 100 100 81 16 26 44 91 65 0 0 49 97 0 6 28 100 100 99 100 100 100 100 96 100 100 100 100
0 0 0 0 38 59 7 5 5 96 100 100 5 0 0 5 0 5 83 81 87 100 31 100 89 96 59 87 5 91 5 7 5 5 100 100 100 100 100 100 100 100 100 76 99
0 0 0 0 5 5 23 62 5 30 100 100 83 2 0 2 5 5 4 42 90 81 72 98 19 100 79 73 6 5 8 13 57 9 100 100 99 100 100 100 100 100 100 100 100
4 1 7 5 5 5 5 50 43 5 98 100 100 6 0 0 0 5 70 4 34 100 100 100 65 23 90 45 64 97 5 98 40 0 100 100 97 100 100 100 100 100 100 100 100
9 7 79 100 100 100 100 86 5 5 80 100 100 5 4 0 0 3 2 5 27 71 14 84 100 54 100 100 100 99 100 37 2 0 0 0 95 100 100 100 100 100 100 100 100
46 97 71 49 32 20 96 45 9 9 75 100 100 100 5 0 0 0 0 0 2 2 0 29 86 5 60 86 100 100 94 43 5 0 0 46 91 100 100 100 100 100 100 100 100

GFSSW_prec_cloud_117.txt.gz
Cloud_Cover
72 55 6 22 100 100 93 84 100 100 100 74 95 59 17 6 0 0 0 0 0 0 0 0 2 40 68 81 60 100 100 100 100 100 100 100 63 4 0 0 0 0 1 85 0
66 60 96 100 99 100 100 100 100 80 88 100 46 70 14 8 5 0 0 0 0 0 0 0 0 5 36 100 77 100 100 100 93 100 100 94 28 58 11 0 0 0 0 14 1
33 30 53 59 77 100 100 100 100 57 3 12 20 21 20 6 0 0 0 0 0 0 0 0 0 0 0 89 100 100 89 100 99 100 99 100 74 20 5 68 1 0 0 5 8
15 15 14 19 17 10 76 99 100 99 94 17 18 16 0 21 0 0 0 0 0 0 0 0 0 0 0 61 100 100 100 100 100 100 98 100 100 84 66 64 0 0 0 0 0
2 0 4 8 12 22 29 20 99 37 90 24 24 20 2 0 0 0 0 0 0 0 0 0 0 0 1 64 100 100 100 100 100 100 60 100 100 91 16 67 0 0 0 0 0
0 0 0 6 12 14 24 24 23 48 35 24 23 12 0 0 0 0 0 0 0 0 0 0 0 0 0 29 100 100 100 100 100 100 100 100 100 10 49 46 8 0 0 0 0
0 0 0 0 0 0 17 22 26 37 61 33 26 3 0 0 0 0 0 0 0 0 0 0 0 0 0 14 100 100 100 100 100 100 100 100 100 34 78 43 3 0 0 0 0
0 0 0 1 2 19 31 31 28 18 45 31 0 0 0 0 0 0 0 0 0 0 0 8 0 16 0 1 98 100 100 100 100 100 100 93 100 100 98 84 5 2 0 0 0
0 0 0 14 46 100 92 40 3 0 66 4 0 0 0 0 0 0 0 0 0 0 11 21 0 0 0 4 80 100 100 100 100 100 100 64 97 100 89 5 80 49 0 0 0
0 0 4 92 100 100 69 0 0 0 0 0 0 0 0 0 0 0 0 0 0 0 21 2 0 0 0 0 43 100 100 100 100 100 100 100 100 100 100 50 5 2 0 0 0
0 7 100 100 100 100 27 0 0 0 0 0 0 0 0 0 0 0 0 0 0 0 0 0 0 0 0 5 56 100 100 100 100 100 100 100 100 100 100 100 100 1 0 0 0
0 87 97 100 100 100 62 0 0 0 0 0 0 0 0 0 0 0 0 0 0 0 0 0 0 0 10 16 30 90 100 100 100 100 100 100 100 100 100 100 40 23 0 1 0
2 21 94 100 55 19 0 0 0 0 0 0 0 0 0 0 0 0 0 0 0 0 0 0 0 0 0 1 66 33 100 100 94 100 100 97 98 100 94 28 86 1 0 6 2
0 53 100 94 0 0 0 0 0 0 0 0 0 0 0 0 0 0 0 0 0 0 0 0 0 0 0 1 94 100 94 100 100 100 100 96 99 100 100 99 49 5 3 4 6
1 100 100 92 1 0 0 0 0 0 0 0 0 0 0 0 0 0 0 0 0 3 1 0 0 0 0 2 67 96 11 100 100 100 100 100 100 9 86 97 100 100 4 1 5
0 94 98 28 18 0 0 0 0 0 0 4 0 1 0 0 4 0 3 0 5 93 100 31 0 0 0 0 1 5 0 96 100 100 100 100 99 87 95 100 100 81 9 44 100
0 42 83 0 0 0 0 0 0 0 2 5 4 2 0 24 92 18 5 88 96 100 100 100 9 2 0 0 0 0 65 98 100 100 100 100 95 100 100 100 100 99 21 47 43
0 70 12 0 0 0 0 0 0 0 3 5 39 0 1 6 10 27 74 83 100 100 100 100 15 1 0 0 0 0 38 100 100 100 100 100 100 99 96 99 100 68 81 100 100
0 0 4 23 0 0 0 0 0 0 3 5 65 5 5 3 24 54 100 46 37 61 50 99 86 5 0 0 0 0 12 100 98 100 100 100 91 100 100 100 92 28 73 73 99
0 0 2 5 0 0 0 0 0 0 0 5 64 5 3 5 22 95 45 84 62 100 100 92 6 4 4 0 0 0 49 99 84 100 88 100 100 100 87 90 79 11 66 30 55
0 0 0 0 0 0 0 0 0 4 0 4 17 19 5 4 5 9 80 75 87 99 100 100 49 14 4 0 0 0 0 41 100 82 100 100 100 100 44 47 84 80 31 59 63
0 0 0 0 1 1 5 0 0 69 6 5 5 78 6 4 4 4 46 100 100 100 100 100 100 78 55 0 0 0 5 9 94 66 18 100 100 64 100 100 94 39 45 72 100
70 35 24 9 36 3 4 20 5 95 12 5 18 36 5 5 3 4 5 92 100 100 85 100 100 100 100 5 4 73 12 2 5 5 5 89 100 100 92 88 100 46 57 67 100
100 35 88 14 43 46 100 100 66 6 5 5 8 82 39 29 5 0 0 1 11 97 100 100 100 100 100 40 51 14 5 5 1 5 0 36 100 100 91 100 100 68 24 99 100
100 53 16 70 100 100 42 91 64 29 5 5 6 100 76 79 33 6 5 0 62 29 100 100 99 100 100 100 86 53 10 1 4 0 4 11 100 100 100 100 100 100 98 98 82
82 93 58 100 100 100 93 70 89 100 88 33 7 82 28 100 19 32 3 0 5 3 100 100 100 100 100 100 98 96 5 3 5 1 92 61 100 100 100 100 100 100 100 100 100
1 19 7 17 78 100 82 75 72 100 99 94 12 78 12 100 69 81 0 0 0 2 4 28 100 100 100 100 100 32 5 1 5 5 0 27 100 100 100 100 100 100 100 100 100

GFSSW_prec_cloud_120.txt.gz
Cloud_Cover
17 17 95 100 100 100 78 59 53 13 29 34 15 16 17 16 0 0 0 0 0 0 0 0 2 5 5 52 81 100 100 89 97 100 83 100 63 4 3 0 0 0 0 1 6
16 34 37 13 2 7 10 34 96 22 22 27 19 16 22 33 11 0 0 0 0 0 0 0 2 4 5 0 96 100 100 100 100 100 97 100 69 99 26 81 0 0 1 4 0
20 22 34 19 12 27 19 10 12 98 95 22 18 24 17 25 0 0 0 0 0 0 0 0 0 0 3 45 100 100 100 100 96 100 100 100 29 17 100 81 0 0 0 0 0
10 12 20 16 16 18 13 22 10 100 100 48 21 22 8 46 0 0 0 0 0 0 0 0 0 0 5 12 100 100 100 100 100 56 67 100 54 5 50 28 0 0 0 0 0
13 0 0 6 17 19 18 29 46 92 100 32 25 20 0 0 0 0 0 0 0 0 0 0 0 0 6 6 93 100 100 100 100 100 99 89 100 49 22 70 1 0 0 0 0
3 6 0 0 0 18 28 34 67 47 31 31 23 4 0 0 0 0 0 0 0 0 0 0 0 16 10 0 6 100 100 100 100 100 83 71 95 16 60 51 1 0 0 0 0
7 0 0 18 14 19 41 82 88 39 49 36 3 0 0 0 0 0 0 0 0 0 0 0 0 12 0 0 4 100 100 100 100 100 100 30 100 78 7 9 54 0 0 0 0
0 0 14 19 36 100 100 100 100 25 69 21 0 0 0 0 0 0 0 0 0 0 0 7 66 24 0 0 4 100 100 99 100 100 100 90 100 100 88 32 4 33 0 0 0
0 11 71 100 100 100 100 30 8 1 24 0 0 0 0 0 0 0 0 0 0 0 0 69 27 79 0 0 2 97 100 100 100 100 100 100 68 100 92 100 51 2 0 0 0
0 24 98 100 100 100 22 0 0 0 1 0 0 0 0 0 0 0 0 0 0 0 0 30 0 3 0 0 5 5 100 100 100 100 100 75 62 71 79 99 8 4 0 0 0
6 22 31 100 100 100 16 0 0 0 0 0 0 0 0 0 0 0 0 0 0 0 11 0 0 0 0 0 11 13 100 100 100 100 100 100 62 90 79 98 93 0 0 0 0
1 20 100 100 100 99 6 0 0 0 0 0 0 0 0 0 0 0 0 0 0 0 0 0 0 0 0 0 85 25 100 100 100 100 100 100 100 100 95 100 6 0 0 3 0
3 74 100 100 12 1 0 0 0 0 0 0 0 0 0 0 0 0 0 0 0 0 0 0 0 0 0 1 6 50 100 100 100 100 100 100 100 100 100 92 39 60 0 0 5
15 100 100 97 0 0 0 0 0 0 0 0 0 0 0 0 0 0 0 0 0 0 0 0 0 0 0 0 11 65 22 100 100 100 100 100 100 100 93 100 92 8 5 0 5
21 100 100 75 0 0 0 0 0 0 0 0 0 0 0 1 0 0 0 0 0 0 0 0 0 0 0 0 18 89 24 100 100 100 100 100 100 100 88 100 100 53 5 5 5
13 70 98 27 2 4 1 0 0 0 0 0 0 0 0 4 3 0 0 0 0 0 0 0 0 0 0 2 5 15 97 11 100 100 100 99 100 100 100 94 100 47 5 5 40
0 61 65 0 5 4 0 0 0 0 0 0 0 0 0 1 4 0 0 0 1 0 5 0 2 3 0 74 3 2 2 14 100 100 100 100 100 100 100 99 100 64 91 5 18
1 62 8 0 5 59 3 0 0 0 0 0 0 0 0 0 1 4 0 5 5 12 19 5 3 64 4 0 0 0 0 20 22 100 100 100 100 81 99 100 84 100 100 66 96
0 0 0 0 5 5 0 0 0 0 0 0 0 0 0 3 5 0 0 5 18 99 96 6 5 61 5 0 0 6 0 40 100 100 100 100 100 79 98 100 100 100 100 100 100
3 0 0 0 2 0 0 0 0 0 0 3 5 0 0 0 0 5 1 5 81 91 89 71 75 42 5 0 0 0 22 8 100 100 100 100 100 100 100 100 100 100 100 100 100
16 52 4 3 0 0 0 0 0 4 0 3 5 0 4 4 3 5 4 4 76 97 100 94 39 7 5 2 1 1 41 26 100 97 100 100 100 100 100 100 100 100 91 93 56
6 99 100 100 14 5 5 5 5 5 5 5 5 5 5 4 5 5 4 5 89 100 90 98 45 83 99 17 5 5 5 29 100 100 100 99 100 100 100 100 100 100 100 18 27
2 98 100 100 60 15 38 54 54 5 6 5 13 5 5 5 5 8 5 3 5 97 92 87 100 100 100 95 6 0 0 0 48 100 100 99 100 100 100 100 100 100 100 85 100
0 28 100 100 100 73 5 5 5 5 18 60 74 86 19 5 5 25 6 5 0 54 100 100 99 99 100 100 78 1 0 0 0 100 100 71 100 100 100 100 100 100 100 100 100
0 1 17 100 97 13 11 5 5 19 14 43 31 89 100 86 48 12 93 6 2 0 86 100 100 95 5 55 66 48 0 0 0 0 74 100 100 100 100 100 100 99 100 100 100
0 5 5 41 69 89 100 97 20 24 56 17 6 47 100 100 98 100 85 36 5 0 0 63 100 98 100 21 53 98 14 2 0 50 98 100 100 100 100 100 100 100 100 100 100
5 5 17 22 94 90 100 100 100 72 96 99 58 100 97 100 100 100 96 92 5 2 0 0 36 100 100 56 54 41 21 8 2 5 12 22 58 100 100 100 100 100 100 100 100

GFSSW_prec_cloud_123.txt.gz
Cloud_Cover
39 41 24 14 7 4 11 10 18 25 23 18 4 24 23 15 0 0 0 0 0 0 0 0 0 0 18 99 100 99 95 52 95 100 100 72 5 3 0 0 0 0 0 0 0
25 14 17 23 21 29 22 3 2 17 83 24 17 22 24 46 0 0 0 0 0 0 0 0 0 0 0 6 91 84 99 85 100 100 100 97 39 82 10 1 0 0 0 0 0
24 23 19 24 22 22 38 19 28 5 23 91 24 22 6 38 0 0 0 0 0 0 0 0 0 0 0 0 80 100 91 100 100 99 98 100 98 91 30 0 0 0 0 4 0
12 1 0 10 10 15 20 19 44 47 24 66 34 17 6 0 0 0 0 0 0 0 0 0 0 0 0 4 79 100 81 80 100 96 31 100 100 91 91 2 0 0 45 0 0
17 8 2 5 18 20 21 29 54 66 30 24 26 7 0 0 0 0 0 0 0 0 0 0 0 0 0 0 80 100 84 64 100 100 82 100 100 66 34 82 1 0 28 0 0
6 16 11 18 24 24 39 100 100 84 27 28 14 2 0 0 0 0 0 0 0 0 0 0 0 10 0 0 46 100 100 100 100 100 99 42 100 80 6 97 3 0 0 0 0
4 14 25 46 98 100 100 88 100 100 39 27 0 0 0 0 0 0 0 0 0 0 0 0 0 90 0 0 0 8 100 97 100 100 100 56 100 100 89 32 32 0 0 0 19
15 20 72 100 100 100 55 100 93 76 14 4 0 0 0 0 0 0 0 0 0 0 0 0 32 51 0 0 2 46 100 81 75 100 100 71 89 100 5 3 7 0 0 0 0
17 74 100 100 100 100 40 2 4 0 0 0 0 0 0 0 0 0 0 0 0 0 0 36 55 35 0 0 0 5 100 30 70 100 100 93 60 100 63 82 44 3 0 0 0
4 28 100 100 100 100 6 0 0 2 1 0 0 0 0 0 0 0 0 0 0 0 0 77 99 0 0 0 0 2 100 100 100 99 100 82 99 100 100 97 100 3 0 0 0
10 39 100 100 100 100 4 0 0 0 0 0 0 0 0 0 0 0 0 0 0 0 0 2 44 33 0 0 0 5 100 100 100 100 100 100 99 62 100 87 58 30 0 0 0
15 100 100 100 90 2 0 0 0 0 0 0 0 0 0 0 0 0 0 0 0 0 0 0 15 40 0 0 1 5 74 100 100 100 100 100 84 85 68 99 81 8 2 0 0
33 100 100 32 1 0 0 0 0 0 0 0 0 0 0 0 0 0 0 0 0 0 0 0 0 0 0 0 1 5 30 100 100 100 100 100 100 99 95 95 34 4 5 4 0
46 100 100 1 0 0 0 0 0 0 0 0 0 0 0 0 0 0 0 0 0 0 0 0 0 0 0 0 4 5 26 100 100 100 100 100 100 68 100 100 100 12 7 5 5
32 100 100 0 0 0 0 5 0 0 0 0 0 0 0 0 0 0 0 0 0 0 0 0 0 0 0 0 0 10 50 92 100 99 100 100 100 100 100 100 77 84 3 12 5
23 48 92 0 0 4 5 5 1 0 0 0 0 0 0 0 0 0 0 0 0 0 0 0 0 0 0 0 0 21 96 54 100 100 100 100 100 100 96 100 100 100 10 5 57
1 37 38 0 0 0 56 4 2 0 0 0 0 0 0 0 0 0 0 0 0 0 0 0 0 0 0 0 1 4 8 10 100 100 100 100 99 100 100 83 100 100 100 35 7
26 20 2 0 1 5 64 7 0 0 0 0 0 0 0 0 0 0 0 0 0 0 0 0 0 0 0 0 0 0 0 0 100 100 100 100 97 100 100 100 100 77 100 72 24
1 0 4 0 0 0 0 0 0 0 0 0 0 0 0 2 0 0 0 0 0 0 0 0 0 1 3 4 4 0 0 3 96 100 100 100 92 99 100 100 100 84 100 100 54
0 0 5 5 5 5 5 3 0 0 0 0 0 0 0 1 3 0 0 0 0 2 5 3 0 5 5 5 0 0 0 5 98 100 100 100 100 99 100 100 100 100 100 100 98
0 0 0 89 22 5 62 45 5 4 4 5 5 5 4 5 5 4 0 4 0 0 5 5 40 12 58 81 74 2 5 9 68 75 100 100 100 100 100 100 100 100 100 100 100
0 0 0 5 36 75 5 9 5 5 5 1 0 5 5 5 37 25 5 3 5 0 0 5 5 10 15 89 89 55 41 84 100 100 100 100 100 100 100 100 100 100 100 100 100
0 0 0 0 19 20 5 21 7 5 5 5 4 5 5 5 10 100 17 5 0 5 0 2 3 15 4 79 77 5 5 6 100 77 100 100 100 100 100 100 100 100 97 100 100
0 0 0 1 1 5 5 5 3 5 17 20 5 5 5 5 5 80 99 12 5 0 0 92 19 5 6 5 100 100 3 3 82 80 100 100 100 100 100 100 100 100 96 99 14
26 0 0 5 5 5 8 5 4 5 5 5 6 12 5 5 10 100 98 95 46 4 0 0 4 5 5 36 35 100 26 4 5 100 100 100 96 100 100 100 100 100 96 73 49
6 30 8 5 22 5 47 17 24 7 12 18 5 7 9 6 55 100 100 73 37 14 5 3 0 5 43 12 65 63 5 5 100 100 100 100 100 97 100 100 100 100 100 100 100
36 39 48 35 100 55 100 100 100 35 49 22 15 58 79 75 100 100 100 100 98 6 5 5 0 0 5 1 5 5 100 42 48 97 100 100 100 100 100 100 100 100 100 100 100